[[{"header":{"parameterUnit":"m.s-1","parameterCategory":1,"la1":31.0,"la2":29.5877,"lo1":-88.7671,"lo2":-86.6584,"dy":0.0162,"dx":0.0185,"nx":115,"ny":88,"refTime":"2023-10-21T06:00:00:Z","depth":0,"parameterNumber":2,"parameterNumberName":"U-component_of_WINDS"},"data":[0.0,0.0,0.0,0.0,0.0,0.0,0.0,0.0,0.0,0.0,0.0,0.0,0.0,0.0,0.0,0.0,0.0,0.0,0.0,0.0,0.0,0.0,0.0,0.0,0.0,0.0,0.0,0.0,0.0,0.0,0.0,0.0,0.0,0.0,0.0,0.0,0.0,0.0,0.0,0.0,0.0,0.0,0.0,0.0,0.0,0.0,0.0,0.0,0.0,0.0,0.0,0.0,0.0,0.0,0.0,0.0,0.0,0.0,0.0,0.0,0.0,0.0,0.0,0.0,0.0,0.0,0.0,0.0,0.0,0.0,0.0,0.0,0.0,0.0,0.0,0.0,0.0,0.0,0.0,0.0,0.0,0.0,0.0,0.0,0.0,0.0,0.0,0.0,0.0,0.0,0.0,0.0,0.0,0.0,0.0,0.0,0.0,0.0,0.0,0.0,0.0,0.0,0.0,0.0,0.0,0.0,0.0,0.0,0.0,0.0,0.0,0.0,0.0,0.0,0.0,0.0,0.0,0.0,0.0,0.0,0.0,0.0,0.0,0.0,0.0,0.0,0.0,0.0,0.0,0.0,0.0,0.0,0.0,0.0,0.0,0.0,0.0,0.0,0.0,0.0,0.0,0.0,0.0,0.0,0.0,0.0,0.0,0.0,0.0,0.0,0.0,0.0,0.0,0.0,0.0,0.0,0.0,0.0,0.0,0.0,0.0,0.0,0.0,0.0,0.0,0.0,0.0,0.0,0.0,0.0,0.0,0.0,0.0,0.0,0.0,0.0,0.0,0.0,0.0,0.0,0.0,0.0,0.0,0.0,0.0,0.0,0.0,0.0,0.0,0.0,0.0,0.0,0.0,0.0,0.0,0.0,0.0,0.0,0.0,0.0,0.0,0.0,0.0,0.0,0.0,0.0,0.0,0.0,0.0,0.0,0.0,0.0,0.0,0.0,0.0,0.0,0.0,0.0,0.0,0.0,0.0,0.0,0.0,0.0,0.0,0.0,0.0,0.0,0.0,0.0,0.0,0.0,0.0,0.0,0.0,0.0,0.0,0.0,0.0,0.0,0.0,0.0,0.0,0.0,0.0,0.0,0.0,0.0,0.0,0.0,0.0,0.0,0.0,0.0,0.0,0.0,0.0,0.0,0.0,0.0,0.0,0.0,0.0,0.0,0.0,0.0,0.0,0.0,0.0,0.0,0.0,0.0,0.0,0.0,0.0,0.0,0.0,0.0,0.0,0.0,0.0,0.0,0.0,0.0,0.0,0.0,0.0,0.0,0.0,0.0,0.0,0.0,0.0,0.0,0.0,0.0,0.0,0.0,0.0,0.0,0.0,0.0,0.0,0.0,0.0,0.0,0.0,0.0,0.0,0.0,0.0,0.0,0.0,0.0,0.0,0.0,0.0,0.0,0.0,0.0,0.0,0.0,0.0,0.0,0.0,0.0,0.0,0.0,0.0,0.0,0.0,0.0,0.0,0.0,0.0,0.0,0.0,0.0,0.0,0.0,0.0,0.0,0.0,0.0,0.0,0.0,0.0,0.0,0.0,0.0,0.0,0.0,0.0,0.0,0.0,0.0,0.0,0.0,0.0,0.0,0.0,0.0,0.0,0.0,0.0,0.0,0.0,0.0,0.0,0.0,0.0,0.0,0.0,0.0,0.0,0.0,0.0,0.0,0.0,0.0,0.0,0.0,0.0,0.0,0.0,0.0,0.0,0.0,0.0,0.0,0.0,0.0,0.0,0.0,0.0,0.0,0.0,0.0,0.0,0.0,0.0,0.0,0.0,0.0,0.0,0.0,0.0,0.0,0.0,0.0,0.0,0.0,0.0,0.0,0.0,0.0,0.0,0.0,0.0,0.0,0.0,0.0,0.0,0.0,0.0,0.0,0.0,0.0,0.0,0.0,0.0,0.0,0.0,0.0,0.0,0.0,0.0,0.0,0.0,0.0,0.0,0.0,0.0,0.0,0.0,0.0,0.0,0.0,0.0,0.0,0.0,0.0,0.0,0.0,0.0,0.0,0.0,0.0,0.0,0.0,0.0,0.0,0.0,0.0,0.0,0.0,0.0,0.0,0.0,0.0,0.0,0.0,0.0,0.0,0.0,0.0,0.0,0.0,0.0,0.0,0.0,0.0,0.0,0.0,0.0,0.0,0.0,0.0,0.0,0.0,0.0,0.0,0.0,0.0,0.0,0.0,0.0,0.0,0.0,0.0,0.0,0.0,0.0,0.0,0.0,0.0,0.0,0.0,0.0,0.0,0.0,0.0,0.0,0.0,0.0,0.0,0.0,0.0,0.0,0.0,0.0,0.0,0.0,0.0,0.0,0.0,0.0,0.0,0.0,0.0,0.0,0.0,0.0,0.0,0.0,0.0,0.0,0.0,0.0,0.0,0.0,0.0,0.0,0.0,0.0,0.0,0.0,0.0,0.0,0.0,0.0,0.0,0.0,0.0,0.0,0.0,0.0,0.0,0.0,0.0,0.0,0.0,0.0,0.0,0.0,0.0,0.0,0.0,0.0,0.0,0.0,0.0,0.0,0.0,0.0,0.0,0.0,0.0,0.0,0.0,0.0,0.0,0.0,0.0,0.0,0.0,0.0,0.0,0.0,0.0,0.0,0.0,0.0,0.0,0.0,0.0,0.0,0.0,0.0,0.0,0.0,0.0,0.0,0.0,0.0,0.0,0.0,0.0,0.0,0.0,0.0,0.0,0.0,0.0,0.0,0.0,0.0,0.0,0.0,0.0,0.0,0.0,0.0,0.0,0.0,0.0,0.0,0.0,0.0,0.0,0.0,0.0,0.0,0.0,0.0,0.0,0.0,0.0,0.0,0.0,0.0,0.0,0.0,0.0,0.0,0.0,0.0,0.0,0.0,0.0,0.0,0.0,0.0,0.0,0.0,0.0,0.0,0.0,0.0,0.0,0.0,0.0,0.0,0.0,0.0,0.0,0.0,0.0,0.0,0.0,0.0,0.0,0.0,0.0,0.0,0.0,0.0,0.0,0.0,0.0,0.0,0.0,0.0,0.0,0.0,0.0,0.0,0.0,0.0,0.0,0.0,0.0,0.0,0.0,0.0,0.0,0.0,0.0,0.0,0.0,0.0,0.0,0.0,0.0,0.0,0.0,0.0,0.0,0.0,0.0,0.0,0.0,0.0,0.0,0.0,0.0,0.0,0.0,0.0,0.0,0.0,0.0,0.0,0.0,0.0,0.0,0.0,0.0,0.0,0.0,0.0,0.0,0.0,0.0,0.0,0.0,0.0,0.0,0.0,0.0,0.0,0.0,0.0,0.0,0.0,0.0,0.0,0.0,0.0,0.0,0.0,0.0,0.0,0.0,0.0,0.0,0.0,0.0,0.0,0.0,0.0,0.0,0.0,0.0,0.0,0.0,0.0,0.0,0.0,0.0,0.0,0.0,0.0,0.0,0.0,0.0,0.0,0.0,0.0,0.0,0.0,0.0,0.0,0.0,0.0,0.0,0.0,0.0,0.0,0.0,0.0,0.0,0.0,0.0,0.0,0.0,0.0,0.0,0.0,0.0,0.0,0.0,0.0,0.0,0.0,0.0,0.0,0.0,0.0,0.0,0.0,0.0,0.0,0.0,0.0,0.0,0.0,0.0,0.0,0.0,0.0,0.0,0.0,0.0,0.0,0.0,0.0,0.0,0.0,0.0,0.0,0.0,0.0,0.0,0.0,0.0,0.0,0.0,0.0,0.0,0.0,0.0,0.0,0.0,0.0,0.0,0.0,0.0,0.0,0.0,0.0,0.0,0.0,0.0,0.0,0.0,0.0,0.0,0.0,0.0,0.0,0.0,0.0,0.0,0.0,0.0,0.0,0.0,0.0,0.0,0.0,0.0,0.0,0.0,0.0,0.0,0.0,0.0,0.0,0.0,0.0,0.0,0.0,0.0,0.0,0.0,0.0,0.0,0.0,0.0,0.0,0.0,0.0,0.0,0.0,0.0,0.0,0.0,0.0,0.0,0.0,0.0,0.0,0.0,0.0,0.0,0.0,0.0,0.0,0.0,0.0,0.0,0.0,0.0,0.0,0.0,0.0,0.0,0.0,0.0,0.0,0.0,0.0,0.0,0.0,0.0,0.0,0.0,0.0,0.0,0.0,0.0,0.0,0.0,0.0,0.0,0.0,0.0,0.0,0.0,0.0,0.0,0.0,0.0,0.0,0.0,0.0,0.0,0.0,0.0,0.0,0.0,0.0,0.0,0.0,0.0,0.0,0.0,0.0,0.0,0.0,0.0,0.0,0.0,0.0,0.0,-0.762,0.0,0.0,0.0,0.0,0.0,0.0,0.0,0.0,0.0,0.0,0.0,0.0,0.0,0.0,0.0,0.0,0.0,0.0,0.0,0.0,0.0,0.0,0.0,0.0,0.0,0.0,0.0,0.0,0.0,0.0,0.0,0.0,0.0,0.0,0.0,0.0,0.0,0.0,0.0,0.0,0.0,0.0,0.0,0.0,0.0,0.0,0.0,0.0,0.0,0.0,0.0,0.0,0.0,0.0,0.0,0.0,0.0,0.0,0.0,0.0,0.0,0.0,0.0,0.0,0.0,0.0,0.0,0.0,0.0,0.0,0.0,0.0,0.0,0.0,0.0,0.0,0.0,0.0,0.0,0.0,0.0,0.0,0.0,0.0,0.0,0.0,0.0,0.0,0.0,0.0,0.0,0.0,0.0,0.0,0.0,0.0,0.0,0.0,0.0,0.0,0.0,0.0,0.0,0.0,0.0,0.0,0.0,0.0,0.0,0.0,-0.7131,-0.7099,-0.7246,-0.7359,-0.742,0.0,0.0,0.0,0.0,0.0,0.0,0.0,0.0,0.0,0.0,0.0,0.0,0.0,0.0,0.0,0.0,0.0,0.0,0.0,0.0,0.0,0.0,0.0,0.0,0.0,0.0,0.0,0.0,0.0,0.0,0.0,0.0,0.0,0.0,0.0,0.0,0.0,0.0,0.0,0.0,0.0,0.0,0.0,0.0,0.0,0.0,0.0,0.0,0.0,0.0,0.0,0.0,0.0,0.0,0.0,0.0,0.0,0.0,0.0,0.0,0.0,0.0,0.0,0.0,0.0,0.0,0.0,0.0,0.0,0.0,0.0,0.0,0.0,0.0,0.0,0.0,0.0,0.0,0.0,0.0,0.0,0.0,0.0,0.0,0.0,0.0,0.0,0.0,0.0,0.0,0.0,0.0,0.0,0.0,0.0,0.0,0.0,0.0,0.0,0.0,0.0,0.0,0.0,0.0,0.0,0.0,0.0,0.0,0.0,0.0,0.0,0.0,-0.7088,-0.723,-0.7292,0.0,0.0,0.0,0.0,0.0,0.0,0.0,0.0,0.0,0.0,0.0,0.0,0.0,0.0,0.0,0.0,0.0,0.0,0.0,0.0,0.0,0.0,0.0,0.0,0.0,0.0,0.0,0.0,0.0,0.0,0.0,0.0,0.0,0.0,0.0,0.0,0.0,0.0,0.0,0.0,0.0,0.0,0.0,0.0,0.0,0.0,0.0,0.0,0.0,0.0,0.0,0.0,0.0,0.0,0.0,0.0,0.0,0.0,0.0,0.0,0.0,0.0,0.0,0.0,0.0,0.0,0.0,0.0,0.0,0.0,0.0,0.0,0.0,0.0,0.0,0.0,0.0,0.0,0.0,0.0,0.0,0.0,0.0,0.0,0.0,0.0,0.0,0.0,0.0,0.0,0.0,0.0,0.0,0.0,0.0,0.0,0.0,0.0,0.0,0.0,0.0,0.0,0.0,0.0,0.0,0.0,0.0,0.0,0.0,0.0,-0.6642,-0.6878,-0.702,0.0,-0.729,0.0,0.0,0.0,0.0,0.0,0.0,0.0,0.0,0.0,0.0,0.0,0.0,0.0,0.0,0.0,0.0,0.0,0.0,0.0,0.0,0.0,0.0,0.0,0.0,0.0,0.0,0.0,0.0,0.0,0.0,0.0,0.0,0.0,0.0,0.0,0.0,0.0,0.0,0.0,0.0,0.0,0.0,0.0,0.0,0.0,0.0,0.0,0.0,0.0,0.0,0.0,0.0,0.0,0.0,0.0,0.0,0.0,0.0,0.0,0.0,0.0,0.0,0.0,0.0,0.0,0.0,0.0,0.0,0.0,0.0,0.0,0.0,0.0,0.0,0.0,0.0,0.0,0.0,0.0,0.0,0.0,0.0,0.0,0.0,0.0,0.0,0.0,0.0,0.0,0.0,0.0,0.0,0.0,0.0,0.0,0.0,0.0,0.0,0.0,0.0,0.0,0.0,0.0,0.0,0.0,0.0,0.0,0.0,0.0,0.0,-0.6478,-0.6647,-0.6894,-0.7055,0.0,0.0,0.0,0.0,0.0,0.0,0.0,0.0,0.0,0.0,0.0,0.0,0.0,0.0,0.0,0.0,0.0,0.0,0.0,0.0,0.0,0.0,0.0,0.0,0.0,0.0,0.0,0.0,0.0,0.0,0.0,0.0,0.0,0.0,0.0,0.0,0.0,0.0,0.0,0.0,0.0,0.0,0.0,0.0,0.0,0.0,0.0,0.0,0.0,0.0,0.0,0.0,0.0,0.0,0.0,0.0,0.0,0.0,0.0,0.0,0.0,0.0,0.0,0.0,0.0,0.0,0.0,0.0,0.0,0.0,0.0,0.0,0.0,0.0,0.0,0.0,0.0,0.0,0.0,0.0,0.0,0.0,0.0,0.0,0.0,0.0,0.0,0.0,0.0,0.0,0.0,0.0,0.0,0.0,0.0,0.0,0.0,0.0,0.0,0.0,0.0,0.0,0.0,0.0,0.0,0.0,0.0,0.0,0.0,0.0,-0.6134,-0.6384,-0.6591,-0.6845,-0.6993,-0.6993,0.0,0.0,0.0,0.0,0.0,0.0,0.0,0.0,0.0,0.0,0.0,0.0,0.0,0.0,0.0,0.0,0.0,0.0,0.0,0.0,0.0,0.0,0.0,0.0,0.0,0.0,0.0,0.0,0.0,0.0,0.0,0.0,0.0,0.0,0.0,0.0,0.0,0.0,0.0,0.0,0.0,0.0,0.0,0.0,0.0,0.0,0.0,0.0,0.0,0.0,0.0,0.0,0.0,0.0,0.0,0.0,0.0,0.0,0.0,0.0,0.0,0.0,0.0,0.0,0.0,0.0,0.0,0.0,0.0,0.0,0.0,0.0,0.0,0.0,0.0,0.0,0.0,0.0,0.0,0.0,0.0,0.0,0.0,0.0,0.0,0.0,0.0,0.0,0.0,0.0,0.0,0.0,0.0,0.0,0.0,0.0,0.0,0.0,0.0,0.0,0.0,0.0,0.0,0.0,0.0,0.0,0.0,0.0,-0.5811,-0.6116,-0.6455,-0.6757,-0.6874,-0.6927,0.0,0.0,0.0,0.0,0.0,0.0,0.0,0.0,0.0,0.0,0.0,0.0,0.0,0.0,0.0,0.0,0.0,0.0,0.0,0.0,0.0,0.0,0.0,0.0,0.0,0.0,0.0,0.0,0.0,0.0,0.0,0.0,0.0,0.0,0.0,0.0,0.0,0.0,0.0,0.0,0.0,0.0,0.0,0.0,0.0,0.0,0.0,0.0,0.0,0.0,0.0,0.0,0.0,0.0,0.0,0.0,0.0,0.0,0.0,0.0,0.0,0.0,0.0,0.0,0.0,0.0,0.0,0.0,0.0,0.0,0.0,0.0,0.0,0.0,0.0,0.0,0.0,0.0,0.0,0.0,0.0,0.0,0.0,0.0,0.0,0.0,0.0,0.0,0.0,0.0,0.0,0.0,0.0,0.0,0.0,0.0,0.0,0.0,0.0,0.0,0.0,0.0,0.0,0.0,0.0,0.0,0.0,0.0,0.0,-0.5874,-0.6242,-0.6517,-0.6723,-0.6878,-0.699,0.0,0.0,0.0,0.0,0.0,0.0,0.0,0.0,0.0,0.0,0.0,0.0,0.0,0.0,0.0,0.0,0.0,0.0,0.0,0.0,0.0,0.0,0.0,0.0,0.0,0.0,0.0,0.0,0.0,0.0,0.0,0.0,0.0,0.0,0.0,0.0,0.0,0.0,0.0,0.0,0.0,0.0,0.0,0.0,0.0,0.0,0.0,0.0,0.0,0.0,0.0,0.0,0.0,0.0,0.0,0.0,0.0,0.0,0.0,0.0,0.0,0.0,0.0,0.0,0.0,0.0,0.0,0.0,0.0,0.0,0.0,0.0,0.0,0.0,0.0,0.0,0.0,0.0,0.0,0.0,0.0,0.0,0.0,0.0,0.0,0.0,0.0,0.0,0.0,0.0,0.0,0.0,0.0,0.0,0.0,0.0,0.0,0.0,0.0,0.0,0.0,0.0,0.0,0.0,0.0,0.0,0.0,0.0,0.0,-0.5977,0.0,-0.6505,-0.6706,-0.6841,-0.6908,0.0,0.0,0.0,0.0,0.0,0.0,0.0,0.0,0.0,0.0,0.0,0.0,0.0,0.0,0.0,0.0,0.0,0.0,0.0,0.0,0.0,0.0,0.0,0.0,0.0,0.0,0.0,0.0,0.0,0.0,0.0,0.0,0.0,0.0,0.0,0.0,0.0,0.0,0.0,0.0,0.0,0.0,0.0,0.0,0.0,0.0,0.0,0.0,0.0,0.0,0.0,0.0,0.0,0.0,0.0,0.0,0.0,0.0,0.0,0.0,0.0,0.0,0.0,0.0,0.0,0.0,0.0,0.0,0.0,0.0,0.0,0.0,0.0,0.0,0.0,0.0,0.0,0.0,0.0,0.0,0.0,0.0,0.0,0.0,0.0,0.0,0.0,0.0,0.0,0.0,0.0,0.0,0.0,0.0,0.0,0.0,0.0,0.0,0.0,0.0,0.0,0.0,0.0,0.0,0.0,0.0,0.0,0.0,-0.6177,-0.6133,-0.6284,-0.6486,-0.671,-0.674,-0.6749,0.0,0.0,0.0,0.0,0.0,0.0,0.0,0.0,0.0,0.0,0.0,0.0,0.0,0.0,0.0,0.0,0.0,0.0,0.0,0.0,0.0,0.0,0.0,0.0,0.0,0.0,0.0,0.0,0.0,0.0,0.0,0.0,0.0,0.0,0.0,0.0,0.0,0.0,0.0,0.0,0.0,0.0,0.0,0.0,0.0,0.0,0.0,0.0,0.0,0.0,0.0,0.0,0.0,0.0,0.0,0.0,0.0,0.0,0.0,0.0,0.0,0.0,0.0,0.0,0.0,0.0,0.0,0.0,0.0,0.0,0.0,0.0,0.0,0.0,0.0,0.0,0.0,0.0,0.0,0.0,0.0,0.0,0.0,0.0,0.0,0.0,0.0,0.0,0.0,0.0,0.0,0.0,0.0,0.0,0.0,0.0,0.0,0.0,0.0,0.0,0.0,0.0,0.0,0.0,0.0,0.0,0.0,0.0,0.0,-0.6601,-0.7035,-0.7366,-0.758,-0.7331,-0.7237,0.0,0.0,0.0,0.0,0.0,0.0,0.0,0.0,0.0,0.0,0.0,0.0,0.0,0.0,0.0,0.0,0.0,0.0,0.0,0.0,0.0,0.0,0.0,0.0,0.0,0.0,0.0,0.0,0.0,0.0,0.0,0.0,0.0,0.0,0.0,0.0,0.0,0.0,0.0,0.0,0.0,0.0,0.0,0.0,0.0,0.0,0.0,0.0,0.0,0.0,0.0,0.0,0.0,0.0,0.0,0.0,0.0,0.0,0.0,0.0,0.0,0.0,0.0,0.0,0.0,0.0,0.0,0.0,0.0,0.0,0.0,0.0,0.0,0.0,0.0,0.0,0.0,0.0,0.0,0.0,0.0,0.0,0.0,0.0,0.0,0.0,0.0,0.0,0.0,0.0,0.0,0.0,0.0,0.0,0.0,0.0,0.0,0.0,0.0,0.0,0.0,0.0,0.0,0.0,0.0,0.0,0.0,0.0,0.0,-0.7102,-0.7417,-0.7678,-0.7854,-0.7486,-0.7434,-0.7728,0.0,0.0,0.0,0.0,0.0,0.0,0.0,0.0,0.0,0.0,0.0,0.0,0.0,0.0,0.0,0.0,0.0,0.0,0.0,0.0,0.0,0.0,0.0,0.0,0.0,0.0,0.0,0.0,0.0,0.0,0.0,0.0,0.0,0.0,0.0,0.0,0.0,0.0,0.0,0.0,0.0,0.0,0.0,0.0,0.0,0.0,0.0,0.0,0.0,0.0,0.0,0.0,0.0,0.0,0.0,0.0,0.0,0.0,0.0,0.0,0.0,0.0,0.0,0.0,0.0,0.0,0.0,0.0,0.0,0.0,0.0,0.0,0.0,0.0,0.0,0.0,0.0,0.0,0.0,0.0,0.0,0.0,0.0,0.0,0.0,0.0,0.0,0.0,0.0,0.0,0.0,0.0,0.0,0.0,0.0,0.0,0.0,0.0,0.0,0.0,0.0,0.0,0.0,0.0,0.0,0.0,0.0,0.0,-0.7603,-0.7492,-0.7519,-0.7691,-0.7353,-0.744,0.0,0.0,0.0,0.0,0.0,0.0,0.0,0.0,0.0,0.0,0.0,0.0,0.0,0.0,0.0,0.0,0.0,0.0,0.0,0.0,0.0,0.0,0.0,0.0,0.0,0.0,0.0,0.0,0.0,0.0,0.0,0.0,0.0,0.0,0.0,0.0,0.0,0.0,0.0,0.0,0.0,0.0,0.0,0.0,0.0,0.0,0.0,0.0,0.0,0.0,0.0,0.0,0.0,0.0,0.0,0.0,0.0,0.0,0.0,0.0,0.0,0.0,0.0,0.0,0.0,0.0,0.0,0.0,0.0,0.0,0.0,0.0,0.0,0.0,0.0,0.0,0.0,0.0,0.0,0.0,0.0,0.0,0.0,0.0,0.0,0.0,0.0,0.0,0.0,0.0,0.0,0.0,0.0,0.0,0.0,0.0,0.0,0.0,0.0,0.0,0.0,0.0,0.0,0.0,0.0,0.0,0.0,0.0,0.0,-0.7766,-0.7866,-0.8101,-0.8439,-0.8113,-0.8027,0.0,0.0,0.0,0.0,0.0,0.0,0.0,0.0,0.0,0.0,0.0,0.0,0.0,0.0,0.0,0.0,0.0,0.0,0.0,0.0,0.0,0.0,0.0,0.0,0.0,0.0,0.0,0.0,0.0,0.0,0.0,0.0,0.0,0.0,0.0,0.0,0.0,0.0,0.0,0.0,0.0,0.0,0.0,0.0,0.0,0.0,0.0,0.0,0.0,0.0,0.0,0.0,0.0,0.0,0.0,0.0,0.0,0.0,0.0,0.0,0.0,0.0,0.0,0.0,0.0,0.0,0.0,0.0,0.0,0.0,0.0,0.0,0.0,0.0,0.0,0.0,0.0,0.0,0.0,0.0,0.0,0.0,0.0,0.0,0.0,0.0,0.0,0.0,0.0,0.0,0.0,0.0,0.0,0.0,0.0,0.0,0.0,0.0,0.0,0.0,0.0,0.0,0.0,0.0,0.0,0.0,0.0,0.0,-0.7451,-0.7686,-0.7879,-0.8156,-0.8495,-0.82,-0.8189,0.0,0.0,0.0,0.0,0.0,0.0,0.0,0.0,0.0,0.0,0.0,0.0,0.0,0.0,0.0,0.0,0.0,0.0,0.0,0.0,0.0,0.0,0.0,0.0,0.0,0.0,0.0,0.0,0.0,0.0,0.0,0.0,0.0,0.0,0.0,0.0,0.0,0.0,0.0,0.0,0.0,0.0,0.0,0.0,0.0,0.0,0.0,0.0,0.0,0.0,0.0,0.0,0.0,0.0,0.0,0.0,0.0,0.0,0.0,0.0,0.0,0.0,0.0,0.0,0.0,0.0,0.0,0.0,0.0,0.0,0.0,0.0,0.0,0.0,0.0,0.0,0.0,0.0,0.0,0.0,0.0,0.0,0.0,0.0,0.0,0.0,0.0,0.0,0.0,0.0,0.0,0.0,0.0,0.0,0.0,0.0,0.0,0.0,0.0,0.0,0.0,0.0,0.0,0.0,0.0,0.0,0.0,0.0,-0.7184,-0.7451,-0.7656,-0.7879,-0.807,-0.7935,-0.8101,0.0,0.0,0.0,0.0,0.0,0.0,0.0,0.0,0.0,0.0,0.0,0.0,0.0,0.0,0.0,0.0,0.0,0.0,0.0,0.0,0.0,0.0,0.0,0.0,0.0,0.0,0.0,0.0,0.0,0.0,0.0,0.0,0.0,0.0,0.0,0.0,0.0,0.0,0.0,0.0,0.0,0.0,0.0,0.0,0.0,0.0,0.0,0.0,0.0,0.0,0.0,0.0,0.0,0.0,0.0,0.0,0.0,0.0,0.0,0.0,0.0,0.0,0.0,0.0,0.0,0.0,0.0,0.0,0.0,0.0,0.0,0.0,0.0,0.0,0.0,0.0,0.0,0.0,0.0,0.0,0.0,0.0,0.0,0.0,0.0,0.0,0.0,0.0,0.0,0.0,0.0,0.0,0.0,0.0,0.0,0.0,0.0,0.0,0.0,0.0,0.0,0.0,0.0,0.0,0.0,0.0,0.0,0.0,-0.6876,-0.7184,-0.7383,-0.7618,-0.785,-0.8119,-0.8314,0.0,0.0,0.0,0.0,0.0,0.0,0.0,0.0,0.0,0.0,0.0,0.0,0.0,0.0,0.0,0.0,0.0,0.0,0.0,0.0,0.0,0.0,0.0,0.0,0.0,0.0,0.0,0.0,0.0,0.0,0.0,0.0,0.0,0.0,0.0,0.0,0.0,0.0,0.0,0.0,0.0,0.0,0.0,0.0,0.0,0.0,0.0,0.0,-0.1978,0.0,0.0,0.0,0.0,0.0,0.0,0.0,0.0,0.0,0.0,0.0,0.0,0.0,0.0,0.0,0.0,0.0,0.0,0.0,0.0,0.0,0.0,0.0,0.0,0.0,0.0,0.0,0.0,0.0,0.0,0.0,0.0,0.0,0.0,0.0,0.0,0.0,0.0,0.0,0.0,0.0,0.0,0.0,0.0,0.0,0.0,0.0,0.0,0.0,0.0,0.0,0.0,0.0,0.0,0.0,0.0,0.0,0.0,0.0,-0.6205,-0.6145,-0.652,-0.6772,-0.6826,-0.7307,-0.7748,0.0,0.0,0.0,0.0,0.0,0.0,0.0,0.0,0.0,0.0,0.0,0.0,0.0,0.0,0.0,0.0,0.0,0.0,0.0,0.0,0.0,0.0,0.0,0.0,0.0,0.0,0.0,0.0,0.0,0.0,0.0,0.0,0.0,0.0,0.0,0.0,0.0,0.0,0.0,0.0,0.0,0.0,0.0,0.0,0.0,0.0,0.0,0.0,0.0,0.0,0.0,0.0,0.0,0.0,0.0,0.0,0.0,0.0,0.0,0.0,0.0,0.0,0.0,0.0,0.0,0.0,0.0,0.0,0.0,0.0,0.0,0.0,0.0,0.0,0.0,0.0,0.0,0.0,0.0,0.0,0.0,0.0,0.0,0.0,0.0,0.0,0.0,0.0,0.0,0.0,0.0,0.0,0.0,0.0,0.0,0.0,0.0,0.0,0.0,0.0,0.0,0.0,0.0,0.0,0.0,0.0,0.0,-0.5768,-0.5552,-0.5104,-0.5642,-0.5887,-0.5774,-0.6277,-0.6986,-0.7865,0.0,0.0,0.0,0.0,0.0,0.0,0.0,0.0,0.0,0.0,0.0,0.0,0.0,0.0,0.0,0.0,0.0,0.0,0.0,0.0,0.0,0.0,0.0,0.0,0.0,0.0,0.0,0.0,0.0,0.0,0.0,0.0,0.0,0.0,0.0,0.0,0.0,0.0,-0.2305,-0.1942,0.0,0.0,0.0,0.0,0.0,0.0,0.0,0.0,-0.1419,0.0,0.0,0.0,0.0,0.0,0.0,0.0,0.0,0.0,0.0,0.0,0.0,0.0,0.0,0.0,0.0,0.0,0.0,0.0,0.0,0.0,0.0,0.0,0.0,0.0,0.0,0.0,0.0,0.0,0.0,0.0,0.0,0.0,0.0,0.0,0.0,0.0,0.0,0.0,0.0,0.0,0.0,0.0,0.0,0.0,0.0,0.0,0.0,0.0,0.0,0.0,0.0,0.0,0.0,0.0,0.0,-0.5538,-0.535,-0.5267,-0.5332,-0.5566,-0.5783,-0.6005,-0.6241,-0.6594,-0.705,0.0,0.0,0.0,0.0,0.0,0.0,0.0,0.0,0.0,0.0,0.0,0.0,0.0,0.0,0.0,0.0,0.0,0.0,0.0,0.0,0.0,0.0,0.0,0.0,0.0,0.0,0.0,0.0,0.0,0.0,0.0,0.0,0.0,0.0,0.0,0.0,0.0,0.0,0.0,-0.1842,-0.1739,0.0,0.0,0.0,0.0,0.0,0.0,0.0,0.0,-0.1211,0.0,0.0,0.0,0.0,0.0,0.0,0.0,0.0,0.0,0.0,0.0,0.0,0.0,0.0,0.0,0.0,0.0,0.0,0.0,0.0,0.0,0.0,0.0,0.0,0.0,0.0,0.0,0.0,0.0,0.0,0.0,0.0,0.0,0.0,0.0,0.0,0.0,0.0,0.0,0.0,0.0,0.0,0.0,0.0,0.0,0.0,0.0,0.0,0.0,0.0,0.0,0.0,0.0,0.0,0.0,-0.5285,-0.4955,-0.4657,-0.4441,-0.4749,-0.4957,-0.5065,-0.5334,-0.5764,0.0,0.0,0.0,0.0,0.0,0.0,0.0,0.0,0.0,0.0,0.0,0.0,0.0,0.0,0.0,0.0,0.0,0.0,0.0,0.0,0.0,0.0,0.0,0.0,0.0,0.0,0.0,0.0,0.0,0.0,0.0,0.0,0.0,0.0,0.0,0.0,0.0,0.0,0.0,0.0,-0.2079,-0.1951,-0.1999,0.0,0.0,0.0,0.0,0.0,0.0,-0.1449,-0.1388,0.0,0.0,0.0,0.0,0.0,0.0,0.0,0.0,0.0,0.0,0.0,0.0,0.0,0.0,0.0,0.0,0.0,0.0,0.0,0.0,0.0,0.0,0.0,0.0,0.0,0.0,0.0,0.0,0.0,0.0,0.0,0.0,0.0,0.0,0.0,0.0,0.0,0.0,0.0,0.0,0.0,0.0,0.0,0.0,0.0,0.0,0.0,0.0,0.0,0.0,0.0,0.0,0.0,0.0,0.0,-0.5047,-0.4609,-0.413,-0.3637,-0.4055,-0.4232,-0.4194,-0.4506,-0.5062,0.0,0.0,0.0,0.0,0.0,0.0,0.0,0.0,0.0,0.0,0.0,0.0,0.0,0.0,0.0,0.0,0.0,0.0,0.0,0.0,0.0,0.0,0.0,0.0,0.0,0.0,0.0,0.0,0.0,0.0,0.0,0.0,0.0,0.0,0.0,0.0,0.0,0.0,0.0,0.0,0.0,-0.2204,-0.2146,-0.199,0.0,0.0,0.0,0.0,-0.1675,-0.165,0.0,0.0,0.0,0.0,0.0,0.0,0.0,0.0,0.0,0.0,0.0,0.0,0.0,0.0,0.0,0.0,0.0,0.0,0.0,0.0,0.0,0.0,0.0,0.0,0.0,0.0,0.0,0.0,0.0,0.0,0.0,0.0,0.0,0.0,0.0,0.0,0.0,0.0,0.0,0.0,0.0,0.0,0.0,0.0,0.0,0.0,0.0,0.0,0.0,0.0,0.0,0.0,0.0,0.0,0.0,0.0,-0.4818,-0.4282,-0.3954,-0.3956,-0.4122,-0.4285,-0.4446,-0.4558,-0.4963,0.0,0.0,0.0,0.0,0.0,0.0,0.0,0.0,0.0,0.0,0.0,0.0,0.0,0.0,0.0,0.0,0.0,0.0,0.0,0.0,0.0,0.0,0.0,0.0,0.0,0.0,0.0,0.0,0.0,0.0,0.0,0.0,0.0,0.0,0.0,0.0,0.0,0.0,0.0,0.0,0.0,-0.2305,-0.2199,-0.2086,-0.2056,0.0,0.0,-0.1925,-0.1859,-0.1755,0.0,0.0,0.0,0.0,0.0,0.0,0.0,0.0,0.0,0.0,0.0,0.0,0.0,0.0,0.0,0.0,0.0,0.0,0.0,0.0,0.0,0.0,0.0,0.0,0.0,0.0,0.0,0.0,0.0,0.0,0.0,0.0,0.0,0.0,0.0,0.0,0.0,0.0,0.0,0.0,0.0,0.0,0.0,0.0,0.0,0.0,0.0,0.0,0.0,0.0,0.0,0.0,0.0,0.0,0.0,-0.484,-0.4844,-0.4215,-0.3931,-0.4001,-0.4097,-0.4232,-0.4435,-0.4463,-0.4739,0.0,0.0,0.0,0.0,0.0,0.0,0.0,0.0,0.0,0.0,0.0,0.0,0.0,0.0,0.0,0.0,0.0,0.0,0.0,0.0,0.0,0.0,0.0,0.0,0.0,0.0,0.0,0.0,0.0,0.0,0.0,0.0,0.0,0.0,0.0,0.0,0.0,0.0,0.0,0.0,0.0,0.0,-0.2471,-0.2258,0.0,0.0,0.0,-0.2077,-0.1966,0.0,0.0,0.0,0.0,0.0,0.0,0.0,0.0,0.0,0.0,0.0,0.0,0.0,0.0,0.0,0.0,0.0,0.0,0.0,0.0,0.0,0.0,0.0,0.0,0.0,0.0,0.0,0.0,0.0,0.0,0.0,0.0,0.0,0.0,0.0,0.0,0.0,0.0,0.0,0.0,0.0,0.0,0.0,0.0,0.0,0.0,0.0,0.0,0.0,0.0,0.0,0.0,0.0,0.0,0.0,0.0,0.0,-0.4885,-0.4223,-0.3931,-0.4001,-0.4055,-0.4199,-0.4423,-0.4403,0.0,0.0,0.0,0.0,0.0,0.0,0.0,0.0,0.0,0.0,0.0,0.0,0.0,0.0,0.0,0.0,0.0,0.0,0.0,0.0,0.0,0.0,0.0,0.0,0.0,0.0,0.0,-0.2067,0.0,0.0,0.0,0.0,0.0,0.0,0.0,0.0,0.0,0.0,0.0,0.0,0.0,0.0,-0.2817,-0.269,-0.2461,-0.2346,0.0,0.0,-0.2254,-0.2177,-0.2162,-0.2099,0.0,0.0,0.0,0.0,0.0,0.0,0.0,0.0,0.0,0.0,0.0,0.0,0.0,0.0,0.0,0.0,0.0,0.0,0.0,0.0,0.0,0.0,0.0,0.0,0.0,0.0,0.0,0.0,0.0,0.0,0.0,0.0,0.0,0.0,0.0,0.0,0.0,0.0,0.0,0.0,0.0,0.0,0.0,0.0,0.0,0.0,0.0,0.0,0.0,0.0,0.0,0.0,0.0,0.0,-0.4781,-0.4792,-0.4215,-0.3939,-0.4001,-0.4055,-0.4232,-0.4475,-0.4423,-0.4811,0.0,0.0,0.0,0.0,0.0,0.0,0.0,0.0,0.0,0.0,0.0,0.0,0.0,0.0,0.0,0.0,0.0,0.0,0.0,0.0,0.0,0.0,0.0,0.0,0.0,0.0,0.0,0.0,0.0,0.0,0.0,0.0,0.0,0.0,0.0,0.0,0.0,0.0,0.0,0.0,0.0,-0.279,-0.2797,-0.2559,-0.2442,0.0,-0.2597,-0.2521,-0.2493,-0.2547,-0.2493,-0.228,0.0,0.0,0.0,0.0,0.0,0.0,0.0,0.0,0.0,0.0,0.0,0.0,0.0,0.0,0.0,0.0,0.0,0.0,0.0,0.0,0.0,0.0,0.0,0.0,0.0,0.0,0.0,0.0,0.0,0.0,0.0,0.0,0.0,0.0,0.0,0.0,0.0,0.0,0.0,0.0,0.0,0.0,0.0,0.0,0.0,0.0,0.0,0.0,0.0,0.0,0.0,0.0,0.0,-0.5012,-0.48,-0.4415,-0.4141,-0.4016,-0.4055,-0.4219,-0.4423,-0.4374,-0.4578,0.0,0.0,0.0,0.0,0.0,0.0,0.0,0.0,0.0,0.0,0.0,0.0,0.0,0.0,0.0,0.0,0.0,0.0,0.0,0.0,0.0,0.0,0.0,0.0,0.0,0.0,0.0,0.0,-0.2399,-0.2445,-0.2305,0.0,0.0,0.0,0.0,0.0,0.0,0.0,0.0,0.0,0.0,-0.2896,-0.2749,-0.2607,0.0,0.0,-0.2583,-0.254,-0.2516,-0.2437,-0.2307,-0.2252,-0.2239,0.0,0.0,0.0,0.0,0.0,0.0,0.0,0.0,0.0,0.0,0.0,0.0,0.0,0.0,0.0,0.0,0.0,0.0,0.0,0.0,0.0,0.0,0.0,0.0,0.0,0.0,0.0,0.0,0.0,0.0,0.0,0.0,0.0,0.0,0.0,0.0,0.0,0.0,0.0,0.0,0.0,0.0,0.0,0.0,0.0,0.0,0.0,0.0,0.0,0.0,0.0,0.0,-0.5243,-0.498,-0.4642,-0.4388,-0.4204,-0.4295,-0.4435,-0.4633,-0.4722,-0.4919,0.0,0.0,0.0,0.0,0.0,0.0,0.0,0.0,0.0,0.0,0.0,0.0,0.0,0.0,0.0,0.0,0.0,0.0,0.0,0.0,0.0,0.0,0.0,0.0,0.0,0.0,0.0,0.0,-0.253,-0.2571,-0.2478,0.0,0.0,0.0,0.0,0.0,0.0,0.0,0.0,0.0,0.0,-0.3007,-0.2902,-0.2808,-0.2778,-0.2792,-0.28,-0.2811,-0.2839,-0.2671,-0.2614,-0.2616,0.0,0.0,0.0,0.0,0.0,0.0,0.0,0.0,0.0,0.0,0.0,0.0,0.0,0.0,0.0,0.0,0.0,0.0,0.0,0.0,0.0,0.0,0.0,0.0,0.0,0.0,0.0,-0.6826,0.0,0.0,-0.5849,0.0,0.0,0.0,0.0,0.0,0.0,0.0,0.0,0.0,0.0,0.0,0.0,0.0,0.0,0.0,0.0,0.0,0.0,0.0,0.0,0.0,0.0,-0.5461,-0.5368,-0.4876,-0.4641,-0.4688,-0.4818,-0.4969,-0.5195,-0.5556,-0.6011,-0.6502,0.0,0.0,0.0,0.0,0.0,0.0,0.0,0.0,0.0,0.0,0.0,0.0,0.0,0.0,0.0,0.0,0.0,0.0,0.0,0.0,0.0,0.0,0.0,0.0,0.0,0.0,-0.2524,-0.2563,-0.2604,0.0,0.0,0.0,0.0,0.0,0.0,0.0,0.0,0.0,-0.315,-0.3216,-0.3225,-0.339,-0.3239,-0.313,-0.3135,-0.3251,-0.3457,-0.3566,-0.3523,-0.3526,0.0,0.0,0.0,0.0,0.0,0.0,0.0,0.0,0.0,0.0,0.0,0.0,0.0,0.0,0.0,0.0,0.0,0.0,0.0,0.0,0.0,0.0,0.0,0.0,0.0,0.0,0.0,-0.791,-0.7503,0.0,0.0,0.0,0.0,0.0,0.0,0.0,0.0,0.0,0.0,0.0,-0.6942,-0.69,0.0,0.0,0.0,0.0,0.0,0.0,0.0,0.0,0.0,0.0,0.0,0.0,-0.5754,-0.5605,-0.5475,-0.5335,-0.5233,-0.5372,-0.5518,-0.5745,-0.5813,-0.6072,-0.6457,0.0,0.0,0.0,0.0,0.0,0.0,0.0,0.0,0.0,0.0,0.0,0.0,0.0,0.0,0.0,0.0,0.0,0.0,0.0,0.0,0.0,0.0,0.0,0.0,0.0,-0.288,0.0,0.0,0.0,0.0,0.0,0.0,0.0,0.0,0.0,0.0,0.0,-0.3053,-0.3167,-0.3337,-0.3481,-0.3524,-0.3648,-0.3754,0.0,0.0,0.0,0.0,0.0,0.0,0.0,0.0,0.0,0.0,0.0,0.0,0.0,0.0,-0.0951,-0.0,0.035,0.0554,0.0655,0.0,0.0,0.0,0.0,0.0,0.0,0.0,0.0,0.0,0.0,0.0,0.0,0.0,0.0,-0.9374,-0.8959,-0.8659,0.0,0.0,0.0,0.0,0.0,0.0,0.0,0.0,-0.7373,-0.7543,-0.7657,-0.7682,-0.761,-0.7495,-0.7558,-0.732,0.0,0.0,0.0,0.0,0.0,0.0,0.0,0.0,-0.6308,-0.6185,-0.6022,-0.5888,-0.5839,-0.5961,-0.6116,-0.6279,-0.6382,-0.651,-0.6657,-0.6689,-0.6801,0.0,0.0,0.0,0.0,0.0,0.0,0.0,0.0,0.0,0.0,0.0,0.0,0.0,0.0,0.0,0.0,0.0,0.0,0.0,0.0,0.0,0.0,0.0,-0.3126,0.0,0.0,0.0,0.0,0.0,0.0,0.0,0.0,0.0,-0.2741,-0.2988,-0.3257,-0.3387,-0.3704,-0.3925,-0.3984,0.0,0.0,0.0,0.0,0.0,0.0,0.0,-0.4599,-0.443,-0.4402,-0.4414,-0.4369,-0.4235,-0.4044,-0.3613,0.0,0.0,-0.1103,-0.0706,-0.0488,-0.0271,-0.0163,-0.0164,-0.0112,-0.0056,-0.0056,0.0,0.0,0.0,0.0,-1.0955,0.0,0.0,0.0,-1.1411,-1.1331,0.0,-1.0553,0.0,0.0,0.0,0.0,-0.8422,-0.8342,0.0,0.0,-0.8326,-0.8237,-0.8113,-0.8078,-0.8087,-0.8079,-0.8079,-0.807,-0.8026,-0.7715,0.0,0.0,0.0,0.0,0.0,0.0,-0.7132,-0.7107,-0.6559,-0.6317,-0.6455,-0.662,-0.6757,-0.6858,-0.7291,-0.7406,-0.7195,-0.7558,-0.7568,-0.7253,-0.7434,0.0,0.0,0.0,0.0,0.0,0.0,0.0,0.0,0.0,0.0,0.0,0.0,0.0,0.0,0.0,0.0,0.0,0.0,0.0,0.0,-0.3444,0.0,0.0,0.0,0.0,0.0,0.0,0.0,0.0,0.0,-0.3155,-0.3097,-0.336,-0.367,-0.3779,0.0,0.0,0.0,0.0,-0.5032,-0.5032,-0.5165,-0.5283,-0.5431,-0.5456,-0.5398,-0.524,0.0,0.0,-0.506,-0.5218,-0.5165,-0.4729,-0.4501,-0.4003,-0.2591,-0.2144,-0.1837,-0.153,-0.1404,-0.129,-0.1417,-0.1348,-0.1289,-1.4809,0.0,0.0,0.0,0.0,-1.2707,-1.2746,-1.2681,-1.2954,-1.2842,-1.2459,-1.2113,0.0,0.0,0.0,0.0,0.0,0.0,-1.0293,-1.0075,-1.0196,-1.0201,-1.0076,-0.9645,-0.952,-0.947,-0.9202,-0.9068,-0.9068,-0.9086,-0.8659,-0.7886,0.0,0.0,0.0,0.0,-0.7843,-0.786,-0.7542,-0.7417,-0.754,-0.7373,-0.7481,-0.7928,-0.8176,-0.8376,-0.8596,-0.8571,-0.846,-0.8287,-0.8249,0.0,0.0,0.0,0.0,0.0,0.0,0.0,0.0,0.0,0.0,0.0,0.0,0.0,0.0,0.0,0.0,0.0,0.0,0.0,-0.3876,-0.418,-0.4211,0.0,0.0,0.0,0.0,0.0,0.0,0.0,0.0,0.0,-0.4256,-0.3975,-0.3946,0.0,0.0,-0.5075,-0.5366,-0.5778,-0.6075,-0.6075,-0.6248,0.0,-0.6164,-0.6093,-0.6029,-0.567,-0.5717,-0.5872,-0.5954,-0.605,-0.6069,-0.5868,-0.5675,-0.5281,-0.469,-0.3723,-0.3018,-0.2826,-0.2644,-0.2604,-0.265,-0.2663,-0.2615,-1.7883,-1.6368,-1.5056,-1.4323,-1.4016,-1.4076,-1.4108,-1.4144,-1.4227,-1.4099,-1.3816,-1.3564,-1.3168,-1.2613,-1.2103,0.0,0.0,0.0,-1.1758,-1.136,-1.1489,-1.1397,-1.1148,-1.086,-1.0686,-1.0667,-1.0274,-1.0087,-1.0087,-0.9986,-0.9571,-0.8858,0.0,-0.8673,-0.8664,-0.8577,-0.8532,-0.8585,-0.828,-0.822,-0.8384,-0.8264,-0.8381,-0.8733,-0.884,-0.9026,-0.9298,-0.9186,-0.9161,-0.9266,-0.9226,-0.8947,0.0,0.0,0.0,0.0,0.0,0.0,0.0,0.0,0.0,0.0,0.0,-0.492,-0.4829,0.0,0.0,0.0,-0.4423,-0.4609,-0.4816,-0.4924,0.0,0.0,0.0,0.0,0.0,0.0,0.0,-0.476,-0.4923,-0.51,-0.5108,-0.4908,-0.4772,-0.4798,-0.5223,-0.5616,-0.583,0.0,-0.6505,-0.6436,-0.658,-0.6615,-0.6373,-0.6361,-0.6256,-0.6021,-0.6086,-0.6305,-0.6576,-0.663,-0.672,-0.6724,-0.6539,-0.6338,-0.6148,-0.5324,-0.4571,-0.4261,-0.3945,-0.3842,-0.3903,-0.3913,-0.3868,-2.0769,-2.0471,-1.7518,-1.6088,-1.5709,-1.5312,-1.5394,-1.5695,-1.5295,-1.5145,-1.5145,-1.4849,-1.4397,-1.3889,-1.3748,0.0,-1.332,-1.324,-1.2925,-1.2389,-1.2389,-1.2152,-1.1782,-1.1762,-1.1743,-1.1743,-1.1308,-1.105,-1.0991,-1.0607,-1.0273,-1.0157,-0.9939,-0.979,-0.9704,-0.9365,-0.9245,-0.9273,-0.8906,-0.8828,-0.9004,-0.9197,-0.9352,-0.9349,-0.9359,-0.9437,-0.9579,-0.9623,-0.976,-1.0092,-1.0287,-1.0075,-0.9417,0.0,0.0,0.0,0.0,0.0,0.0,0.0,0.0,0.0,0.0,0.0,0.0,0.0,0.0,0.0,-0.5148,0.0,-0.5947,-0.58,0.0,0.0,0.0,-0.5489,-0.5329,-0.5269,-0.538,-0.5663,0.0,0.0,-0.586,-0.605,-0.5946,-0.5496,-0.5868,-0.6155,-0.6178,-0.6462,-0.6626,-0.6462,-0.6375,-0.6371,-0.6409,-0.6322,-0.63,-0.6283,-0.6303,-0.6465,-0.6766,-0.7001,-0.7147,-0.7196,-0.7177,-0.712,-0.6937,-0.6728,-0.6478,-0.5672,-0.5209,-0.5008,-0.514,-0.5071,-0.5005,-2.1885,-2.1685,-2.0282,-1.9294,-1.8623,-1.7702,-1.7269,-1.7068,-1.6392,-1.6034,-1.5905,-1.5763,-1.5343,-1.4791,-1.51,-1.4936,-1.4359,-1.4644,-1.4518,-1.4056,-1.3909,-1.3704,-1.3397,-1.3038,-1.2837,-1.2762,-1.2144,-1.1714,-1.1389,-1.1186,-1.0835,-1.0507,-1.0765,-1.0585,-0.995,-0.9992,-1.005,-1.0041,-0.9817,-0.9537,-0.9251,-0.9322,-0.9542,-0.9899,-0.9955,-1.0165,-1.0551,-1.0578,-1.0464,-1.0284,-1.0709,-1.1009,-1.1014,-1.0387,0.0,0.0,0.0,0.0,0.0,0.0,0.0,0.0,0.0,-0.568,-0.6032,0.0,-0.6044,0.0,-0.6216,-0.6481,-0.6768,-0.6993,0.0,0.0,-0.6813,-0.6789,-0.6373,-0.6444,-0.6606,-0.6668,-0.6775,-0.6844,-0.6956,-0.7079,-0.7079,-0.6858,-0.6651,-0.6571,-0.6806,-0.6957,-0.7135,-0.7021,-0.6947,-0.6849,-0.6687,-0.6417,-0.6225,-0.6211,-0.6346,-0.6515,-0.655,-0.6759,-0.6932,-0.7182,-0.7229,-0.7222,-0.7367,-0.7199,-0.7003,-0.6806,-0.6346,-0.6017,-0.6086,-0.602,-0.6017,-2.2701,-2.2643,-2.2047,-2.1454,-2.0851,-1.9081,-1.8135,-1.7746,-1.6847,-1.6392,-1.6275,-1.6144,-1.5886,-1.5587,-1.5879,-1.5724,-1.5329,-1.546,-1.5289,-1.4926,-1.48,-1.4593,-1.4283,-1.3963,-1.3809,-1.3798,-1.3137,-1.2679,-1.2478,-1.2152,-1.1799,-1.156,-1.1675,-1.1469,-1.0951,-1.1023,-1.0974,-1.0726,-1.049,-1.0209,-0.9975,-1.0037,-1.0195,-1.0442,-1.0463,-1.0576,-1.086,-1.0812,-1.0726,-1.0683,-1.1235,-1.1656,-1.1862,-1.1233,-1.0428,0.0,0.0,0.0,0.0,0.0,0.0,0.0,0.0,0.0,0.0,0.0,-0.7139,-0.738,-0.7379,-0.7551,-0.7965,-0.8064,-0.8041,-0.7891,-0.7991,-0.7985,-0.7591,-0.7623,-0.7662,-0.7506,-0.7571,-0.7652,-0.7658,-0.783,-0.7889,-0.783,-0.7623,-0.7377,-0.7115,-0.7155,-0.7191,-0.7156,-0.7021,-0.6872,-0.6626,-0.6409,-0.6173,-0.6237,-0.6271,-0.6421,-0.6516,-0.6571,-0.6804,-0.7083,-0.7216,-0.7283,-0.7478,-0.7396,-0.733,-0.7265,-0.7068,-0.6876,-0.6683,-0.6618,-0.6618,-2.3363,-2.3304,-2.3068,-2.2814,-2.2472,-1.9915,-1.8575,-1.8201,-1.7076,-1.6522,-1.6491,-1.6318,-1.6287,-1.6287,-1.6287,-1.6188,-1.6088,-1.5913,-1.5691,-1.54,-1.5277,-1.5085,-1.4846,-1.4789,-1.4719,-1.4697,-1.4116,-1.3839,-1.374,-1.3162,-1.285,-1.2711,-1.2509,-1.2348,-1.2218,-1.2236,-1.1948,-1.1338,-1.1021,-1.0915,-1.0915,-1.0964,-1.1043,-1.1095,-1.0997,-1.0987,-1.0958,-1.0831,-1.0831,-1.1036,-1.1675,-1.2131,-1.2307,-1.181,-1.1163,0.0,-0.9266,0.0,0.0,0.0,0.0,0.0,0.0,0.0,0.0,-0.7861,-0.8245,-0.8652,-0.8492,-0.8592,-0.9109,-0.9015,-0.8935,-0.8942,-0.9033,-0.8981,-0.8725,-0.8732,-0.8567,-0.829,-0.829,-0.829,-0.8283,-0.8461,-0.8527,-0.8527,-0.854,-0.824,-0.7538,-0.7378,-0.7266,-0.7063,-0.6869,-0.6752,-0.6514,-0.6341,-0.6228,-0.6232,-0.6182,-0.6234,-0.6398,-0.6431,-0.6615,-0.6965,-0.7078,-0.724,-0.7445,-0.7497,-0.7526,-0.7461,-0.7461,-0.733,-0.7073,-0.7012,-0.6946,-2.3566,-2.3523,-2.3304,-2.3083,-2.2684,-2.0739,-1.9604,-1.8963,-1.763,-1.6989,-1.6791,-1.6791,-1.6761,-1.6761,-1.6633,-1.6547,-1.6392,-1.6306,-1.6132,-1.5856,-1.5856,-1.5736,-1.5603,-1.5457,-1.5379,-1.5322,-1.4858,-1.4429,-1.4026,-1.3554,-1.3184,-1.2807,-1.289,-1.2947,-1.2923,0.0,0.0,0.0,-1.1488,-1.1447,-1.1447,-1.1447,-1.1633,-1.2037,-1.1922,0.0,-1.1828,-1.1626,-1.126,-1.0766,-1.1639,0.0,0.0,0.0,0.0,0.0,0.0,0.0,0.0,0.0,0.0,0.0,-0.9065,-0.9,-0.8713,-0.881,-0.8941,-0.9128,-0.9169,-0.9283,-0.9532,-0.9591,-0.9584,-0.9636,-0.9636,-0.9577,-0.9413,-0.9309,-0.9204,-0.9145,-0.9145,-0.9145,-0.9152,-0.9302,-0.9302,-0.9204,-0.9204,-0.9047,-0.8685,-0.8146,-0.7722,-0.7568,-0.7241,-0.6923,-0.6701,-0.649,-0.6282,-0.6228,-0.6173,-0.6192,-0.6234,-0.6298,-0.6304,-0.6634,-0.673,-0.6974,-0.7177,-0.7407,-0.7507,-0.7521,-0.7521,-0.7461,-0.7396,-0.7391,-0.7391,-2.3595,-2.3551,-2.3392,-2.3127,0.0,-2.1424,-2.0559,-1.9881,-1.8028,-1.7086,-1.6888,-1.6888,-1.6888,-1.6888,-1.6846,-1.6748,-1.6705,-1.6577,-1.6491,-1.6362,-1.6306,-1.6219,-1.6132,-1.602,-1.5901,-1.5836,-1.5546,-1.5239,-1.4885,-1.4552,-1.4239,-1.3916,-1.3892,-1.3785,-1.3739,-1.3788,-1.3267,-1.2244,-1.2111,-1.2006,-1.1954,-1.2006,-1.2111,-1.2287,-1.2169,0.0,0.0,0.0,0.0,0.0,0.0,0.0,0.0,-1.2559,0.0,-1.1883,-1.126,-1.0782,-1.0466,-1.0131,-0.9943,-0.9865,-1.0099,-1.0042,-0.9539,-0.9532,-0.9615,-0.9766,-0.9807,-0.9899,-1.005,-1.0105,-1.0162,-1.011,-1.0162,-1.0102,-0.9991,-0.9895,-0.9784,-0.9732,-0.9681,-0.9681,-0.9681,-0.9732,-0.9784,-0.9681,-0.9681,-0.9629,-0.9375,-0.8784,-0.8249,-0.7996,-0.7509,-0.7133,-0.702,-0.6652,-0.6386,-0.6332,-0.6228,-0.6232,-0.6173,-0.6173,-0.6298,-0.6431,-0.6567,-0.6762,-0.6969,-0.7173,-0.7281,-0.721,-0.7319,-0.7469,-0.7412,-0.745,-0.7526,-2.3774,-2.3731,-2.3451,-2.3187,-2.2846,-2.1883,-2.1125,-2.0448,-1.8432,0.0,0.0,-1.7256,-1.7256,-1.7256,-1.7269,-1.7226,-1.7226,-1.7109,-1.7053,-1.7023,-1.691,-1.6804,-1.6716,-1.6604,-1.6424,-1.6244,-1.6132,-1.5913,-1.5715,-1.5492,-1.53,-1.5119,-1.4846,-1.4627,-1.4466,-1.4233,-1.3807,-1.3223,-1.2836,-1.2604,-1.2475,-1.2604,-1.2647,-1.259,-1.2459,-1.2405,-1.2405,-1.2361,-1.2253,-1.1993,-1.2554,-1.3068,-1.3305,-1.2974,-1.2715,-1.2598,-1.1948,-1.1468,-1.1334,-1.1077,-1.0893,-1.066,-1.0897,-1.0761,-1.0198,-1.0154,-1.0205,-1.0368,-1.0316,-1.0368,-1.0522,-1.0522,-1.0522,-1.0522,-1.0522,-1.047,-1.0368,-1.0316,-1.0265,-1.0102,-1.0102,-1.011,-1.0102,-1.0102,-1.0102,-1.0102,-1.0102,-1.0051,-0.9844,-0.9309,-0.8784,-0.8421,-0.7937,-0.7557,-0.7343,-0.6972,-0.6603,-0.6495,-0.6391,-0.6287,-0.6232,-0.6232,-0.6294,-0.6426,-0.6497,-0.6606,-0.6712,-0.6965,-0.704,-0.6829,-0.7111,-0.7369,-0.7168,-0.7234,-0.7343,-2.4433,-2.4388,-2.3644,-2.3231,-2.298,-2.1928,-2.0785,-1.9692,-1.9096,-1.8753,-1.8617,-1.8617,-1.8617,-1.863,-1.8578,-1.8533,-1.8533,-1.8382,-1.8311,-1.8311,-1.8323,-1.8054,-1.7562,-1.7505,-1.7118,-1.6491,-1.6324,-1.6064,-1.5792,-1.5647,-1.5468,-1.5255,-1.5119,-1.4915,-1.4663,-1.4617,-1.4503,-1.4367,-1.3592,-1.3167,-1.3167,-1.3167,-1.3358,-1.375,-1.3611,-1.3575,-1.3575,-1.346,-1.3367,-1.332,-1.3439,-1.3616,-1.3873,-1.3392,-1.3064,-1.2929,-1.2648,-1.2492,-1.2434,-1.2229,-1.1994,-1.1697,-1.1525,-1.125,-1.082,-1.0675,-1.0616,-1.0616,-1.0522,-1.047,-1.0522,-1.0522,-1.0522,-1.0522,-1.0522,-1.0462,-1.047,-1.047,-1.047,-1.0419,-1.0411,-1.0419,-1.0419,-1.0419,-1.0419,-1.0419,-1.0368,-1.036,-1.0154,-0.9681,-0.9211,-0.8896,-0.8633,-0.8256,-0.7931,-0.7563,-0.7192,-0.6879,-0.6825,-0.6657,-0.644,-0.6386,-0.6346,-0.627,-0.6351,-0.6463,-0.6582,-0.6688,-0.6782,-0.6759,-0.6913,-0.6951,-0.6843,-0.6871,-0.7002,-2.5334,-2.5198,-2.4716,-2.4368,-2.4017,-2.2804,-2.1638,-2.0529,-2.0233,-1.9661,-1.8924,-1.8898,-1.8898,-1.8898,-1.8878,-1.8845,-1.8832,-1.8786,-1.8773,-1.8773,-1.8786,-1.863,-1.8364,-1.8338,-1.8164,-1.7753,-1.7696,-1.7503,-1.7198,-1.7002,-1.6672,-1.62,-1.5655,-1.5322,-1.522,-1.5175,-1.5096,-1.4983,-1.4348,-1.4011,-1.392,-1.3965,-1.4074,-1.4197,-1.4093,-1.4046,-1.3999,-1.3952,-1.3905,-1.3821,-1.3905,-1.4041,-1.4174,-1.3768,-1.3467,-1.3314,-1.319,-1.3045,-1.2997,-1.2745,-1.2501,-1.2382,-1.2166,-1.1959,-1.1678,-1.1276,-1.0972,-1.082,-1.0675,-1.0573,-1.0522,-1.0522,-1.0522,-1.0522,-1.0522,-1.0522,-1.0522,-1.0522,-1.0522,-1.0522,-1.0522,-1.0522,-1.0522,-1.0522,-1.0522,-1.0522,-1.0522,-1.047,-1.0427,-1.0154,-0.9844,-0.948,-0.9113,-0.8791,-0.8527,-0.8043,-0.767,-0.7456,-0.7246,-0.7031,-0.6815,-0.6707,-0.6495,-0.6337,-0.6368,-0.636,-0.6318,-0.6482,-0.6548,-0.6492,-0.667,-0.6735,-0.6665,-0.6623,-0.6752,-2.6152,-2.609,-2.5706,-2.5364,-2.4859,-2.378,-2.2762,-2.1942,-2.1682,-2.0926,-1.9925,-1.9612,-1.9564,-1.9695,-1.9695,-1.9695,-1.9682,-1.9682,-1.9729,-1.9729,-1.9729,-1.9612,-1.9409,-1.9383,-1.9185,-1.8897,-1.8825,-1.8673,-1.8414,-1.8226,-1.7847,-1.7226,-1.6502,-1.6035,-1.5903,-1.5858,-1.5733,-1.5447,-1.5153,-1.4834,-1.4558,-1.4662,-1.4662,-1.4512,-1.4373,-1.4316,-1.428,-1.428,-1.4186,-1.4114,-1.4186,-1.4302,-1.4378,-1.4089,-1.3847,-1.3763,-1.3621,-1.3467,-1.3362,-1.317,-1.3025,-1.292,-1.2881,-1.2725,-1.2461,-1.1968,-1.1469,-1.1124,-1.0879,-1.0667,-1.0573,-1.0522,-1.0522,-1.0522,-1.0522,-1.0522,-1.0522,-1.0522,-1.0522,-1.0522,-1.0522,-1.0522,-1.0522,-1.0522,-1.0522,-1.0522,-1.0522,-1.0522,-1.0522,-1.0522,-1.0316,-0.9999,-0.9532,-0.9218,-0.9113,-0.8626,-0.8243,-0.809,-0.7771,-0.7509,-0.7246,-0.6977,-0.6761,-0.6549,-0.6391,-0.6301,-0.6301,-0.6346,-0.6393,-0.6322,-0.6431,-0.6571,-0.6445,-0.6407,-0.6506,-2.6929,-2.6728,-2.6071,-2.5316,-2.4898,-2.4397,-2.3977,-2.359,-2.3362,-2.318,-2.2701,-2.1758,-2.1538,-2.2034,-2.2035,-2.197,-2.1983,-2.2074,-2.2075,-2.2155,-2.2247,-2.1796,-2.0926,-2.0775,-2.0088,-1.9179,-1.8988,-1.8926,-1.8665,-1.861,-1.8414,-1.8091,-1.7758,-1.7345,-1.6929,-1.688,-1.6544,-1.5969,-1.5913,-1.5591,-1.5062,-1.5062,-1.5017,-1.4869,-1.4743,-1.4616,-1.4569,-1.4477,-1.4373,-1.4384,-1.4373,-1.4384,-1.4395,-1.4233,-1.4129,-1.4129,-1.401,-1.3915,-1.3773,-1.3784,-1.3678,-1.3573,-1.3662,-1.3566,-1.3132,-1.2832,-1.2295,-1.1637,-1.1133,-1.0896,-1.0726,-1.0589,-1.0545,-1.0522,-1.0522,-1.0522,-1.0522,-1.0522,-1.0522,-1.0522,-1.0522,-1.0522,-1.0522,-1.0522,-1.0522,-1.0522,-1.0522,-1.0522,-1.0522,-1.0522,-1.0522,-1.036,-1.011,-0.9792,-0.9569,-0.9309,-0.8942,-0.862,-0.8415,-0.8103,-0.7676,-0.7348,-0.7133,-0.6928,-0.6657,-0.6495,-0.6386,-0.6301,-0.6261,-0.6306,-0.6344,-0.6248,-0.6265,-0.622,-0.636,-2.8369,-2.8274,-2.7784,-2.6803,-2.5608,-2.5099,-2.453,-2.3914,-2.3606,-2.3681,-2.3876,-2.3446,-2.3124,-2.2924,-2.2911,-2.2964,-2.2911,-2.2858,-2.2897,-2.295,-2.2831,-2.2525,-2.2293,-2.2123,-2.1741,-2.1292,-2.1202,-2.1114,-2.0935,-2.0547,-2.0122,-1.9577,-1.9039,-1.8465,-1.7903,-1.7886,-1.7714,-1.7293,-1.7085,-1.6744,-1.6336,-1.5802,-1.548,-1.5334,-1.5108,-1.488,-1.4789,-1.4569,-1.443,-1.443,-1.443,-1.443,-1.443,-1.4326,-1.428,-1.4222,-1.414,-1.4057,-1.3915,-1.401,-1.401,-1.3821,-1.3879,-1.3842,-1.3583,-1.3557,-1.3362,-1.2811,-1.2066,-1.1506,-1.135,-1.114,-1.0954,-1.0775,-1.0718,-1.0718,-1.0624,-1.0616,-1.0565,-1.0522,-1.0522,-1.0522,-1.0522,-1.0522,-1.0522,-1.0522,-1.0522,-1.0522,-1.0522,-1.0522,-1.0522,-1.0462,-1.036,-1.0257,-0.9991,-0.974,-0.948,-0.9204,-0.8949,-0.858,-0.8262,-0.783,-0.7563,-0.7306,-0.7085,-0.6864,-0.6815,-0.6761,-0.6712,-0.6603,-0.6386,-0.6332,-0.6332,-0.6228,-0.6332,-2.9623,-2.9506,-2.9316,-2.8344,-2.6902,-2.6509,-2.5936,-2.5289,-2.4998,-2.5196,-2.5534,-2.5602,-2.531,-2.4785,-2.4187,-2.3863,-2.3876,-2.4,-2.4068,-2.4136,-2.4,-2.3946,-2.3947,-2.3675,-2.3526,-2.3366,-2.3111,-2.2951,-2.2751,-2.222,-2.1564,-2.1029,-2.05,-1.9872,-1.9188,-1.9118,-1.8891,-1.8579,-1.8129,-1.7785,-1.7358,-1.6727,-1.6159,-1.5727,-1.5345,-1.5062,-1.4903,-1.4605,-1.443,-1.443,-1.443,-1.443,-1.443,-1.443,-1.4373,-1.428,-1.4269,-1.4287,-1.4286,-1.4381,-1.4424,-1.4339,-1.443,-1.4441,-1.4279,-1.4393,-1.4379,-1.4202,-1.3355,-1.2708,-1.2139,-1.1786,-1.1503,-1.1199,-1.1099,-1.0972,-1.082,-1.0812,-1.0769,-1.0573,-1.0565,-1.0522,-1.0522,-1.0522,-1.0522,-1.0522,-1.0522,-1.0522,-1.0522,-1.0522,-1.0522,-1.0522,-1.0522,-1.047,-1.0368,-1.011,-0.9895,-0.9681,-0.9361,-0.9099,-0.8784,-0.8355,-0.8037,-0.7836,-0.761,-0.7396,-0.7241,-0.7246,-0.7192,-0.7031,-0.6815,-0.6544,-0.649,-0.6386,-0.6287,-3.033,-3.0262,-2.9947,-2.9552,-2.9183,-2.8767,-2.8656,-2.8327,-2.8332,-2.8419,-2.8306,-2.8335,-2.8504,-2.8286,-2.6327,-2.5329,-2.5398,-2.5938,-2.6187,-2.6228,-2.6593,-2.6544,-2.6079,-2.5734,-2.5235,-2.4697,-2.4171,-2.3525,-2.2991,-2.2711,-2.247,-2.2323,-2.2124,-2.1703,-2.0951,-2.0501,-2.0025,-1.9681,-1.911,-1.8513,-1.7958,-1.7841,-1.7163,-1.607,-1.5504,-1.5245,-1.4949,-1.4616,-1.4452,-1.4441,-1.4452,-1.4452,-1.4441,-1.4406,-1.4449,-1.4439,-1.4417,-1.4613,-1.4958,-1.5034,-1.5044,-1.5217,-1.5405,-1.5553,-1.522,-1.5235,-1.5363,-1.5546,-1.5069,-1.4337,-1.3296,-1.2627,-1.2114,-1.1904,-1.1541,-1.1327,-1.1141,-1.1091,-1.0972,-1.0777,-1.0667,-1.0616,-1.0522,-1.0522,-1.0522,-1.0522,-1.0522,-1.0522,-1.0522,-1.0522,-1.0522,-1.0522,-1.0522,-1.0522,-1.047,-1.0316,-1.0154,-0.9991,-0.9725,-0.9458,-0.9145,-0.8837,-0.8626,-0.8309,-0.8043,-0.783,-0.767,-0.7568,-0.7515,-0.7354,-0.7192,-0.6977,-0.681,-0.6549,-0.6475,-3.1006,-3.0899,-3.0684,-3.0187,-2.954,-2.9167,-2.8987,-2.8931,-2.8735,-2.8805,-2.8987,-2.9057,-2.9153,-2.9287,-2.8473,-2.7981,-2.7859,-2.7838,-2.7897,-2.7854,-2.7636,-2.7388,-2.7031,-2.6708,-2.6402,-2.6113,-2.5824,-2.5405,-2.4808,-2.4641,-2.4139,-2.3457,-2.3199,-2.2799,-2.2153,-2.1957,-2.1628,-2.0998,-2.0505,-1.9925,-1.9265,-1.8819,-1.8248,-1.7576,-1.6727,-1.61,-1.573,-1.572,-1.5501,-1.4986,-1.4964,-1.4927,-1.4875,-1.5137,-1.5312,-1.5312,-1.5312,-1.5389,-1.5542,-1.5563,-1.5495,-1.5367,-1.5628,-1.5891,-1.5935,-1.5964,-1.5988,-1.6072,-1.6071,-1.569,-1.5147,-1.4099,-1.3268,-1.2994,-1.2491,-1.2093,-1.1885,-1.1583,-1.1217,-1.0871,-1.0675,-1.0573,-1.0522,-1.0522,-1.0522,-1.0522,-1.0522,-1.0522,-1.0522,-1.0522,-1.0522,-1.0522,-1.0522,-1.0522,-1.0522,-1.047,-1.0368,-1.0205,-0.9999,-0.9725,-0.9458,-0.9256,-0.904,-0.8791,-0.8527,-0.8421,-0.8315,-0.8156,-0.8049,-0.7943,-0.7729,-0.7458,-0.7128,-0.7039,-0.6895,-3.2127,-3.2145,-3.2064,-3.1516,-3.0719,-3.0436,-3.0205,-2.9915,-2.9814,-2.99,-3.0052,-3.0123,-3.0233,-3.0428,-3.0664,-3.0699,-3.0447,-2.9876,-2.9532,-2.9448,-2.9115,-2.8799,-2.8517,-2.8074,-2.7687,-2.7414,-2.7176,-2.6796,-2.6253,-2.608,-2.5482,-2.4536,-2.4369,-2.4019,-2.3375,-2.3177,-2.2858,-2.2365,-2.1776,-2.1082,-2.0425,-1.9794,-1.9258,-1.8799,-1.8105,-1.7405,-1.6741,-1.6636,-1.6386,-1.592,-1.5755,-1.5717,-1.5576,-1.5741,-1.5877,-1.5877,-1.5826,-1.5851,-1.5981,-1.6003,-1.5994,-1.5987,-1.6157,-1.6381,-1.6574,-1.6645,-1.6645,-1.6634,-1.6639,-1.6694,-1.6404,-1.5525,-1.4683,-1.4112,-1.3478,-1.3032,-1.2794,-1.2428,-1.1972,-1.1379,-1.0894,-1.0632,-1.0573,-1.0522,-1.0522,-1.0522,-1.0522,-1.0522,-1.0522,-1.0522,-1.0522,-1.0522,-1.0522,-1.0522,-1.0522,-1.047,-1.047,-1.0316,-1.0213,-0.9991,-0.9777,-0.9621,-0.9413,-0.9211,-0.9061,-0.9008,-0.8903,-0.8745,-0.8639,-0.854,-0.8381,-0.8081,-0.7859,-0.7633,-0.7494,-3.3652,-3.3994,-3.4178,-3.3541,-3.2846,-3.2743,-3.2543,-3.191,-3.1864,-3.1777,-3.1804,-3.1936,-3.1977,-3.2272,-3.2684,-3.315,-3.2909,-3.1925,-3.1337,-3.1146,-3.118,-3.0936,-3.0523,-2.9638,-2.8983,-2.8652,-2.8026,-2.7406,-2.685,-2.6749,-2.635,-2.5792,-2.5576,-2.5123,-2.4607,-2.4019,-2.3781,-2.3514,-2.2694,-2.1914,-2.1296,-2.0745,-2.0127,-1.9469,-1.9512,-1.9057,-1.7847,-1.7337,-1.7076,-1.6907,-1.6773,-1.6623,-1.6446,-1.6271,-1.6074,-1.6089,-1.5953,-1.6099,-1.6448,-1.6535,-1.6732,-1.7005,-1.7213,-1.7125,-1.717,-1.7169,-1.7202,-1.7135,-1.7045,-1.7011,-1.6965,-1.6631,-1.6048,-1.5139,-1.4449,-1.3999,-1.3819,-1.3638,-1.3201,-1.2158,-1.1318,-1.0802,-1.0675,-1.0675,-1.0573,-1.0522,-1.0522,-1.0522,-1.0522,-1.0522,-1.0522,-1.0522,-1.0522,-1.0522,-1.0522,-1.0522,-1.0522,-1.047,-1.0368,-1.0213,-0.994,-0.9777,-0.9569,-0.9413,-0.9316,-0.9263,-0.9211,-0.9113,-0.907,-0.8944,-0.8815,-0.8694,-0.8526,-0.8293,-0.8206,-3.426,-3.4386,-3.4252,-3.4101,-3.3844,-3.3726,-3.3302,-3.271,-3.268,-3.2722,-3.2852,-3.2837,-3.3154,-3.3725,-3.4002,-3.4079,-3.4152,-3.3983,-3.3593,-3.2946,-3.2776,-3.2167,-3.1325,-3.0748,-3.001,-2.9077,-2.8666,-2.8067,-2.7528,-2.7434,-2.706,-2.6519,-2.6045,-2.5761,-2.5459,-2.4932,-2.446,-2.4,-2.3703,-2.3229,-2.2582,-2.1924,-2.1408,-2.1198,-2.0726,-2.0231,-1.9829,-1.9233,-1.8556,-1.7927,-1.784,-1.7588,-1.7197,-1.7157,-1.7122,-1.7014,-1.6917,-1.6863,-1.7005,-1.7038,-1.7082,-1.7245,-1.7278,-1.7278,-1.7278,-1.7278,-1.7278,-1.7278,-1.7211,-1.7211,-1.7145,-1.7022,-1.6645,-1.6136,-1.5467,-1.4919,-1.4596,-1.4,-1.3157,-1.2439,-1.1931,-1.1498,-1.109,-1.093,-1.082,-1.0667,-1.0624,-1.0624,-1.0514,-1.0522,-1.0522,-1.0522,-1.0522,-1.0522,-1.0522,-1.0522,-1.0522,-1.0522,-1.0419,-1.0265,-1.0051,-0.9888,-0.9725,-0.9569,-0.9517,-0.9465,-0.9465,-0.9477,-0.939,-0.9416,-0.9302,-0.9184,-0.9112,-0.8999,-0.8945,-3.4999,-3.5214,-3.5078,-3.4925,-3.4666,-3.4591,-3.4164,-3.36,-3.3539,-3.3597,-3.3698,-3.3683,-3.3986,-3.446,-3.4722,-3.4845,-3.4906,-3.5416,-3.5293,-3.4622,-3.4042,-3.3238,-3.2065,-3.1013,-3.0199,-2.9358,-2.8972,-2.8538,-2.8058,-2.8017,-2.7732,-2.7149,-2.6755,-2.6307,-2.5928,-2.552,-2.5046,-2.4517,-2.4177,-2.3933,-2.3473,-2.2866,-2.2382,-2.214,-2.1626,-2.1232,-2.0947,-2.051,-1.9952,-1.9207,-1.8892,-1.8533,-1.8101,-1.7997,-1.7854,-1.7634,-1.7468,-1.7368,-1.7323,-1.7256,-1.7278,-1.7278,-1.7278,-1.7278,-1.7278,-1.7278,-1.7278,-1.7278,-1.7278,-1.7278,-1.7278,-1.72,-1.7032,-1.6853,-1.6273,-1.5817,-1.5401,-1.4518,-1.3781,-1.3212,-1.2653,-1.2105,-1.1705,-1.1277,-1.1091,-1.082,-1.0718,-1.0624,-1.0522,-1.0522,-1.0522,-1.0522,-1.0522,-1.0522,-1.0522,-1.0522,-1.0522,-1.0522,-1.047,-1.0316,-1.0051,-0.9999,-0.9836,-0.9673,-0.9569,-0.9517,-0.9524,-0.9691,-0.9753,-0.9755,-0.9764,-0.9826,-0.9814,-0.9845,-0.9767,-3.5907,-3.6461,-3.6476,-3.6061,-3.5568,-3.5537,-3.5153,-3.4583,-3.4522,-3.4522,-3.4537,-3.4522,-3.4599,-3.4768,-3.5322,-3.5537,-3.5645,-3.6091,-3.6229,-3.5843,-3.5213,-3.433,-3.2998,-3.1145,-3.0045,-2.9602,-2.9149,-2.8817,-2.8556,-2.8556,-2.8315,-2.7786,-2.7583,-2.7149,-2.6294,-2.5968,-2.5561,-2.5059,-2.4503,-2.415,-2.4137,-2.3594,-2.3013,-2.2485,-2.2282,-2.192,-2.1444,-2.1184,-2.0871,-2.0409,-1.9787,-1.9426,-1.9162,-1.8655,-1.8182,-1.7963,-1.7689,-1.7479,-1.7334,-1.7334,-1.7278,-1.7278,-1.7278,-1.7278,-1.7278,-1.7278,-1.7278,-1.7278,-1.7278,-1.7278,-1.7278,-1.7278,-1.7278,-1.7222,-1.68,-1.6394,-1.612,-1.5266,-1.4654,-1.4304,-1.3465,-1.2516,-1.2305,-1.1738,-1.1319,-1.0972,-1.0828,-1.0675,-1.0522,-1.0522,-1.0522,-1.0522,-1.0522,-1.0522,-1.0522,-1.0522,-1.0522,-1.0522,-1.047,-1.036,-1.0102,-1.0051,-0.9895,-0.9725,-0.9621,-0.9621,-0.968,-0.9788,-0.9991,-1.0063,-1.0179,-1.0391,-1.0458,-1.0436,-1.0316,-3.6322,-3.6492,-3.6492,-3.6399,-3.623,-3.623,-3.583,-3.526,-3.5214,-3.5214,-3.5214,-3.5214,-3.5476,-3.5938,-3.6091,-3.623,-3.6261,-3.6399,-3.6492,-3.6414,-3.6213,-3.5032,-3.3425,-3.1737,-3.0553,-3.0007,-2.9637,-2.9275,-2.878,-2.8716,-2.862,-2.8356,-2.7922,-2.7596,-2.7176,-2.6362,-2.586,-2.5602,-2.5073,-2.4774,-2.4693,-2.4191,-2.3838,-2.3621,-2.2807,-2.2291,-2.1984,-2.1605,-2.1068,-2.056,-2.0131,-1.9836,-1.9602,-1.9011,-1.8572,-1.8236,-1.7854,-1.7601,-1.7479,-1.7379,-1.7334,-1.7278,-1.7278,-1.7278,-1.7278,-1.7278,-1.7278,-1.7278,-1.7278,-1.7278,-1.7278,-1.7278,-1.7278,-1.7278,-1.6987,-1.6637,-1.6343,-1.5975,-1.5489,-1.4795,-1.4144,-1.3484,-1.2752,-1.2124,-1.1563,-1.1184,-1.0922,-1.0769,-1.0573,-1.0522,-1.0522,-1.0522,-1.0522,-1.0522,-1.0522,-1.0522,-1.0522,-1.0522,-1.047,-1.0419,-1.0213,-1.0058,-0.9844,-0.9621,-0.9673,-0.9673,-0.9776,-0.9855,-1.0035,-1.0375,-1.0581,-1.0774,-1.0911,-1.0892,-1.064,-3.6492,-3.6492,-3.6492,-3.6492,-3.6492,-3.6492,-3.6261,-3.5953,-3.5907,-3.5922,-3.5907,-3.5922,-3.6122,-3.6461,-3.6492,-3.6492,-3.6492,-3.6492,-3.6492,-3.6445,-3.6168,-3.5126,-3.3668,-3.2318,-3.1249,-3.0312,-2.9946,-2.9449,-2.8972,-2.8844,-2.8716,-2.8532,-2.8248,-2.7963,-2.7623,-2.7081,-2.6497,-2.6226,-2.571,-2.5371,-2.5344,-2.4801,-2.4354,-2.4109,-2.3363,-2.2916,-2.2359,-2.1735,-2.1229,-2.0848,-2.0549,-2.0246,-1.9925,-1.9433,-1.8946,-1.856,-1.8182,-1.7865,-1.759,-1.7479,-1.739,-1.7334,-1.7278,-1.7278,-1.7278,-1.7278,-1.7278,-1.7278,-1.7278,-1.7278,-1.7278,-1.7278,-1.7278,-1.7278,-1.7099,-1.6931,-1.6694,-1.64,-1.6012,-1.5425,-1.4844,-1.4204,-1.3284,-1.2632,-1.1983,-1.1369,-1.1023,-1.0777,-1.0573,-1.0522,-1.0522,-1.0522,-1.0522,-1.0522,-1.0522,-1.0522,-1.0522,-1.0522,-1.047,-1.047,-1.0316,-1.011,-0.9947,-0.9784,-0.9784,-0.9821,-0.9926,-1.0119,-1.0453,-1.0731,-1.0989,-1.1146,-1.1217,-1.1122,-1.087,-3.6492,-3.6492,-3.6492,-3.6492,-3.6492,-3.6492,-3.6461,-3.6476,-3.643,-3.643,-3.643,-3.6476,-3.643,-3.6492,-3.6492,-3.6492,-3.6492,-3.6492,-3.6492,-3.6338,-3.5984,-3.5171,-3.4197,-3.3141,-3.2079,-3.1185,-3.0405,-3.0043,-2.9728,-2.9339,-2.909,-2.9029,-2.8869,-2.8424,-2.8085,-2.7746,-2.7393,-2.6891,-2.6307,-2.6009,-2.5887,-2.5412,-2.4924,-2.4544,-2.4096,-2.3336,-2.2495,-2.1844,-2.1448,-2.1238,-2.0961,-2.0586,-2.0169,-1.9836,-1.9408,-1.8934,-1.856,-1.8224,-1.781,-1.7645,-1.7479,-1.7379,-1.7334,-1.7278,-1.7278,-1.7278,-1.7278,-1.7278,-1.7278,-1.7278,-1.7278,-1.7278,-1.7278,-1.7278,-1.7278,-1.72,-1.7022,-1.6694,-1.6363,-1.614,-1.5491,-1.4739,-1.3988,-1.3259,-1.2504,-1.1991,-1.1523,-1.122,-1.0918,-1.0757,-1.0633,-1.0522,-1.0522,-1.0522,-1.0522,-1.0522,-1.0522,-1.0522,-1.0522,-1.047,-1.0375,-1.0213,-1.0051,-0.9991,-0.9895,-0.9956,-1.0121,-1.04,-1.0801,-1.1148,-1.1376,-1.1431,-1.1435,-1.1247,-1.1059,-3.6492,-3.6492,-3.6492,-3.6492,-3.6492,-3.6492,-3.6492,-3.6492,-3.6492,-3.6492,-3.6492,-3.6492,-3.6492,-3.6492,-3.6492,-3.6492,-3.6492,-3.6492,-3.6492,-3.6476,-3.6399,-3.5753,-3.4988,-3.4151,-3.3397,-3.2672,-3.2594,-3.2004,-3.1275,-3.0867,-3.0745,-3.0225,-2.972,-2.9422,-2.9032,-2.8193,-2.7678,-2.742,-2.6932,-2.6633,-2.6511,-2.6036,-2.5615,-2.5344,-2.4584,-2.354,-2.2563,-2.2183,-2.1876,-2.143,-2.1122,-2.0822,-2.0485,-2.022,-1.9862,-1.946,-1.9028,-1.8655,-1.8236,-1.7865,-1.7601,-1.749,-1.7379,-1.7278,-1.7278,-1.7278,-1.7278,-1.7278,-1.7278,-1.7278,-1.7278,-1.7278,-1.7278,-1.7278,-1.7278,-1.7278,-1.72,-1.7032,-1.6684,-1.6327,-1.5879,-1.532,-1.4639,-1.3978,-1.3283,-1.2654,-1.2172,-1.1772,-1.144,-1.1157,-1.0914,-1.0741,-1.0633,-1.0633,-1.0522,-1.0522,-1.0522,-1.0522,-1.0522,-1.0522,-1.0419,-1.0375,-1.0205,-1.0102,-1.0007,-1.0157,-1.0378,-1.077,-1.1191,-1.1447,-1.1669,-1.1736,-1.1685,-1.1435,-1.1247,-3.6754,-3.6754,-3.6754,-3.6677,-3.66,-3.66,-3.6554,-3.6492,-3.6492,-3.6492,-3.6492,-3.6492,-3.6492,-3.6492,-3.6492,-3.6492,-3.6492,-3.6492,-3.6492,-3.6492,-3.6476,-3.6214,-3.5907,-3.534,-3.4729,-3.3634,-3.327,-3.2771,-3.2263,-3.1903,-3.1476,-3.1057,-3.0577,-3.0033,-2.9629,-2.8882,-2.8438,-2.8058,-2.7542,-2.723,-2.7149,-2.6647,-2.6117,-2.5738,-2.4788,-2.3757,-2.3241,-2.2549,-2.2146,-2.1785,-2.1403,-2.1033,-2.0772,-2.0573,-2.0308,-1.9914,-1.9552,-1.9133,-1.8655,-1.8236,-1.7854,-1.7645,-1.7479,-1.7379,-1.7323,-1.7278,-1.7278,-1.7278,-1.7278,-1.7278,-1.7278,-1.7278,-1.7278,-1.7278,-1.7278,-1.7278,-1.7267,-1.7134,-1.6909,-1.6606,-1.6325,-1.5731,-1.5164,-1.4606,-1.4,-1.3386,-1.2905,-1.2499,-1.2108,-1.1747,-1.135,-1.1166,-1.0954,-1.0789,-1.0577,-1.0522,-1.0522,-1.0522,-1.0522,-1.0522,-1.047,-1.0419,-1.0368,-1.0311,-1.0322,-1.0537,-1.0809,-1.1176,-1.1461,-1.1693,-1.1865,-1.1943,-1.1934,-1.1685,-1.1498,-3.706,-3.6999,-3.6999,-3.6923,-3.6723,-3.6723,-3.66,-3.6492,-3.6492,-3.6492,-3.6492,-3.6476,-3.6554,-3.6554,-3.6616,-3.6554,-3.6554,-3.6492,-3.6492,-3.6492,-3.6492,-3.6445,-3.6368,-3.6153,-3.5599,-3.3967,-3.398,-3.3576,-3.3132,-3.2616,-3.26,-3.19,-3.1411,-3.0904,-3.0154,-2.9654,-2.9127,-2.8556,-2.8071,-2.7841,-2.7746,-2.7244,-2.6647,-2.5805,-2.5127,-2.434,-2.3879,-2.32,-2.2536,-2.2305,-2.183,-2.135,-2.1033,-2.0871,-2.0709,-2.0321,-2.0016,-1.9656,-1.9133,-1.8655,-1.8236,-1.7865,-1.7623,-1.7523,-1.749,-1.7512,-1.7501,-1.7434,-1.7379,-1.7334,-1.7334,-1.7334,-1.7334,-1.7278,-1.7278,-1.7278,-1.7278,-1.7145,-1.6976,-1.6853,-1.6666,-1.6273,-1.5848,-1.533,-1.4694,-1.4105,-1.3681,-1.3222,-1.2882,-1.2487,-1.2096,-1.1502,-1.1255,-1.0829,-1.0593,-1.0545,-1.0538,-1.0617,-1.0601,-1.0605,-1.0629,-1.0772,-1.0775,-1.0701,-1.0711,-1.0909,-1.1178,-1.1516,-1.1741,-1.1897,-1.2017,-1.2243,-1.212,-1.1872,-1.1755,-3.7254,-3.7194,-3.715,-3.7013,-3.6723,-3.6723,-3.6662,-3.6492,-3.6492,-3.6492,-3.6492,-3.6616,-3.6662,-3.6662,-3.6877,-3.68,-3.6662,-3.6554,-3.6492,-3.6492,-3.6492,-3.6492,-3.6554,-3.6554,-3.6152,-3.5904,-3.5581,-3.519,-3.4788,-3.4632,-3.3951,-3.3407,-3.2713,-3.1974,-3.0982,-3.0193,-2.9501,-2.8862,-2.8488,-2.8356,-2.822,-2.7746,-2.6986,-2.609,-2.5575,-2.5018,-2.4313,-2.392,-2.3363,-2.2441,-2.221,-2.1862,-2.1453,-2.1233,-2.101,-2.0709,-2.0422,-2.0118,-1.9643,-1.9186,-1.8762,-1.8441,-1.8081,-1.7875,-1.7975,-1.8075,-1.7954,-1.7755,-1.7579,-1.7479,-1.7468,-1.7379,-1.7334,-1.7278,-1.7278,-1.7278,-1.7278,-1.7211,-1.7155,-1.7032,-1.6899,-1.6821,-1.6392,-1.6028,-1.5614,-1.5213,-1.4902,-1.4317,-1.3782,-1.337,-1.2963,-1.2244,-1.148,-1.0995,-1.0585,-1.0577,-1.0585,-1.0753,-1.0772,-1.0923,-1.1003,-1.1217,-1.1249,-1.1138,-1.1122,-1.1273,-1.1574,-1.19,-1.2123,-1.2261,-1.2387,-1.249,-1.2305,-1.2127,-1.1987,-3.7653,-3.7653,-3.7508,-3.7254,-3.7013,-3.6937,-3.6785,-3.6538,-3.6538,-3.6538,-3.6554,-3.6677,-3.6723,-3.6723,-3.6923,-3.6862,-3.6723,-3.6662,-3.6554,-3.6492,-3.6554,-3.66,-3.6616,-3.6693,-3.6616,-3.6507,-3.6383,-3.6148,-3.5623,-3.5464,-3.5103,-3.4566,-3.3888,-3.2911,-3.1744,-3.0884,-2.9993,-2.927,-2.8844,-2.8716,-2.861,-2.808,-2.7216,-2.6579,-2.6009,-2.5426,-2.4761,-2.4232,-2.3879,-2.3323,-2.2956,-2.2495,-2.2024,-2.1745,-2.1551,-2.1113,-2.0835,-2.0536,-2.0156,-1.9695,-1.9384,-1.8922,-1.8566,-1.8417,-1.8398,-1.8379,-1.8379,-1.8073,-1.7744,-1.759,-1.7523,-1.7379,-1.7334,-1.7278,-1.7278,-1.7278,-1.7278,-1.7278,-1.7211,-1.7145,-1.7145,-1.7022,-1.6832,-1.6564,-1.6436,-1.6228,-1.5999,-1.5389,-1.4678,-1.4296,-1.3889,-1.2937,-1.2113,-1.1506,-1.1068,-1.0975,-1.0922,-1.1006,-1.1104,-1.1256,-1.1312,-1.1495,-1.1606,-1.1614,-1.1638,-1.1662,-1.1837,-1.2131,-1.2345,-1.2573,-1.2536,-1.256,-1.2436,-1.2328,-1.2181,-3.8033,-3.8042,-3.7876,-3.7508,-3.7254,-3.7194,-3.6952,-3.6677,-3.6739,-3.6739,-3.6631,-3.6739,-3.6846,-3.6846,-3.6923,-3.6968,-3.6769,-3.6769,-3.6739,-3.6677,-3.6754,-3.6785,-3.68,-3.6877,-3.6877,-3.6739,-3.6723,-3.6523,-3.6022,-3.5879,-3.5623,-3.5219,-3.4743,-3.39,-3.2645,-3.1735,-3.0698,-2.9839,-2.9099,-2.8844,-2.8593,-2.8189,-2.761,-2.7026,-2.6389,-2.5819,-2.5222,-2.4666,-2.4217,-2.3879,-2.3541,-2.3146,-2.2671,-2.2522,-2.2227,-2.1659,-2.1291,-2.0898,-2.0573,-2.0258,-1.9901,-1.954,-1.9291,-1.9081,-1.8934,-1.8881,-1.8667,-1.8321,-1.8018,-1.7755,-1.7634,-1.7479,-1.7323,-1.7278,-1.7278,-1.7278,-1.7278,-1.7278,-1.7278,-1.7278,-1.7278,-1.7211,-1.7032,-1.7022,-1.6807,-1.6673,-1.6446,-1.6114,-1.5484,-1.5283,-1.4764,-1.3686,-1.287,-1.2108,-1.1743,-1.1539,-1.1518,-1.1562,-1.1639,-1.1704,-1.1711,-1.1791,-1.186,-1.2019,-1.2075,-1.2115,-1.2242,-1.2297,-1.2509,-1.2605,-1.2621,-1.256,-1.2498,-1.2444,-1.2352,-3.8262,-3.81,-3.7918,-3.7626,-3.7254,-3.7194,-3.7089,-3.6938,-3.6938,-3.6938,-3.6845,-3.7058,-3.7071,-3.7071,-3.7071,-3.7087,-3.7074,-3.6968,-3.6938,-3.6877,-3.6938,-3.6892,-3.6892,-3.6999,-3.6796,-3.6658,-3.6736,-3.6662,-3.6213,-3.6058,-3.6006,-3.5672,-3.5305,-3.4638,-3.3642,-3.2623,-3.1482,-3.0581,-2.9589,-2.8908,-2.8638,-2.8465,-2.8112,-2.7556,-2.6959,-2.6408,-2.5755,-2.5113,-2.4569,-2.4014,-2.4001,-2.3851,-2.3603,-2.3253,-2.3133,-2.2623,-2.1955,-2.1095,-2.1004,-2.0791,-2.0563,-2.0271,-2.0029,-1.9901,-1.9695,-1.9408,-1.9198,-1.9069,-1.8548,-1.8127,-1.7854,-1.7634,-1.7479,-1.7379,-1.7323,-1.7334,-1.7278,-1.7278,-1.7278,-1.7278,-1.7278,-1.7278,-1.7211,-1.7222,-1.7211,-1.7032,-1.6842,-1.656,-1.6218,-1.5931,-1.5311,-1.4185,-1.3596,-1.2908,-1.2436,-1.2283,-1.2217,-1.2237,-1.2184,-1.2198,-1.2121,-1.2193,-1.2334,-1.2409,-1.244,-1.2417,-1.2493,-1.2533,-1.2605,-1.2621,-1.2621,-1.2621,-1.2621,-1.2583,-1.2531,-3.8003,-3.8455,-3.8091,-3.7743,-3.7508,-3.7389,-3.7225,-3.706,-3.7105,-3.681,-3.6497,-3.6585,-3.6688,-3.6762,-3.6747,-3.6892,-3.71,-3.715,-3.7044,-3.7044,-3.7074,-3.6901,-3.6648,-3.6554,-3.6519,-3.6056,-3.5931,-3.5705,-3.5732,-3.6214,-3.6523,-3.6228,-3.5897,-3.5356,-3.4592,-3.3633,-3.2489,-3.1286,-3.0037,-2.9099,-2.878,-2.8675,-2.8429,-2.783,-2.7379,-2.6777,-2.613,-2.5445,-2.4966,-2.4515,-2.4611,-2.4573,-2.4367,-2.3973,-2.3568,-2.3121,-2.269,-2.2291,-2.2121,-2.1712,-2.14,-2.104,-2.0718,-2.0396,-2.0194,-1.985,-1.9552,-1.9396,-1.8934,-1.8506,-1.817,-1.7909,-1.7645,-1.7479,-1.7423,-1.7367,-1.7378,-1.7289,-1.7278,-1.7278,-1.73,-1.7355,-1.7355,-1.7289,-1.7289,-1.7211,-1.7088,-1.692,-1.657,-1.6218,-1.5462,-1.4487,-1.4101,-1.3736,-1.3316,-1.3046,-1.3009,-1.2939,-1.2696,-1.2734,-1.2587,-1.2631,-1.2658,-1.2621,-1.2581,-1.2589,-1.2621,-1.2621,-1.2621,-1.2621,-1.2621,-1.2621,-1.2645,-1.2806,-1.2877,-3.7329,-3.8417,-3.8067,-3.7817,-3.77,-3.7524,-3.7235,-3.6854,-3.6927,-3.6535,-3.599,-3.5938,-3.6132,-3.6364,-3.6458,-3.679,-3.7254,-3.7254,-3.7225,-3.7134,-3.699,-3.6719,-3.6389,-3.6269,-3.5786,-3.5162,-3.5398,-3.531,-3.5519,-3.5888,-3.6391,-3.6506,-3.6045,-3.5783,-3.5305,-3.449,-3.341,-3.1602,-3.0244,-2.9415,-2.9099,-2.9035,-2.8774,-2.8278,-2.7704,-2.7069,-2.6483,-2.56,-2.5104,-2.4964,-2.4951,-2.4927,-2.4833,-2.4545,-2.4204,-2.3852,-2.3635,-2.3568,-2.3258,-2.2842,-2.2268,-2.1779,-2.1255,-2.0759,-2.0536,-2.0169,-1.985,-1.9708,-1.9303,-1.8881,-1.8494,-1.8236,-1.8018,-1.7799,-1.7634,-1.7545,-1.7544,-1.7632,-1.7739,-1.7846,-1.7802,-1.7562,-1.7518,-1.7355,-1.73,-1.7289,-1.7278,-1.7222,-1.6864,-1.6457,-1.5904,-1.5057,-1.4839,-1.4582,-1.4392,-1.4066,-1.3965,-1.3672,-1.3416,-1.3216,-1.3114,-1.2931,-1.285,-1.2805,-1.2683,-1.2621,-1.2621,-1.2621,-1.2621,-1.2621,-1.2621,-1.2621,-1.2701,-1.2885,-1.3124,-3.6108,-3.7622,-3.7769,-3.777,-3.7669,-3.7524,-3.7085,-3.64,-3.6443,-3.6048,-3.5449,-3.5442,-3.5654,-3.6169,-3.6232,-3.6595,-3.7385,-3.7464,-3.7231,-3.7026,-3.6832,-3.6348,-3.6001,-3.5679,-3.5363,-3.5221,-3.5007,-3.5054,-3.5244,-3.5124,-3.5655,-3.5923,-3.5947,-3.6075,-3.5861,-3.5124,-3.3647,-3.1968,-3.0614,-2.9898,-2.9651,-2.9526,-2.947,-2.9204,-2.8242,-2.7384,-2.7183,-2.6018,-2.516,-2.5048,-2.5061,-2.5061,-2.5065,-2.4954,-2.4735,-2.4625,-2.4584,-2.4571,-2.4326,-2.3649,-2.2877,-2.2245,-2.1605,-2.1033,-2.0861,-2.0686,-2.0372,-2.0016,-1.9708,-1.9457,-1.9076,-1.8732,-1.8689,-1.8525,-1.8485,-1.8351,-1.8305,-1.8222,-1.8342,-1.8441,-1.8316,-1.809,-1.7802,-1.7671,-1.7355,-1.7322,-1.7278,-1.7222,-1.6931,-1.6581,-1.6353,-1.5898,-1.5631,-1.5525,-1.5477,-1.5157,-1.4641,-1.4337,-1.4103,-1.3881,-1.3692,-1.3459,-1.3094,-1.2867,-1.2744,-1.2683,-1.2621,-1.2621,-1.2621,-1.2621,-1.2637,-1.2693,-1.2813,-1.2973,-1.3155,-3.5177,-3.5884,-3.6262,-3.6781,-3.7179,-3.6933,-3.6437,-3.5853,-3.5774,-3.5379,-3.4699,-3.4352,-3.4478,-3.4984,-3.5157,-3.5521,-3.6121,-3.62,-3.6248,-3.6153,-3.59,-3.5537,-3.5189,-3.4873,-3.4525,-3.4257,-3.4146,-3.4099,-3.4051,-3.432,-3.4865,-3.5279,-3.5806,-3.6404,-3.6318,-3.5308,-3.3728,-3.2482,-3.1158,-3.0433,-3.0237,-3.0176,-3.0115,-2.9922,-2.9015,-2.8197,-2.7581,-2.6456,-2.5633,-2.5217,-2.5216,-2.53,-2.5313,-2.5313,-2.5244,-2.5118,-2.5118,-2.5061,-2.491,-2.4191,-2.3377,-2.2349,-2.1641,-2.1171,-2.1179,-2.0924,-2.0723,-2.0459,-2.0284,-2.0128,-2.0207,-2.0044,-1.9873,-1.9706,-1.9488,-1.9275,-1.9171,-1.91,-1.9022,-1.9171,-1.8928,-1.8625,-1.8287,-1.8021,-1.766,-1.7344,-1.7311,-1.7166,-1.6874,-1.6705,-1.6467,-1.6239,-1.6019,-1.5904,-1.5856,-1.5556,-1.5254,-1.501,-1.4715,-1.4419,-1.4121,-1.3631,-1.3329,-1.3103,-1.2867,-1.2744,-1.2683,-1.2621,-1.2621,-1.2621,-1.2709,-1.2821,-1.2909,-1.3068,-1.3322,-3.4484,-3.4814,-3.5131,-3.5752,-3.6414,-3.6235,-3.571,-3.5142,-3.5063,-3.4668,-3.3972,-3.3514,-3.3672,-3.4146,-3.4352,-3.4762,-3.5363,-3.5505,-3.5458,-3.5363,-3.5189,-3.4762,-3.4383,-3.4051,-3.3814,-3.3356,-3.3293,-3.3372,-3.3451,-3.353,-3.4399,-3.5259,-3.577,-3.6263,-3.6275,-3.5081,-3.3686,-3.2775,-3.1869,-3.1131,-3.0925,-3.094,-3.0881,-3.0587,-2.9591,-2.8808,-2.8024,-2.6916,-2.5865,-2.5494,-2.5425,-2.5661,-2.5675,-2.5619,-2.5481,-2.5355,-2.523,-2.5118,-2.4856,-2.4326,-2.3676,-2.2999,-2.2194,-2.181,-2.1626,-2.1526,-2.1597,-2.1391,-2.1224,-2.1147,-2.1375,-2.1174,-2.1008,-2.0798,-2.0511,-2.0301,-2.0194,-2.0122,-1.9912,-1.9839,-1.9526,-1.9199,-1.8901,-1.8528,-1.7912,-1.754,-1.73,-1.7166,-1.6874,-1.6705,-1.6591,-1.642,-1.6192,-1.6134,-1.6019,-1.5876,-1.5722,-1.5536,-1.5245,-1.4893,-1.4529,-1.4043,-1.3563,-1.3268,-1.3103,-1.2867,-1.2744,-1.2621,-1.2621,-1.2621,-1.2725,-1.2829,-1.2981,-1.3171,-1.36,-3.4037,-3.4734,-3.4606,-3.4911,-3.5538,-3.545,-3.4999,-3.4367,-3.4304,-3.3988,-3.3467,-3.3309,-3.3609,-3.4099,-3.413,-3.4478,-3.492,-3.5126,-3.5142,-3.4952,-3.4541,-3.4288,-3.4051,-3.3719,-3.3467,-3.334,-3.3293,-3.3293,-3.3309,-3.3688,-3.4494,-3.5142,-3.5512,-3.566,-3.6032,-3.4571,-3.3645,-3.329,-3.2451,-3.1996,-3.1807,-3.1751,-3.1694,-3.1252,-3.0152,-2.9262,-2.8583,-2.7295,-2.6215,-2.5737,-2.5809,-2.6059,-2.6266,-2.5895,-2.5688,-2.5536,-2.5286,-2.5174,-2.4964,-2.4243,-2.3919,-2.3717,-2.2881,-2.256,-2.2775,-2.2842,-2.2655,-2.2246,-2.23,-2.2326,-2.2363,-2.2281,-2.206,-2.2005,-2.1732,-2.149,-2.1389,-2.1056,-2.0895,-2.0534,-2.0172,-1.9789,-1.951,-1.9039,-1.832,-1.7781,-1.742,-1.721,-1.7045,-1.7084,-1.7122,-1.6958,-1.6815,-1.6815,-1.6777,-1.6386,-1.6189,-1.606,-1.5818,-1.5459,-1.5058,-1.4647,-1.4172,-1.3631,-1.3277,-1.305,-1.2805,-1.2621,-1.2621,-1.2629,-1.2701,-1.2821,-1.2989,-1.3322,-1.3791,-3.3541,-3.38,-3.3763,-3.3836,-3.4105,-3.4548,-3.4257,-3.3704,-3.3625,-3.3498,-3.334,-3.3293,-3.3372,-3.3593,-3.3688,-3.3846,-3.4004,-3.4004,-3.4004,-3.4004,-3.3783,-3.3672,-3.3546,-3.3482,-3.3293,-3.3293,-3.3293,-3.3293,-3.3309,-3.3767,-3.4446,-3.5078,-3.53,-3.5221,-3.4904,-3.4109,-3.3763,-3.3216,-3.2726,-3.2437,-3.2382,-3.2367,-3.2241,-3.1987,-3.0669,-2.975,-2.9129,-2.7665,-2.6759,-2.6165,-2.6293,-2.6543,-2.6697,-2.6383,-2.6002,-2.5798,-2.5522,-2.5244,-2.5061,-2.4664,-2.442,-2.4041,-2.3555,-2.3124,-2.3136,-2.3122,-2.3056,-2.3071,-2.3111,-2.3138,-2.327,-2.335,-2.3276,-2.3472,-2.3244,-2.2862,-2.2611,-2.2141,-2.1773,-2.1214,-2.0768,-2.008,-1.964,-1.9533,-1.8873,-1.8567,-1.8283,-1.8071,-1.7889,-1.7965,-1.7991,-1.785,-1.773,-1.7677,-1.7532,-1.7155,-1.694,-1.6829,-1.6512,-1.6157,-1.5713,-1.53,-1.4662,-1.4038,-1.3631,-1.3233,-1.2989,-1.2805,-1.2683,-1.2645,-1.2757,-1.2956,-1.3179,-1.3576,-1.4053,-3.3293,-3.3293,-3.3293,-3.3293,-3.3372,-3.3767,-3.3688,-3.334,-3.3293,-3.3293,-3.3293,-3.3293,-3.3309,-3.3309,-3.3293,-3.3293,-3.3293,-3.3309,-3.3324,-3.3293,-3.3309,-3.3356,-3.334,-3.3293,-3.3293,-3.3293,-3.3293,-3.3309,-3.3372,-3.383,-3.4557,-3.5157,-3.5126,-3.4589,-3.4123,-3.3754,-3.359,-3.3206,-3.2958,-3.2834,-3.2834,-3.2803,-3.2586,-3.1921,-3.0975,-3.0103,-2.9244,-2.8256,-2.7312,-2.6946,-2.6886,-2.707,-2.7076,-2.6837,-2.6365,-2.6111,-2.5743,-2.5411,-2.5174,-2.5048,-2.4789,-2.4503,-2.4028,-2.3879,-2.3798,-2.392,-2.3906,-2.3879,-2.3744,-2.3892,-2.4134,-2.4229,-2.4265,-2.4381,-2.415,-2.3741,-2.3399,-2.2967,-2.2433,-2.1889,-2.1227,-2.0493,-1.9852,-1.9766,-1.9517,-1.9353,-1.92,-1.8913,-1.8657,-1.8657,-1.8606,-1.8441,-1.8304,-1.8137,-1.8012,-1.7899,-1.7751,-1.7634,-1.7311,-1.6929,-1.6618,-1.6235,-1.5336,-1.4526,-1.4249,-1.3847,-1.3266,-1.2981,-1.2805,-1.2795,-1.2908,-1.3148,-1.3378,-1.3711,-1.4077,-3.3293,-3.3293,-3.3293,-3.3293,-3.3309,-3.3372,-3.3324,-3.3293,-3.3293,-3.3293,-3.3293,-3.3293,-3.3293,-3.3293,-3.3293,-3.3293,-3.3293,-3.3293,-3.3293,-3.3293,-3.3293,-3.3293,-3.3293,-3.3293,-3.3293,-3.3293,-3.3293,-3.3324,-3.3451,-3.4209,-3.4936,-3.5031,-3.4636,-3.4099,-3.3672,-3.3451,-3.335,-3.3272,-3.3187,-3.3118,-3.3134,-3.3045,-3.2535,-3.1815,-3.0897,-3.0063,-2.922,-2.8299,-2.7836,-2.7565,-2.7444,-2.7533,-2.7409,-2.707,-2.6765,-2.6418,-2.5988,-2.5619,-2.5342,-2.5286,-2.5118,-2.4912,-2.4856,-2.4937,-2.4842,-2.4666,-2.4611,-2.4639,-2.4611,-2.4761,-2.4867,-2.484,-2.484,-2.4708,-2.458,-2.4305,-2.3969,-2.3556,-2.303,-2.2408,-2.1651,-2.098,-2.0267,-1.9987,-1.9953,-1.9791,-1.9595,-1.9443,-1.9195,-1.896,-1.896,-1.8781,-1.8633,-1.8454,-1.8454,-1.8603,-1.8516,-1.8398,-1.8099,-1.7791,-1.7472,-1.6918,-1.595,-1.5252,-1.493,-1.44,-1.3561,-1.3094,-1.2858,-1.2881,-1.2947,-1.306,-1.3203,-1.3481,-1.3815,-3.3293,-3.3293,-3.3293,-3.3293,-3.3293,-3.3293,-3.3293,-3.3293,-3.3293,-3.3293,-3.3293,-3.3293,-3.3277,-3.3293,-3.3293,-3.3293,-3.3277,-3.3293,-3.3293,-3.3293,-3.3293,-3.3293,-3.3293,-3.3293,-3.3293,-3.3293,-3.3293,-3.3309,-3.3467,-3.4304,-3.4304,-3.3893,-3.4162,-3.3799,-3.3514,-3.3293,-3.3293,-3.3309,-3.3309,-3.314,-3.2982,-3.2783,-3.2212,-3.1457,-3.055,-2.9794,-2.9077,-2.8458,-2.8069,-2.789,-2.784,-2.7821,-2.753,-2.7306,-2.7063,-2.6525,-2.615,-2.5893,-2.5674,-2.5536,-2.5369,-2.5174,-2.5118,-2.5005,-2.5005,-2.5005,-2.5005,-2.5005,-2.5005,-2.5005,-2.5005,-2.5005,-2.4948,-2.4892,-2.4765,-2.4549,-2.4274,-2.391,-2.3318,-2.2592,-2.1901,-2.121,-2.0582,-2.0313,-2.0235,-2.0183,-2.0009,-1.9835,-1.964,-1.9456,-1.9369,-1.9199,-1.921,-1.9145,-1.9392,-1.9554,-1.9316,-1.9122,-1.8869,-1.8469,-1.7999,-1.7317,-1.6483,-1.576,-1.5191,-1.445,-1.3623,-1.3277,-1.3042,-1.2805,-1.2795,-1.2908,-1.3044,-1.3306,-1.3568,-3.3056,-3.3293,-3.3293,-3.3293,-3.3293,-3.3293,-3.3293,-3.3293,-3.3293,-3.3293,-3.3293,-3.3293,-3.3151,-3.2945,-3.3119,-3.3166,-3.2882,-3.3182,-3.3293,-3.3293,-3.3293,-3.3293,-3.3293,-3.3293,-3.3293,-3.3293,-3.3293,-3.3309,-3.3419,-3.3609,-3.3704,-3.3878,-3.3988,-3.364,-3.3403,-3.3293,-3.3293,-3.3309,-3.3224,-3.2977,-3.2594,-3.2217,-3.1649,-3.0876,-2.9974,-2.9515,-2.8962,-2.8422,-2.8247,-2.8152,-2.8118,-2.8054,-2.7845,-2.774,-2.7423,-2.6945,-2.6736,-2.6418,-2.615,-2.5907,-2.5605,-2.53,-2.5203,-2.5118,-2.5048,-2.4991,-2.5005,-2.5005,-2.5005,-2.5005,-2.5005,-2.5005,-2.5005,-2.5005,-2.4892,-2.4765,-2.4478,-2.4131,-2.3471,-2.2689,-2.2013,-2.1388,-2.0892,-2.0646,-2.0464,-2.027,-2.0151,-2.0031,-1.9955,-1.9889,-1.9835,-1.9749,-1.9825,-1.9922,-2.0085,-2.0085,-1.9857,-1.9597,-1.9479,-1.9094,-1.8501,-1.7947,-1.7235,-1.6233,-1.5185,-1.4538,-1.3992,-1.358,-1.3346,-1.3111,-1.2867,-1.2865,-1.2995,-1.3156,-1.3354,-3.2582,-3.3214,-3.3261,-3.3245,-3.3214,-3.3166,-3.3135,-3.3151,-3.3008,-3.3166,-3.3135,-3.3119,-3.2661,-3.2329,-3.2598,-3.2566,-3.2503,-3.2756,-3.304,-3.323,-3.3293,-3.3293,-3.3293,-3.3293,-3.3293,-3.3293,-3.3293,-3.3293,-3.3293,-3.3435,-3.3704,-3.4146,-3.3672,-3.3277,-3.3087,-3.3056,-3.2945,-3.262,-3.2599,-3.2416,-3.1982,-3.1602,-3.1052,-2.9956,-2.9521,-2.9239,-2.8645,-2.8396,-2.8411,-2.8348,-2.8348,-2.833,-2.8281,-2.8168,-2.779,-2.7575,-2.7372,-2.7034,-2.6721,-2.6365,-2.5807,-2.5521,-2.5329,-2.5356,-2.5314,-2.5104,-2.5061,-2.5005,-2.5005,-2.5005,-2.5005,-2.5005,-2.5005,-2.5005,-2.4948,-2.4835,-2.4664,-2.4247,-2.3708,-2.298,-2.2372,-2.1753,-2.1198,-2.0955,-2.0658,-2.0464,-2.0335,-2.0281,-2.0151,-2.0151,-2.0151,-2.0151,-2.0085,-2.0085,-2.0085,-2.0085,-2.0085,-2.002,-1.9868,-1.976,-1.919,-1.8649,-1.8041,-1.6839,-1.5663,-1.5134,-1.4656,-1.4172,-1.3692,-1.3467,-1.3224,-1.2928,-1.2951,-1.3027,-1.3172,-3.1887,-3.255,-3.3072,-3.3008,-3.2534,-3.2519,-3.2203,-3.1729,-3.1713,-3.2029,-3.2361,-3.1997,-3.1681,-3.1571,-3.1744,-3.1697,-3.1697,-3.2282,-3.2471,-3.2787,-3.3024,-3.3293,-3.3293,-3.3293,-3.3293,-3.3293,-3.3293,-3.3293,-3.3293,-3.3324,-3.334,-3.3498,-3.323,-3.3024,-3.2534,-3.2519,-3.2293,-3.1927,-3.1687,-3.1773,-3.167,-3.0911,-3.0192,-2.9606,-2.929,-2.9012,-2.8621,-2.8541,-2.8494,-2.8415,-2.851,-2.8525,-2.8556,-2.8396,-2.8299,-2.8152,-2.7925,-2.7645,-2.7291,-2.6916,-2.6395,-2.6019,-2.5847,-2.5837,-2.566,-2.5342,-2.5174,-2.5061,-2.5005,-2.5005,-2.5005,-2.5005,-2.5005,-2.5005,-2.5005,-2.4892,-2.4848,-2.4363,-2.3884,-2.3339,-2.2786,-2.2237,-2.1628,-2.1198,-2.0967,-2.0786,-2.0669,-2.054,-2.041,-2.0346,-2.0281,-2.0216,-2.0151,-2.0085,-2.0085,-2.0085,-2.0085,-2.0085,-1.9977,-1.9922,-1.9781,-1.8956,-1.805,-1.7183,-1.6236,-1.5674,-1.5118,-1.4519,-1.4103,-1.3872,-1.3519,-1.3224,-1.292,-1.2959,-1.3003,-3.116,-3.1823,-3.2203,-3.2171,-3.1839,-3.1792,-3.1571,-3.1223,-3.0907,-3.097,-3.1383,-3.1223,-3.1049,-3.0923,-3.1049,-3.0923,-3.1002,-3.1905,-3.2269,-3.2503,-3.2787,-3.3214,-3.3293,-3.3261,-3.3293,-3.3293,-3.3293,-3.3293,-3.3198,-3.3261,-3.3245,-3.2929,-3.2803,-3.2519,-3.1902,-3.176,-3.1552,-3.1171,-3.0775,-3.082,-3.1095,-3.0378,-2.972,-2.9325,-2.9028,-2.8763,-2.8779,-2.8684,-2.859,-2.8574,-2.8668,-2.87,-2.87,-2.8668,-2.8621,-2.8541,-2.8381,-2.8155,-2.786,-2.7479,-2.7049,-2.6709,-2.65,-2.6496,-2.6315,-2.599,-2.5495,-2.5384,-2.516,-2.5104,-2.5005,-2.5005,-2.5005,-2.5005,-2.5005,-2.4948,-2.4791,-2.4549,-2.4144,-2.3675,-2.3125,-2.2628,-2.2075,-2.1451,-2.121,-2.0967,-2.085,-2.0733,-2.0604,-2.0529,-2.0464,-2.0346,-2.0281,-2.0151,-2.0085,-2.0085,-2.0085,-2.0085,-2.0009,-1.9836,-1.9598,-1.8805,-1.8012,-1.7357,-1.6726,-1.61,-1.5517,-1.504,-1.4638,-1.435,-1.3932,-1.3519,-1.3216,-1.2928,-1.2959,-3.0449,-3.1049,-3.1207,-3.1176,-3.1081,-3.1081,-3.1002,-3.0812,-3.0306,-3.0054,-3.0148,-3.0654,-3.0528,-3.0464,-3.0591,-3.0385,-3.0528,-3.1241,-3.1713,-3.2029,-3.2566,-3.2787,-3.2961,-3.3103,-3.304,-3.304,-3.304,-3.2929,-3.2771,-3.274,-3.2503,-3.2203,-3.1997,-3.1792,-3.1302,-3.1065,-3.0939,-3.0574,-3.0274,-3.0005,-2.9893,-2.9781,-2.9357,-2.9029,-2.8842,-2.8842,-2.8842,-2.8779,-2.8732,-2.8748,-2.8811,-2.8889,-2.8889,-2.8858,-2.8858,-2.8811,-2.8716,-2.851,-2.8268,-2.8024,-2.768,-2.7464,-2.7327,-2.71,-2.6913,-2.6582,-2.6096,-2.5715,-2.5495,-2.5216,-2.5118,-2.5005,-2.5005,-2.5005,-2.5005,-2.4948,-2.4848,-2.4677,-2.4332,-2.3995,-2.3509,-2.2944,-2.2457,-2.1839,-2.1463,-2.1221,-2.1031,-2.085,-2.0733,-2.0722,-2.0658,-2.054,-2.041,-2.0346,-2.0216,-2.0151,-2.0216,-2.0085,-2.0042,-1.9759,-1.9432,-1.8841,-1.8315,-1.7782,-1.7164,-1.655,-1.6171,-1.5758,-1.5352,-1.4883,-1.441,-1.3932,-1.3519,-1.3233,-1.3038,-2.9738,-3.0433,-3.097,-3.0891,-3.0417,-3.037,-3.0054,-2.9517,-2.9437,-2.9327,-2.9422,-2.9406,-2.939,-2.9327,-2.9422,-2.9453,-2.9738,-3.0449,-3.0559,-3.0686,-3.1586,-3.2045,-3.2329,-3.2471,-3.2471,-3.2471,-3.2408,-3.2155,-3.2108,-3.1855,-3.1602,-3.1428,-3.1413,-3.1081,-3.0512,-3.0322,-3.0164,-2.988,-2.9674,-2.9422,-2.9375,-2.925,-2.9155,-2.9014,-2.8982,-2.892,-2.892,-2.8873,-2.8858,-2.8858,-2.8936,-2.8998,-2.906,-2.9045,-2.8998,-2.8982,-2.8936,-2.8779,-2.8542,-2.8462,-2.8189,-2.8122,-2.7974,-2.7825,-2.7554,-2.7269,-2.6759,-2.6297,-2.5974,-2.5495,-2.5328,-2.5244,-2.5188,-2.5061,-2.5005,-2.5005,-2.4892,-2.4791,-2.462,-2.4157,-2.3747,-2.3258,-2.2775,-2.2161,-2.16,-2.1411,-2.1296,-2.1106,-2.099,-2.0914,-2.085,-2.0786,-2.0669,-2.0475,-2.041,-2.0346,-2.0346,-2.0216,-2.0063,-1.9768,-1.9482,-1.9004,-1.8474,-1.7947,-1.7478,-1.6896,-1.657,-1.6275,-1.5874,-1.5342,-1.4883,-1.441,-1.3932,-1.3528,-1.3275]},{"header":{"parameterUnit":"m.s-1","parameterCategory":1,"la1":31.0,"la2":29.5877,"lo1":-88.7671,"lo2":-86.6584,"dy":0.0162,"dx":0.0185,"nx":115,"ny":88,"refTime":"2023-10-21T06:00:00:Z","depth":0,"parameterNumber":3,"parameterNumberName":"V-component_of_WINDS"},"data":[0.0,0.0,0.0,0.0,0.0,0.0,0.0,0.0,0.0,0.0,0.0,0.0,0.0,0.0,0.0,0.0,0.0,0.0,0.0,0.0,0.0,0.0,0.0,0.0,0.0,0.0,0.0,0.0,0.0,0.0,0.0,0.0,0.0,0.0,0.0,0.0,0.0,0.0,0.0,0.0,0.0,0.0,0.0,0.0,0.0,0.0,0.0,0.0,0.0,0.0,0.0,0.0,0.0,0.0,0.0,0.0,0.0,0.0,0.0,0.0,0.0,0.0,0.0,0.0,0.0,0.0,0.0,0.0,0.0,0.0,0.0,0.0,0.0,0.0,0.0,0.0,0.0,0.0,0.0,0.0,0.0,0.0,0.0,0.0,0.0,0.0,0.0,0.0,0.0,0.0,0.0,0.0,0.0,0.0,0.0,0.0,0.0,0.0,0.0,0.0,0.0,0.0,0.0,0.0,0.0,0.0,0.0,0.0,0.0,0.0,0.0,0.0,0.0,0.0,0.0,0.0,0.0,0.0,0.0,0.0,0.0,0.0,0.0,0.0,0.0,0.0,0.0,0.0,0.0,0.0,0.0,0.0,0.0,0.0,0.0,0.0,0.0,0.0,0.0,0.0,0.0,0.0,0.0,0.0,0.0,0.0,0.0,0.0,0.0,0.0,0.0,0.0,0.0,0.0,0.0,0.0,0.0,0.0,0.0,0.0,0.0,0.0,0.0,0.0,0.0,0.0,0.0,0.0,0.0,0.0,0.0,0.0,0.0,0.0,0.0,0.0,0.0,0.0,0.0,0.0,0.0,0.0,0.0,0.0,0.0,0.0,0.0,0.0,0.0,0.0,0.0,0.0,0.0,0.0,0.0,0.0,0.0,0.0,0.0,0.0,0.0,0.0,0.0,0.0,0.0,0.0,0.0,0.0,0.0,0.0,0.0,0.0,0.0,0.0,0.0,0.0,0.0,0.0,0.0,0.0,0.0,0.0,0.0,0.0,0.0,0.0,0.0,0.0,0.0,0.0,0.0,0.0,0.0,0.0,0.0,0.0,0.0,0.0,0.0,0.0,0.0,0.0,0.0,0.0,0.0,0.0,0.0,0.0,0.0,0.0,0.0,0.0,0.0,0.0,0.0,0.0,0.0,0.0,0.0,0.0,0.0,0.0,0.0,0.0,0.0,0.0,0.0,0.0,0.0,0.0,0.0,0.0,0.0,0.0,0.0,0.0,0.0,0.0,0.0,0.0,0.0,0.0,0.0,0.0,0.0,0.0,0.0,0.0,0.0,0.0,0.0,0.0,0.0,0.0,0.0,0.0,0.0,0.0,0.0,0.0,0.0,0.0,0.0,0.0,0.0,0.0,0.0,0.0,0.0,0.0,0.0,0.0,0.0,0.0,0.0,0.0,0.0,0.0,0.0,0.0,0.0,0.0,0.0,0.0,0.0,0.0,0.0,0.0,0.0,0.0,0.0,0.0,0.0,0.0,0.0,0.0,0.0,0.0,0.0,0.0,0.0,0.0,0.0,0.0,0.0,0.0,0.0,0.0,0.0,0.0,0.0,0.0,0.0,0.0,0.0,0.0,0.0,0.0,0.0,0.0,0.0,0.0,0.0,0.0,0.0,0.0,0.0,0.0,0.0,0.0,0.0,0.0,0.0,0.0,0.0,0.0,0.0,0.0,0.0,0.0,0.0,0.0,0.0,0.0,0.0,0.0,0.0,0.0,0.0,0.0,0.0,0.0,0.0,0.0,0.0,0.0,0.0,0.0,0.0,0.0,0.0,0.0,0.0,0.0,0.0,0.0,0.0,0.0,0.0,0.0,0.0,0.0,0.0,0.0,0.0,0.0,0.0,0.0,0.0,0.0,0.0,0.0,0.0,0.0,0.0,0.0,0.0,0.0,0.0,0.0,0.0,0.0,0.0,0.0,0.0,0.0,0.0,0.0,0.0,0.0,0.0,0.0,0.0,0.0,0.0,0.0,0.0,0.0,0.0,0.0,0.0,0.0,0.0,0.0,0.0,0.0,0.0,0.0,0.0,0.0,0.0,0.0,0.0,0.0,0.0,0.0,0.0,0.0,0.0,0.0,0.0,0.0,0.0,0.0,0.0,0.0,0.0,0.0,0.0,0.0,0.0,0.0,0.0,0.0,0.0,0.0,0.0,0.0,0.0,0.0,0.0,0.0,0.0,0.0,0.0,0.0,0.0,0.0,0.0,0.0,0.0,0.0,0.0,0.0,0.0,0.0,0.0,0.0,0.0,0.0,0.0,0.0,0.0,0.0,0.0,0.0,0.0,0.0,0.0,0.0,0.0,0.0,0.0,0.0,0.0,0.0,0.0,0.0,0.0,0.0,0.0,0.0,0.0,0.0,0.0,0.0,0.0,0.0,0.0,0.0,0.0,0.0,0.0,0.0,0.0,0.0,0.0,0.0,0.0,0.0,0.0,0.0,0.0,0.0,0.0,0.0,0.0,0.0,0.0,0.0,0.0,0.0,0.0,0.0,0.0,0.0,0.0,0.0,0.0,0.0,0.0,0.0,0.0,0.0,0.0,0.0,0.0,0.0,0.0,0.0,0.0,0.0,0.0,0.0,0.0,0.0,0.0,0.0,0.0,0.0,0.0,0.0,0.0,0.0,0.0,0.0,0.0,0.0,0.0,0.0,0.0,0.0,0.0,0.0,0.0,0.0,0.0,0.0,0.0,0.0,0.0,0.0,0.0,0.0,0.0,0.0,0.0,0.0,0.0,0.0,0.0,0.0,0.0,0.0,0.0,0.0,0.0,0.0,0.0,0.0,0.0,0.0,0.0,0.0,0.0,0.0,0.0,0.0,0.0,0.0,0.0,0.0,0.0,0.0,0.0,0.0,0.0,0.0,0.0,0.0,0.0,0.0,0.0,0.0,0.0,0.0,0.0,0.0,0.0,0.0,0.0,0.0,0.0,0.0,0.0,0.0,0.0,0.0,0.0,0.0,0.0,0.0,0.0,0.0,0.0,0.0,0.0,0.0,0.0,0.0,0.0,0.0,0.0,0.0,0.0,0.0,0.0,0.0,0.0,0.0,0.0,0.0,0.0,0.0,0.0,0.0,0.0,0.0,0.0,0.0,0.0,0.0,0.0,0.0,0.0,0.0,0.0,0.0,0.0,0.0,0.0,0.0,0.0,0.0,0.0,0.0,0.0,0.0,0.0,0.0,0.0,0.0,0.0,0.0,0.0,0.0,0.0,0.0,0.0,0.0,0.0,0.0,0.0,0.0,0.0,0.0,0.0,0.0,0.0,0.0,0.0,0.0,0.0,0.0,0.0,0.0,0.0,0.0,0.0,0.0,0.0,0.0,0.0,0.0,0.0,0.0,0.0,0.0,0.0,0.0,0.0,0.0,0.0,0.0,0.0,0.0,0.0,0.0,0.0,0.0,0.0,0.0,0.0,0.0,0.0,0.0,0.0,0.0,0.0,0.0,0.0,0.0,0.0,0.0,0.0,0.0,0.0,0.0,0.0,0.0,0.0,0.0,0.0,0.0,0.0,0.0,0.0,0.0,0.0,0.0,0.0,0.0,0.0,0.0,0.0,0.0,0.0,0.0,0.0,0.0,0.0,0.0,0.0,0.0,0.0,0.0,0.0,0.0,0.0,0.0,0.0,0.0,0.0,0.0,0.0,0.0,0.0,0.0,0.0,0.0,0.0,0.0,0.0,0.0,0.0,0.0,0.0,0.0,0.0,0.0,0.0,0.0,0.0,0.0,0.0,0.0,0.0,0.0,0.0,0.0,0.0,0.0,0.0,0.0,0.0,0.0,0.0,0.0,0.0,0.0,0.0,0.0,0.0,0.0,0.0,0.0,0.0,0.0,0.0,0.0,0.0,0.0,0.0,0.0,0.0,0.0,0.0,0.0,0.0,0.0,0.0,0.0,0.0,0.0,0.0,0.0,0.0,0.0,0.0,0.0,0.0,0.0,0.0,0.0,0.0,0.0,0.0,0.0,0.0,0.0,0.0,0.0,0.0,0.0,0.0,0.0,0.0,0.0,0.0,0.0,0.0,0.0,0.0,0.0,0.0,0.0,0.0,0.0,0.0,0.0,0.0,0.0,0.0,0.0,0.0,0.0,0.0,0.0,0.0,0.0,0.0,0.0,0.0,0.0,0.0,0.0,0.0,0.0,0.0,0.0,0.0,0.0,0.0,0.0,0.0,0.0,0.0,0.0,0.0,0.0,0.0,0.0,0.0,0.0,0.0,0.0,0.0,0.0,0.0,0.0,0.0,0.0,0.0,0.0,0.0,0.0,-0.6891,0.0,0.0,0.0,0.0,0.0,0.0,0.0,0.0,0.0,0.0,0.0,0.0,0.0,0.0,0.0,0.0,0.0,0.0,0.0,0.0,0.0,0.0,0.0,0.0,0.0,0.0,0.0,0.0,0.0,0.0,0.0,0.0,0.0,0.0,0.0,0.0,0.0,0.0,0.0,0.0,0.0,0.0,0.0,0.0,0.0,0.0,0.0,0.0,0.0,0.0,0.0,0.0,0.0,0.0,0.0,0.0,0.0,0.0,0.0,0.0,0.0,0.0,0.0,0.0,0.0,0.0,0.0,0.0,0.0,0.0,0.0,0.0,0.0,0.0,0.0,0.0,0.0,0.0,0.0,0.0,0.0,0.0,0.0,0.0,0.0,0.0,0.0,0.0,0.0,0.0,0.0,0.0,0.0,0.0,0.0,0.0,0.0,0.0,0.0,0.0,0.0,0.0,0.0,0.0,0.0,0.0,0.0,0.0,0.0,0.0,-0.7955,-0.748,-0.731,-0.7169,-0.7134,0.0,0.0,0.0,0.0,0.0,0.0,0.0,0.0,0.0,0.0,0.0,0.0,0.0,0.0,0.0,0.0,0.0,0.0,0.0,0.0,0.0,0.0,0.0,0.0,0.0,0.0,0.0,0.0,0.0,0.0,0.0,0.0,0.0,0.0,0.0,0.0,0.0,0.0,0.0,0.0,0.0,0.0,0.0,0.0,0.0,0.0,0.0,0.0,0.0,0.0,0.0,0.0,0.0,0.0,0.0,0.0,0.0,0.0,0.0,0.0,0.0,0.0,0.0,0.0,0.0,0.0,0.0,0.0,0.0,0.0,0.0,0.0,0.0,0.0,0.0,0.0,0.0,0.0,0.0,0.0,0.0,0.0,0.0,0.0,0.0,0.0,0.0,0.0,0.0,0.0,0.0,0.0,0.0,0.0,0.0,0.0,0.0,0.0,0.0,0.0,0.0,0.0,0.0,0.0,0.0,0.0,0.0,0.0,0.0,0.0,0.0,0.0,-0.7437,-0.7326,-0.7292,0.0,0.0,0.0,0.0,0.0,0.0,0.0,0.0,0.0,0.0,0.0,0.0,0.0,0.0,0.0,0.0,0.0,0.0,0.0,0.0,0.0,0.0,0.0,0.0,0.0,0.0,0.0,0.0,0.0,0.0,0.0,0.0,0.0,0.0,0.0,0.0,0.0,0.0,0.0,0.0,0.0,0.0,0.0,0.0,0.0,0.0,0.0,0.0,0.0,0.0,0.0,0.0,0.0,0.0,0.0,0.0,0.0,0.0,0.0,0.0,0.0,0.0,0.0,0.0,0.0,0.0,0.0,0.0,0.0,0.0,0.0,0.0,0.0,0.0,0.0,0.0,0.0,0.0,0.0,0.0,0.0,0.0,0.0,0.0,0.0,0.0,0.0,0.0,0.0,0.0,0.0,0.0,0.0,0.0,0.0,0.0,0.0,0.0,0.0,0.0,0.0,0.0,0.0,0.0,0.0,0.0,0.0,0.0,0.0,0.0,-0.7812,-0.7605,-0.7528,0.0,-0.7322,0.0,0.0,0.0,0.0,0.0,0.0,0.0,0.0,0.0,0.0,0.0,0.0,0.0,0.0,0.0,0.0,0.0,0.0,0.0,0.0,0.0,0.0,0.0,0.0,0.0,0.0,0.0,0.0,0.0,0.0,0.0,0.0,0.0,0.0,0.0,0.0,0.0,0.0,0.0,0.0,0.0,0.0,0.0,0.0,0.0,0.0,0.0,0.0,0.0,0.0,0.0,0.0,0.0,0.0,0.0,0.0,0.0,0.0,0.0,0.0,0.0,0.0,0.0,0.0,0.0,0.0,0.0,0.0,0.0,0.0,0.0,0.0,0.0,0.0,0.0,0.0,0.0,0.0,0.0,0.0,0.0,0.0,0.0,0.0,0.0,0.0,0.0,0.0,0.0,0.0,0.0,0.0,0.0,0.0,0.0,0.0,0.0,0.0,0.0,0.0,0.0,0.0,0.0,0.0,0.0,0.0,0.0,0.0,0.0,0.0,-0.7999,-0.7782,-0.759,-0.7467,0.0,0.0,0.0,0.0,0.0,0.0,0.0,0.0,0.0,0.0,0.0,0.0,0.0,0.0,0.0,0.0,0.0,0.0,0.0,0.0,0.0,0.0,0.0,0.0,0.0,0.0,0.0,0.0,0.0,0.0,0.0,0.0,0.0,0.0,0.0,0.0,0.0,0.0,0.0,0.0,0.0,0.0,0.0,0.0,0.0,0.0,0.0,0.0,0.0,0.0,0.0,0.0,0.0,0.0,0.0,0.0,0.0,0.0,0.0,0.0,0.0,0.0,0.0,0.0,0.0,0.0,0.0,0.0,0.0,0.0,0.0,0.0,0.0,0.0,0.0,0.0,0.0,0.0,0.0,0.0,0.0,0.0,0.0,0.0,0.0,0.0,0.0,0.0,0.0,0.0,0.0,0.0,0.0,0.0,0.0,0.0,0.0,0.0,0.0,0.0,0.0,0.0,0.0,0.0,0.0,0.0,0.0,0.0,0.0,0.0,-0.829,-0.8099,-0.7855,-0.7635,-0.7499,-0.7499,0.0,0.0,0.0,0.0,0.0,0.0,0.0,0.0,0.0,0.0,0.0,0.0,0.0,0.0,0.0,0.0,0.0,0.0,0.0,0.0,0.0,0.0,0.0,0.0,0.0,0.0,0.0,0.0,0.0,0.0,0.0,0.0,0.0,0.0,0.0,0.0,0.0,0.0,0.0,0.0,0.0,0.0,0.0,0.0,0.0,0.0,0.0,0.0,0.0,0.0,0.0,0.0,0.0,0.0,0.0,0.0,0.0,0.0,0.0,0.0,0.0,0.0,0.0,0.0,0.0,0.0,0.0,0.0,0.0,0.0,0.0,0.0,0.0,0.0,0.0,0.0,0.0,0.0,0.0,0.0,0.0,0.0,0.0,0.0,0.0,0.0,0.0,0.0,0.0,0.0,0.0,0.0,0.0,0.0,0.0,0.0,0.0,0.0,0.0,0.0,0.0,0.0,0.0,0.0,0.0,0.0,0.0,0.0,-0.8495,-0.8303,-0.8043,-0.7739,-0.7635,-0.756,0.0,0.0,0.0,0.0,0.0,0.0,0.0,0.0,0.0,0.0,0.0,0.0,0.0,0.0,0.0,0.0,0.0,0.0,0.0,0.0,0.0,0.0,0.0,0.0,0.0,0.0,0.0,0.0,0.0,0.0,0.0,0.0,0.0,0.0,0.0,0.0,0.0,0.0,0.0,0.0,0.0,0.0,0.0,0.0,0.0,0.0,0.0,0.0,0.0,0.0,0.0,0.0,0.0,0.0,0.0,0.0,0.0,0.0,0.0,0.0,0.0,0.0,0.0,0.0,0.0,0.0,0.0,0.0,0.0,0.0,0.0,0.0,0.0,0.0,0.0,0.0,0.0,0.0,0.0,0.0,0.0,0.0,0.0,0.0,0.0,0.0,0.0,0.0,0.0,0.0,0.0,0.0,0.0,0.0,0.0,0.0,0.0,0.0,0.0,0.0,0.0,0.0,0.0,0.0,0.0,0.0,0.0,0.0,0.0,-0.8428,-0.8135,-0.7941,-0.7768,-0.7605,-0.7529,0.0,0.0,0.0,0.0,0.0,0.0,0.0,0.0,0.0,0.0,0.0,0.0,0.0,0.0,0.0,0.0,0.0,0.0,0.0,0.0,0.0,0.0,0.0,0.0,0.0,0.0,0.0,0.0,0.0,0.0,0.0,0.0,0.0,0.0,0.0,0.0,0.0,0.0,0.0,0.0,0.0,0.0,0.0,0.0,0.0,0.0,0.0,0.0,0.0,0.0,0.0,0.0,0.0,0.0,0.0,0.0,0.0,0.0,0.0,0.0,0.0,0.0,0.0,0.0,0.0,0.0,0.0,0.0,0.0,0.0,0.0,0.0,0.0,0.0,0.0,0.0,0.0,0.0,0.0,0.0,0.0,0.0,0.0,0.0,0.0,0.0,0.0,0.0,0.0,0.0,0.0,0.0,0.0,0.0,0.0,0.0,0.0,0.0,0.0,0.0,0.0,0.0,0.0,0.0,0.0,0.0,0.0,0.0,0.0,-0.838,0.0,-0.7926,-0.7783,-0.7665,-0.7605,0.0,0.0,0.0,0.0,0.0,0.0,0.0,0.0,0.0,0.0,0.0,0.0,0.0,0.0,0.0,0.0,0.0,0.0,0.0,0.0,0.0,0.0,0.0,0.0,0.0,0.0,0.0,0.0,0.0,0.0,0.0,0.0,0.0,0.0,0.0,0.0,0.0,0.0,0.0,0.0,0.0,0.0,0.0,0.0,0.0,0.0,0.0,0.0,0.0,0.0,0.0,0.0,0.0,0.0,0.0,0.0,0.0,0.0,0.0,0.0,0.0,0.0,0.0,0.0,0.0,0.0,0.0,0.0,0.0,0.0,0.0,0.0,0.0,0.0,0.0,0.0,0.0,0.0,0.0,0.0,0.0,0.0,0.0,0.0,0.0,0.0,0.0,0.0,0.0,0.0,0.0,0.0,0.0,0.0,0.0,0.0,0.0,0.0,0.0,0.0,0.0,0.0,0.0,0.0,0.0,0.0,0.0,0.0,-0.9332,-0.8364,-0.8226,-0.8118,-0.7857,-0.7857,-0.7798,0.0,0.0,0.0,0.0,0.0,0.0,0.0,0.0,0.0,0.0,0.0,0.0,0.0,0.0,0.0,0.0,0.0,0.0,0.0,0.0,0.0,0.0,0.0,0.0,0.0,0.0,0.0,0.0,0.0,0.0,0.0,0.0,0.0,0.0,0.0,0.0,0.0,0.0,0.0,0.0,0.0,0.0,0.0,0.0,0.0,0.0,0.0,0.0,0.0,0.0,0.0,0.0,0.0,0.0,0.0,0.0,0.0,0.0,0.0,0.0,0.0,0.0,0.0,0.0,0.0,0.0,0.0,0.0,0.0,0.0,0.0,0.0,0.0,0.0,0.0,0.0,0.0,0.0,0.0,0.0,0.0,0.0,0.0,0.0,0.0,0.0,0.0,0.0,0.0,0.0,0.0,0.0,0.0,0.0,0.0,0.0,0.0,0.0,0.0,0.0,0.0,0.0,0.0,0.0,0.0,0.0,0.0,0.0,0.0,-0.9086,-0.9421,-0.9513,-0.9318,-0.8815,-0.8511,0.0,0.0,0.0,0.0,0.0,0.0,0.0,0.0,0.0,0.0,0.0,0.0,0.0,0.0,0.0,0.0,0.0,0.0,0.0,0.0,0.0,0.0,0.0,0.0,0.0,0.0,0.0,0.0,0.0,0.0,0.0,0.0,0.0,0.0,0.0,0.0,0.0,0.0,0.0,0.0,0.0,0.0,0.0,0.0,0.0,0.0,0.0,0.0,0.0,0.0,0.0,0.0,0.0,0.0,0.0,0.0,0.0,0.0,0.0,0.0,0.0,0.0,0.0,0.0,0.0,0.0,0.0,0.0,0.0,0.0,0.0,0.0,0.0,0.0,0.0,0.0,0.0,0.0,0.0,0.0,0.0,0.0,0.0,0.0,0.0,0.0,0.0,0.0,0.0,0.0,0.0,0.0,0.0,0.0,0.0,0.0,0.0,0.0,0.0,0.0,0.0,0.0,0.0,0.0,0.0,0.0,0.0,0.0,0.0,-1.0381,-1.0351,-1.0282,-1.0098,-0.9369,-0.9059,-0.917,0.0,0.0,0.0,0.0,0.0,0.0,0.0,0.0,0.0,0.0,0.0,0.0,0.0,0.0,0.0,0.0,0.0,0.0,0.0,0.0,0.0,0.0,0.0,0.0,0.0,0.0,0.0,0.0,0.0,0.0,0.0,0.0,0.0,0.0,0.0,0.0,0.0,0.0,0.0,0.0,0.0,0.0,0.0,0.0,0.0,0.0,0.0,0.0,0.0,0.0,0.0,0.0,0.0,0.0,0.0,0.0,0.0,0.0,0.0,0.0,0.0,0.0,0.0,0.0,0.0,0.0,0.0,0.0,0.0,0.0,0.0,0.0,0.0,0.0,0.0,0.0,0.0,0.0,0.0,0.0,0.0,0.0,0.0,0.0,0.0,0.0,0.0,0.0,0.0,0.0,0.0,0.0,0.0,0.0,0.0,0.0,0.0,0.0,0.0,0.0,0.0,0.0,0.0,0.0,0.0,0.0,0.0,0.0,-1.1992,-1.1108,-1.059,-1.0442,-0.967,-0.948,0.0,0.0,0.0,0.0,0.0,0.0,0.0,0.0,0.0,0.0,0.0,0.0,0.0,0.0,0.0,0.0,0.0,0.0,0.0,0.0,0.0,0.0,0.0,0.0,0.0,0.0,0.0,0.0,0.0,0.0,0.0,0.0,0.0,0.0,0.0,0.0,0.0,0.0,0.0,0.0,0.0,0.0,0.0,0.0,0.0,0.0,0.0,0.0,0.0,0.0,0.0,0.0,0.0,0.0,0.0,0.0,0.0,0.0,0.0,0.0,0.0,0.0,0.0,0.0,0.0,0.0,0.0,0.0,0.0,0.0,0.0,0.0,0.0,0.0,0.0,0.0,0.0,0.0,0.0,0.0,0.0,0.0,0.0,0.0,0.0,0.0,0.0,0.0,0.0,0.0,0.0,0.0,0.0,0.0,0.0,0.0,0.0,0.0,0.0,0.0,0.0,0.0,0.0,0.0,0.0,0.0,0.0,0.0,0.0,-1.2924,-1.2588,-1.2298,-1.1997,-1.127,-1.0898,0.0,0.0,0.0,0.0,0.0,0.0,0.0,0.0,0.0,0.0,0.0,0.0,0.0,0.0,0.0,0.0,0.0,0.0,0.0,0.0,0.0,0.0,0.0,0.0,0.0,0.0,0.0,0.0,0.0,0.0,0.0,0.0,0.0,0.0,0.0,0.0,0.0,0.0,0.0,0.0,0.0,0.0,0.0,0.0,0.0,0.0,0.0,0.0,0.0,0.0,0.0,0.0,0.0,0.0,0.0,0.0,0.0,0.0,0.0,0.0,0.0,0.0,0.0,0.0,0.0,0.0,0.0,0.0,0.0,0.0,0.0,0.0,0.0,0.0,0.0,0.0,0.0,0.0,0.0,0.0,0.0,0.0,0.0,0.0,0.0,0.0,0.0,0.0,0.0,0.0,0.0,0.0,0.0,0.0,0.0,0.0,0.0,0.0,0.0,0.0,0.0,0.0,0.0,0.0,0.0,0.0,0.0,0.0,-1.3511,-1.3379,-1.3244,-1.3052,-1.2834,-1.2044,-1.1695,0.0,0.0,0.0,0.0,0.0,0.0,0.0,0.0,0.0,0.0,0.0,0.0,0.0,0.0,0.0,0.0,0.0,0.0,0.0,0.0,0.0,0.0,0.0,0.0,0.0,0.0,0.0,0.0,0.0,0.0,0.0,0.0,0.0,0.0,0.0,0.0,0.0,0.0,0.0,0.0,0.0,0.0,0.0,0.0,0.0,0.0,0.0,0.0,0.0,0.0,0.0,0.0,0.0,0.0,0.0,0.0,0.0,0.0,0.0,0.0,0.0,0.0,0.0,0.0,0.0,0.0,0.0,0.0,0.0,0.0,0.0,0.0,0.0,0.0,0.0,0.0,0.0,0.0,0.0,0.0,0.0,0.0,0.0,0.0,0.0,0.0,0.0,0.0,0.0,0.0,0.0,0.0,0.0,0.0,0.0,0.0,0.0,0.0,0.0,0.0,0.0,0.0,0.0,0.0,0.0,0.0,0.0,0.0,-1.3655,-1.3511,-1.3396,-1.3244,-1.3105,-1.2336,-1.2181,0.0,0.0,0.0,0.0,0.0,0.0,0.0,0.0,0.0,0.0,0.0,0.0,0.0,0.0,0.0,0.0,0.0,0.0,0.0,0.0,0.0,0.0,0.0,0.0,0.0,0.0,0.0,0.0,0.0,0.0,0.0,0.0,0.0,0.0,0.0,0.0,0.0,0.0,0.0,0.0,0.0,0.0,0.0,0.0,0.0,0.0,0.0,0.0,0.0,0.0,0.0,0.0,0.0,0.0,0.0,0.0,0.0,0.0,0.0,0.0,0.0,0.0,0.0,0.0,0.0,0.0,0.0,0.0,0.0,0.0,0.0,0.0,0.0,0.0,0.0,0.0,0.0,0.0,0.0,0.0,0.0,0.0,0.0,0.0,0.0,0.0,0.0,0.0,0.0,0.0,0.0,0.0,0.0,0.0,0.0,0.0,0.0,0.0,0.0,0.0,0.0,0.0,0.0,0.0,0.0,0.0,0.0,0.0,-1.3791,-1.3655,-1.3527,-1.3396,-1.3261,-1.2868,-1.2742,0.0,0.0,0.0,0.0,0.0,0.0,0.0,0.0,0.0,0.0,0.0,0.0,0.0,0.0,0.0,0.0,0.0,0.0,0.0,0.0,0.0,0.0,0.0,0.0,0.0,0.0,0.0,0.0,0.0,0.0,0.0,0.0,0.0,0.0,0.0,0.0,0.0,0.0,0.0,0.0,0.0,0.0,0.0,0.0,0.0,0.0,0.0,0.0,-1.5283,0.0,0.0,0.0,0.0,0.0,0.0,0.0,0.0,0.0,0.0,0.0,0.0,0.0,0.0,0.0,0.0,0.0,0.0,0.0,0.0,0.0,0.0,0.0,0.0,0.0,0.0,0.0,0.0,0.0,0.0,0.0,0.0,0.0,0.0,0.0,0.0,0.0,0.0,0.0,0.0,0.0,0.0,0.0,0.0,0.0,0.0,0.0,0.0,0.0,0.0,0.0,0.0,0.0,0.0,0.0,0.0,0.0,0.0,0.0,-1.301,-1.2191,-1.2393,-1.228,-1.1823,-1.1924,-1.2339,0.0,0.0,0.0,0.0,0.0,0.0,0.0,0.0,0.0,0.0,0.0,0.0,0.0,0.0,0.0,0.0,0.0,0.0,0.0,0.0,0.0,0.0,0.0,0.0,0.0,0.0,0.0,0.0,0.0,0.0,0.0,0.0,0.0,0.0,0.0,0.0,0.0,0.0,0.0,0.0,0.0,0.0,0.0,0.0,0.0,0.0,0.0,0.0,0.0,0.0,0.0,0.0,0.0,0.0,0.0,0.0,0.0,0.0,0.0,0.0,0.0,0.0,0.0,0.0,0.0,0.0,0.0,0.0,0.0,0.0,0.0,0.0,0.0,0.0,0.0,0.0,0.0,0.0,0.0,0.0,0.0,0.0,0.0,0.0,0.0,0.0,0.0,0.0,0.0,0.0,0.0,0.0,0.0,0.0,0.0,0.0,0.0,0.0,0.0,0.0,0.0,0.0,0.0,0.0,0.0,0.0,0.0,-1.2804,-1.2044,-1.0701,-1.1132,-1.1071,-1.031,-1.0764,-1.1684,-1.3025,0.0,0.0,0.0,0.0,0.0,0.0,0.0,0.0,0.0,0.0,0.0,0.0,0.0,0.0,0.0,0.0,0.0,0.0,0.0,0.0,0.0,0.0,0.0,0.0,0.0,0.0,0.0,0.0,0.0,0.0,0.0,0.0,0.0,0.0,0.0,0.0,0.0,0.0,-1.5197,-1.5268,0.0,0.0,0.0,0.0,0.0,0.0,0.0,0.0,-1.5443,0.0,0.0,0.0,0.0,0.0,0.0,0.0,0.0,0.0,0.0,0.0,0.0,0.0,0.0,0.0,0.0,0.0,0.0,0.0,0.0,0.0,0.0,0.0,0.0,0.0,0.0,0.0,0.0,0.0,0.0,0.0,0.0,0.0,0.0,0.0,0.0,0.0,0.0,0.0,0.0,0.0,0.0,0.0,0.0,0.0,0.0,0.0,0.0,0.0,0.0,0.0,0.0,0.0,0.0,0.0,0.0,-1.2968,-1.2305,-1.183,-1.15,-1.154,-1.1411,-1.1118,-1.1145,-1.1596,-1.246,0.0,0.0,0.0,0.0,0.0,0.0,0.0,0.0,0.0,0.0,0.0,0.0,0.0,0.0,0.0,0.0,0.0,0.0,0.0,0.0,0.0,0.0,0.0,0.0,0.0,0.0,0.0,0.0,0.0,0.0,0.0,0.0,0.0,0.0,0.0,0.0,0.0,0.0,0.0,-1.528,-1.5567,0.0,0.0,0.0,0.0,0.0,0.0,0.0,0.0,-1.5382,0.0,0.0,0.0,0.0,0.0,0.0,0.0,0.0,0.0,0.0,0.0,0.0,0.0,0.0,0.0,0.0,0.0,0.0,0.0,0.0,0.0,0.0,0.0,0.0,0.0,0.0,0.0,0.0,0.0,0.0,0.0,0.0,0.0,0.0,0.0,0.0,0.0,0.0,0.0,0.0,0.0,0.0,0.0,0.0,0.0,0.0,0.0,0.0,0.0,0.0,0.0,0.0,0.0,0.0,0.0,-1.2376,-1.1603,-1.0775,-0.9974,-1.0242,-1.0164,-0.9628,-0.9927,-1.0672,0.0,0.0,0.0,0.0,0.0,0.0,0.0,0.0,0.0,0.0,0.0,0.0,0.0,0.0,0.0,0.0,0.0,0.0,0.0,0.0,0.0,0.0,0.0,0.0,0.0,0.0,0.0,0.0,0.0,0.0,0.0,0.0,0.0,0.0,0.0,0.0,0.0,0.0,0.0,0.0,-1.6628,-1.6801,-1.7208,0.0,0.0,0.0,0.0,0.0,0.0,-1.6989,-1.67,0.0,0.0,0.0,0.0,0.0,0.0,0.0,0.0,0.0,0.0,0.0,0.0,0.0,0.0,0.0,0.0,0.0,0.0,0.0,0.0,0.0,0.0,0.0,0.0,0.0,0.0,0.0,0.0,0.0,0.0,0.0,0.0,0.0,0.0,0.0,0.0,0.0,0.0,0.0,0.0,0.0,0.0,0.0,0.0,0.0,0.0,0.0,0.0,0.0,0.0,0.0,0.0,0.0,0.0,0.0,-1.1819,-1.0859,-0.9789,-0.862,-0.9055,-0.8974,-0.8275,-0.8796,-0.9828,0.0,0.0,0.0,0.0,0.0,0.0,0.0,0.0,0.0,0.0,0.0,0.0,0.0,0.0,0.0,0.0,0.0,0.0,0.0,0.0,0.0,0.0,0.0,0.0,0.0,0.0,0.0,0.0,0.0,0.0,0.0,0.0,0.0,0.0,0.0,0.0,0.0,0.0,0.0,0.0,0.0,-1.7951,-1.8135,-1.8173,0.0,0.0,0.0,0.0,-1.8675,-1.8403,0.0,0.0,0.0,0.0,0.0,0.0,0.0,0.0,0.0,0.0,0.0,0.0,0.0,0.0,0.0,0.0,0.0,0.0,0.0,0.0,0.0,0.0,0.0,0.0,0.0,0.0,0.0,0.0,0.0,0.0,0.0,0.0,0.0,0.0,0.0,0.0,0.0,0.0,0.0,0.0,0.0,0.0,0.0,0.0,0.0,0.0,0.0,0.0,0.0,0.0,0.0,0.0,0.0,0.0,0.0,0.0,-1.1851,-1.0403,-0.9546,-0.9375,-0.9368,-0.9294,-0.9066,-0.9142,-0.99,0.0,0.0,0.0,0.0,0.0,0.0,0.0,0.0,0.0,0.0,0.0,0.0,0.0,0.0,0.0,0.0,0.0,0.0,0.0,0.0,0.0,0.0,0.0,0.0,0.0,0.0,0.0,0.0,0.0,0.0,0.0,0.0,0.0,0.0,0.0,0.0,0.0,0.0,0.0,0.0,0.0,-1.8116,-1.8935,-1.9046,-1.956,0.0,0.0,-2.0456,-2.1247,-2.006,0.0,0.0,0.0,0.0,0.0,0.0,0.0,0.0,0.0,0.0,0.0,0.0,0.0,0.0,0.0,0.0,0.0,0.0,0.0,0.0,0.0,0.0,0.0,0.0,0.0,0.0,0.0,0.0,0.0,0.0,0.0,0.0,0.0,0.0,0.0,0.0,0.0,0.0,0.0,0.0,0.0,0.0,0.0,0.0,0.0,0.0,0.0,0.0,0.0,0.0,0.0,0.0,0.0,0.0,0.0,-1.1905,-1.184,-1.0304,-0.9491,-0.9483,-0.9421,-0.934,-0.9245,-0.9253,-0.9771,0.0,0.0,0.0,0.0,0.0,0.0,0.0,0.0,0.0,0.0,0.0,0.0,0.0,0.0,0.0,0.0,0.0,0.0,0.0,0.0,0.0,0.0,0.0,0.0,0.0,0.0,0.0,0.0,0.0,0.0,0.0,0.0,0.0,0.0,0.0,0.0,0.0,0.0,0.0,0.0,0.0,0.0,-2.0496,-2.0619,0.0,0.0,0.0,-2.207,-2.2473,0.0,0.0,0.0,0.0,0.0,0.0,0.0,0.0,0.0,0.0,0.0,0.0,0.0,0.0,0.0,0.0,0.0,0.0,0.0,0.0,0.0,0.0,0.0,0.0,0.0,0.0,0.0,0.0,0.0,0.0,0.0,0.0,0.0,0.0,0.0,0.0,0.0,0.0,0.0,0.0,0.0,0.0,0.0,0.0,0.0,0.0,0.0,0.0,0.0,0.0,0.0,0.0,0.0,0.0,0.0,0.0,0.0,-1.1866,-1.0322,-0.9491,-0.9483,-0.9439,-0.9376,-0.9273,-0.9282,0.0,0.0,0.0,0.0,0.0,0.0,0.0,0.0,0.0,0.0,0.0,0.0,0.0,0.0,0.0,0.0,0.0,0.0,0.0,0.0,0.0,0.0,0.0,0.0,0.0,0.0,0.0,-0.9724,0.0,0.0,0.0,0.0,0.0,0.0,0.0,0.0,0.0,0.0,0.0,0.0,0.0,0.0,-2.1043,-2.1906,-2.2031,-2.2318,0.0,0.0,-2.3407,-2.3689,-2.3534,-2.3402,0.0,0.0,0.0,0.0,0.0,0.0,0.0,0.0,0.0,0.0,0.0,0.0,0.0,0.0,0.0,0.0,0.0,0.0,0.0,0.0,0.0,0.0,0.0,0.0,0.0,0.0,0.0,0.0,0.0,0.0,0.0,0.0,0.0,0.0,0.0,0.0,0.0,0.0,0.0,0.0,0.0,0.0,0.0,0.0,0.0,0.0,0.0,0.0,0.0,0.0,0.0,0.0,0.0,0.0,-1.1908,-1.1861,-1.0304,-0.9509,-0.9483,-0.9439,-0.934,-0.9226,-0.9273,-0.9975,0.0,0.0,0.0,0.0,0.0,0.0,0.0,0.0,0.0,0.0,0.0,0.0,0.0,0.0,0.0,0.0,0.0,0.0,0.0,0.0,0.0,0.0,0.0,0.0,0.0,0.0,0.0,0.0,0.0,0.0,0.0,0.0,0.0,0.0,0.0,0.0,0.0,0.0,0.0,0.0,0.0,-2.1933,-2.2778,-2.2904,-2.3231,0.0,-2.4197,-2.4499,-2.5307,-2.4752,-2.4227,-2.4229,0.0,0.0,0.0,0.0,0.0,0.0,0.0,0.0,0.0,0.0,0.0,0.0,0.0,0.0,0.0,0.0,0.0,0.0,0.0,0.0,0.0,0.0,0.0,0.0,0.0,0.0,0.0,0.0,0.0,0.0,0.0,0.0,0.0,0.0,0.0,0.0,0.0,0.0,0.0,0.0,0.0,0.0,0.0,0.0,0.0,0.0,0.0,0.0,0.0,0.0,0.0,0.0,0.0,-1.2405,-1.188,-1.0792,-0.9997,-0.9519,-0.9439,-0.9367,-0.9273,-0.9274,-0.9545,0.0,0.0,0.0,0.0,0.0,0.0,0.0,0.0,0.0,0.0,0.0,0.0,0.0,0.0,0.0,0.0,0.0,0.0,0.0,0.0,0.0,0.0,0.0,0.0,0.0,0.0,0.0,0.0,-0.9446,-0.9455,-0.951,0.0,0.0,0.0,0.0,0.0,0.0,0.0,0.0,0.0,0.0,-2.2766,-2.3669,-2.3803,0.0,0.0,-2.5102,-2.5224,-2.554,-2.5313,-2.5109,-2.5114,-2.437,0.0,0.0,0.0,0.0,0.0,0.0,0.0,0.0,0.0,0.0,0.0,0.0,0.0,0.0,0.0,0.0,0.0,0.0,0.0,0.0,0.0,0.0,0.0,0.0,0.0,0.0,0.0,0.0,0.0,0.0,0.0,0.0,0.0,0.0,0.0,0.0,0.0,0.0,0.0,0.0,0.0,0.0,0.0,0.0,0.0,0.0,0.0,0.0,0.0,0.0,0.0,0.0,-1.2817,-1.2249,-1.1206,-1.0401,-0.9843,-0.9761,-0.9676,-0.9605,-0.9844,-1.003,0.0,0.0,0.0,0.0,0.0,0.0,0.0,0.0,0.0,0.0,0.0,0.0,0.0,0.0,0.0,0.0,0.0,0.0,0.0,0.0,0.0,0.0,0.0,0.0,0.0,0.0,0.0,0.0,-1.0339,-1.041,-1.0733,0.0,0.0,0.0,0.0,0.0,0.0,0.0,0.0,0.0,0.0,-2.3638,-2.4516,-2.4645,-2.4865,-2.5492,-2.557,-2.5667,-2.5919,-2.5957,-2.5962,-2.5982,0.0,0.0,0.0,0.0,0.0,0.0,0.0,0.0,0.0,0.0,0.0,0.0,0.0,0.0,0.0,0.0,0.0,0.0,0.0,0.0,0.0,0.0,0.0,0.0,0.0,0.0,0.0,-1.0819,0.0,0.0,-0.9929,0.0,0.0,0.0,0.0,0.0,0.0,0.0,0.0,0.0,0.0,0.0,0.0,0.0,0.0,0.0,0.0,0.0,0.0,0.0,0.0,0.0,0.0,-1.3022,-1.304,-1.1488,-1.0611,-1.0591,-1.0511,-1.0418,-1.0308,-1.1023,-1.1734,-1.2359,0.0,0.0,0.0,0.0,0.0,0.0,0.0,0.0,0.0,0.0,0.0,0.0,0.0,0.0,0.0,0.0,0.0,0.0,0.0,0.0,0.0,0.0,0.0,0.0,0.0,0.0,-1.1384,-1.1215,-1.1506,0.0,0.0,0.0,0.0,0.0,0.0,0.0,0.0,0.0,-2.2771,-2.363,-2.4496,-2.5321,-2.5459,-2.5492,-2.5531,-2.5556,-2.5824,-2.6637,-2.6761,-2.6781,0.0,0.0,0.0,0.0,0.0,0.0,0.0,0.0,0.0,0.0,0.0,0.0,0.0,0.0,0.0,0.0,0.0,0.0,0.0,0.0,0.0,0.0,0.0,0.0,0.0,0.0,0.0,-1.1839,-1.1499,0.0,0.0,0.0,0.0,0.0,0.0,0.0,0.0,0.0,0.0,0.0,-1.5145,-1.5228,0.0,0.0,0.0,0.0,0.0,0.0,0.0,0.0,0.0,0.0,0.0,0.0,-1.3556,-1.3046,-1.2442,-1.1842,-1.1287,-1.12,-1.1129,-1.1036,-1.1286,-1.179,-1.2537,0.0,0.0,0.0,0.0,0.0,0.0,0.0,0.0,0.0,0.0,0.0,0.0,0.0,0.0,0.0,0.0,0.0,0.0,0.0,0.0,0.0,0.0,0.0,0.0,0.0,-1.3265,0.0,0.0,0.0,0.0,0.0,0.0,0.0,0.0,0.0,0.0,0.0,-2.2804,-2.3656,-2.452,-2.517,-2.548,-2.5956,-2.6296,0.0,0.0,0.0,0.0,0.0,0.0,0.0,0.0,0.0,0.0,0.0,0.0,0.0,0.0,-2.5627,-2.3125,-2.2907,-2.3099,-2.3096,0.0,0.0,0.0,0.0,0.0,0.0,0.0,0.0,0.0,0.0,0.0,0.0,0.0,0.0,-1.3512,-1.3158,-1.2959,0.0,0.0,0.0,0.0,0.0,0.0,0.0,0.0,-1.5201,-1.5726,-1.6234,-1.6287,-1.6321,-1.6352,-1.6302,-1.5788,0.0,0.0,0.0,0.0,0.0,0.0,0.0,0.0,-1.4252,-1.373,-1.3139,-1.2555,-1.1972,-1.189,-1.1811,-1.1747,-1.2003,-1.2244,-1.2454,-1.2192,-1.2397,0.0,0.0,0.0,0.0,0.0,0.0,0.0,0.0,0.0,0.0,0.0,0.0,0.0,0.0,0.0,0.0,0.0,0.0,0.0,0.0,0.0,0.0,0.0,-1.4551,0.0,0.0,0.0,0.0,0.0,0.0,0.0,0.0,0.0,-2.0816,-2.232,-2.3545,-2.4099,-2.5158,-2.5876,-2.5887,0.0,0.0,0.0,0.0,0.0,0.0,0.0,-2.8241,-2.7972,-2.8193,-2.8271,-2.7981,-2.7923,-2.7892,-2.7912,0.0,0.0,-2.5269,-2.4873,-2.4858,-2.4881,-2.4882,-2.5038,-2.5605,-2.5723,-2.5879,0.0,0.0,0.0,0.0,-1.4341,0.0,0.0,0.0,-1.5706,-1.574,0.0,-1.5142,0.0,0.0,0.0,0.0,-1.4442,-1.4669,0.0,0.0,-1.6165,-1.6167,-1.6273,-1.6291,-1.6221,-1.6203,-1.6203,-1.6186,-1.6186,-1.6358,0.0,0.0,0.0,0.0,0.0,0.0,-1.5121,-1.5068,-1.3598,-1.2739,-1.2669,-1.2583,-1.251,-1.25,-1.3153,-1.3156,-1.24,-1.3025,-1.3042,-1.2252,-1.3006,0.0,0.0,0.0,0.0,0.0,0.0,0.0,0.0,0.0,0.0,0.0,0.0,0.0,0.0,0.0,0.0,0.0,0.0,0.0,0.0,-1.5861,0.0,0.0,0.0,0.0,0.0,0.0,0.0,0.0,0.0,-2.0797,-2.1694,-2.3176,-2.4196,-2.4199,0.0,0.0,0.0,0.0,-2.783,-2.783,-2.7865,-2.8161,-2.8948,-2.9082,-2.8775,-2.7931,0.0,0.0,-2.7984,-2.7816,-2.7865,-2.7883,-2.802,-2.8036,-2.8201,-2.8024,-2.8026,-2.8025,-2.7953,-2.8134,-2.8207,-2.8054,-2.8115,-1.5538,0.0,0.0,0.0,0.0,-1.6047,-1.6537,-1.6905,-1.7506,-1.7515,-1.707,-1.6982,0.0,0.0,0.0,0.0,0.0,0.0,-1.7738,-1.8176,-1.8778,-1.9085,-1.9152,-1.8627,-1.8385,-1.8388,-1.7867,-1.7607,-1.7607,-1.7641,-1.7179,-1.6168,0.0,0.0,0.0,0.0,-1.5731,-1.5679,-1.4723,-1.4173,-1.4107,-1.3509,-1.3428,-1.3871,-1.402,-1.422,-1.4521,-1.4195,-1.3874,-1.359,-1.3201,0.0,0.0,0.0,0.0,0.0,0.0,0.0,0.0,0.0,0.0,0.0,0.0,0.0,0.0,0.0,0.0,0.0,0.0,0.0,-1.5841,-1.6611,-1.7046,0.0,0.0,0.0,0.0,0.0,0.0,0.0,0.0,0.0,-2.3246,-2.3752,-2.4568,0.0,0.0,-2.6729,-2.729,-2.8084,-2.858,-2.858,-2.9082,0.0,-2.9,-2.8976,-2.867,-2.7867,-2.8415,-2.8862,-2.8626,-2.9084,-2.9499,-2.95,-2.9538,-2.9571,-2.9611,-2.8764,-2.812,-2.8061,-2.8098,-2.8338,-2.8843,-2.8979,-2.916,-1.7497,-1.6802,-1.6217,-1.6118,-1.6411,-1.7075,-1.7578,-1.8023,-1.8625,-1.8625,-1.8251,-1.8415,-1.8124,-1.744,-1.7205,0.0,0.0,0.0,-1.9,-1.9286,-1.9799,-2.0144,-2.0216,-1.9795,-1.9578,-1.9544,-1.8824,-1.8481,-1.8481,-1.8202,-1.7628,-1.6835,0.0,-1.6931,-1.6914,-1.6564,-1.6389,-1.6317,-1.5572,-1.5139,-1.5048,-1.4533,-1.4444,-1.4826,-1.4785,-1.4947,-1.5399,-1.4918,-1.4589,-1.4476,-1.3873,-1.3518,0.0,0.0,0.0,0.0,0.0,0.0,0.0,0.0,0.0,0.0,0.0,-1.6346,-1.7267,0.0,0.0,0.0,-1.6224,-1.6619,-1.7514,-1.8375,0.0,0.0,0.0,0.0,0.0,0.0,0.0,-2.1471,-2.2915,-2.3995,-2.4293,-2.4394,-2.4839,-2.5887,-2.6562,-2.7,-2.7135,0.0,-2.8746,-2.8441,-2.8789,-2.8941,-2.8455,-2.8398,-2.8221,-2.7733,-2.7739,-2.815,-2.877,-2.9298,-2.9698,-3.0018,-3.0118,-3.0142,-3.0221,-2.9444,-2.8859,-2.8946,-2.8991,-2.9182,-2.9646,-2.9724,-2.9887,-1.9368,-1.9257,-1.7671,-1.7177,-1.7446,-1.777,-1.8265,-1.8955,-1.9229,-1.9298,-1.9298,-1.9527,-1.928,-1.8684,-1.8837,0.0,-1.9023,-1.9174,-1.9435,-1.9826,-1.9826,-1.9927,-2.0102,-2.0069,-2.0035,-2.0035,-1.9294,-1.8947,-1.8846,-1.8188,-1.7884,-1.7861,-1.8117,-1.822,-1.8155,-1.7429,-1.7027,-1.699,-1.6233,-1.5763,-1.5595,-1.5459,-1.5412,-1.5482,-1.5499,-1.5475,-1.5479,-1.5475,-1.5319,-1.5032,-1.4828,-1.4523,-1.4027,0.0,0.0,0.0,0.0,0.0,0.0,0.0,0.0,0.0,0.0,0.0,0.0,0.0,0.0,0.0,-1.7663,0.0,-1.9606,-2.0565,0.0,0.0,0.0,-2.0306,-2.1176,-2.1331,-2.1988,-2.3588,0.0,0.0,-2.4886,-2.4961,-2.5006,-2.5049,-2.6467,-2.7203,-2.6496,-2.7714,-2.8417,-2.7714,-2.7613,-2.7594,-2.7485,-2.7385,-2.729,-2.7214,-2.6768,-2.693,-2.8183,-2.8609,-2.8935,-2.9687,-2.9893,-2.9946,-3.0049,-3.0037,-3.0152,-3.0234,-3.0317,-3.0332,-3.0309,-3.0301,-3.0312,-1.9448,-1.9525,-1.8831,-1.896,-1.9539,-1.9489,-1.9692,-2.0072,-1.9797,-1.9712,-1.9817,-1.9905,-1.9639,-1.9103,-1.9679,-1.9731,-1.9406,-1.9972,-2.0448,-2.0839,-2.0915,-2.1002,-2.113,-2.0664,-2.0444,-2.0423,-1.9817,-1.921,-1.8676,-1.8525,-1.8212,-1.7748,-1.8276,-1.8426,-1.8044,-1.7752,-1.7584,-1.7567,-1.6749,-1.603,-1.5473,-1.5362,-1.5571,-1.6153,-1.6165,-1.6426,-1.6967,-1.6928,-1.6584,-1.5911,-1.5581,-1.5153,-1.4616,-1.4495,0.0,0.0,0.0,0.0,0.0,0.0,0.0,0.0,0.0,-1.7746,-1.9886,0.0,-1.7935,0.0,-1.8989,-1.923,-1.938,-2.0748,0.0,0.0,-2.1444,-2.1533,-2.1864,-2.2473,-2.3036,-2.3445,-2.4024,-2.4471,-2.4663,-2.4689,-2.4689,-2.4731,-2.5716,-2.6603,-2.7047,-2.7392,-2.7588,-2.7396,-2.7354,-2.7218,-2.6574,-2.5977,-2.5682,-2.5625,-2.5934,-2.6375,-2.6769,-2.7361,-2.8063,-2.8806,-2.8995,-2.9238,-2.9826,-2.9988,-3.0034,-3.0079,-3.018,-3.0247,-3.0253,-3.0266,-3.0247,-1.9821,-1.9858,-1.9764,-2.0094,-2.058,-2.002,-1.9966,-2.0235,-1.9901,-1.9797,-1.9919,-2.0025,-1.9882,-1.9596,-1.9963,-2.0035,-1.9798,-2.0239,-2.0662,-2.0925,-2.1038,-2.1135,-2.1275,-2.0996,-2.0863,-2.0847,-2.023,-1.9712,-1.9307,-1.9075,-1.879,-1.841,-1.8867,-1.8993,-1.8778,-1.8713,-1.8538,-1.8209,-1.7372,-1.6742,-1.6358,-1.6298,-1.6476,-1.6874,-1.6907,-1.709,-1.7465,-1.7472,-1.7249,-1.6769,-1.6735,-1.6492,-1.5957,-1.6192,-1.6607,0.0,0.0,0.0,0.0,0.0,0.0,0.0,0.0,0.0,0.0,0.0,-1.935,-1.974,-2.0136,-2.0468,-2.075,-2.2006,-2.2866,-2.2918,-2.2883,-2.2865,-2.3019,-2.3461,-2.3756,-2.3806,-2.4195,-2.4456,-2.4474,-2.4461,-2.4462,-2.4461,-2.4935,-2.5517,-2.6098,-2.6472,-2.6604,-2.6249,-2.6204,-2.6103,-2.5622,-2.5234,-2.4991,-2.5015,-2.5389,-2.5754,-2.6133,-2.6603,-2.729,-2.8408,-2.8676,-2.8941,-2.9718,-2.994,-2.9956,-2.9972,-3.0019,-3.0083,-3.0147,-3.0161,-3.0161,-2.0131,-2.0169,-2.0409,-2.0723,-2.0864,-1.9915,-1.9746,-2.0038,-1.973,-1.969,-1.9741,-1.9884,-1.9935,-1.9935,-1.9935,-1.999,-2.0045,-2.0185,-2.0357,-2.053,-2.0646,-2.0763,-2.091,-2.1023,-2.1119,-2.1087,-2.0539,-2.0231,-2.018,-1.9699,-1.9414,-1.9388,-1.9635,-1.976,-1.9841,-1.9967,-1.9593,-1.8684,-1.7985,-1.7638,-1.7638,-1.7631,-1.7673,-1.7756,-1.7771,-1.7754,-1.7795,-1.785,-1.785,-1.7747,-1.8151,-1.8156,-1.7658,-1.8273,-1.8857,0.0,-1.8383,0.0,0.0,0.0,0.0,0.0,0.0,0.0,0.0,-2.0748,-2.0536,-2.0261,-2.1152,-2.1953,-2.2546,-2.3485,-2.4058,-2.4077,-2.4001,-2.402,-2.4135,-2.4154,-2.4192,-2.4247,-2.4247,-2.4247,-2.4229,-2.4229,-2.4247,-2.4247,-2.4284,-2.445,-2.4655,-2.5314,-2.5549,-2.4835,-2.4768,-2.4982,-2.4965,-2.4969,-2.4977,-2.4996,-2.5029,-2.5237,-2.5901,-2.6034,-2.6531,-2.7934,-2.8389,-2.8771,-2.9585,-2.9794,-2.9907,-2.9924,-2.9924,-2.9956,-3.0038,-3.0072,-3.0087,-1.9862,-1.9914,-2.0169,-2.0422,-2.0604,-1.994,-1.9949,-2.0425,-1.958,-1.9288,-1.9487,-1.9487,-1.9538,-1.9538,-1.9647,-1.972,-1.9797,-1.9869,-2.001,-2.0204,-2.0204,-2.0323,-2.0426,-2.0512,-2.0595,-2.0613,-2.0734,-2.0511,-2.0031,-2.0094,-1.9825,-1.9349,-2.004,-2.0421,-2.0482,0.0,0.0,0.0,-1.8385,-1.8319,-1.8319,-1.8319,-1.8617,-1.9171,-1.9266,0.0,-1.9301,-1.9446,-1.9502,-1.9423,-1.937,0.0,0.0,0.0,0.0,0.0,0.0,0.0,0.0,0.0,0.0,0.0,-2.1486,-2.2,-2.2262,-2.2224,-2.1855,-2.1119,-2.1866,-2.2411,-2.2455,-2.3298,-2.3871,-2.385,-2.385,-2.3852,-2.3896,-2.3937,-2.3978,-2.3979,-2.3979,-2.3979,-2.3998,-2.3919,-2.3919,-2.3978,-2.3978,-2.4037,-2.4191,-2.4522,-2.4679,-2.4564,-2.4642,-2.4753,-2.4794,-2.487,-2.4964,-2.4977,-2.4991,-2.5067,-2.5237,-2.5262,-2.5522,-2.6607,-2.7247,-2.7972,-2.8787,-2.9434,-2.9832,-2.9888,-2.9888,-2.9924,-2.994,-2.9921,-2.9921,-1.9798,-1.985,-2.0067,-2.0372,0.0,-2.0154,-2.0292,-2.0768,-1.9588,-1.9228,-1.9428,-1.9428,-1.9428,-1.9428,-1.9465,-1.9523,-1.956,-1.9669,-1.9741,-1.9848,-1.9869,-1.994,-2.001,-2.005,-2.017,-2.027,-2.0444,-2.0407,-2.0207,-2.0401,-2.0335,-2.006,-2.0596,-2.0926,-2.0956,-2.1437,-2.1028,-1.9595,-1.9194,-1.9029,-1.9038,-1.9029,-1.9194,-1.9568,-1.9664,0.0,0.0,0.0,0.0,0.0,0.0,0.0,0.0,-2.0799,0.0,-2.1327,-2.1177,-2.1161,-2.1341,-2.1481,-2.1568,-2.1647,-2.242,-2.2958,-2.3172,-2.3154,-2.2929,-2.2461,-2.2826,-2.3042,-2.2976,-2.3378,-2.3652,-2.3674,-2.3652,-2.3656,-2.3682,-2.3743,-2.3768,-2.3789,-2.381,-2.381,-2.381,-2.3789,-2.3768,-2.381,-2.381,-2.3831,-2.3953,-2.4135,-2.4302,-2.4428,-2.4561,-2.4673,-2.4685,-2.4827,-2.4917,-2.4931,-2.4977,-2.4996,-2.4991,-2.4991,-2.5262,-2.6034,-2.6584,-2.7119,-2.7953,-2.8768,-2.9204,-2.8919,-2.9355,-2.968,-2.9453,-2.9604,-2.9907,-1.9949,-2.0001,-2.0118,-2.0334,-2.057,-2.0407,-2.0579,-2.0899,-1.9852,0.0,0.0,-1.9677,-1.9677,-1.9677,-1.9692,-1.9729,-1.9729,-1.9856,-1.9879,-1.9931,-1.9975,-1.9937,-1.9833,-1.9876,-1.9924,-1.997,-2.001,-2.0185,-2.0388,-2.0559,-2.0677,-2.081,-2.1006,-2.1183,-2.1246,-2.1402,-2.1262,-2.0755,-2.0052,-1.969,-1.9772,-1.969,-1.9756,-1.9954,-2.0036,-2.0046,-2.0046,-2.0073,-2.0094,-2.0159,-2.0688,-2.1014,-2.1189,-2.1916,-2.236,-2.2381,-2.2005,-2.1796,-2.1888,-2.1976,-2.2089,-2.2224,-2.2847,-2.3342,-2.3594,-2.3634,-2.3611,-2.3562,-2.3585,-2.3562,-2.3494,-2.3494,-2.3494,-2.3494,-2.3494,-2.3517,-2.3562,-2.3585,-2.3607,-2.3656,-2.3656,-2.3674,-2.3656,-2.3656,-2.3656,-2.3656,-2.3656,-2.3678,-2.3765,-2.3937,-2.4135,-2.4284,-2.4426,-2.4526,-2.4591,-2.4719,-2.4861,-2.4889,-2.4936,-2.4983,-2.4996,-2.4996,-2.5243,-2.5773,-2.6058,-2.6494,-2.7172,-2.7934,-2.8237,-2.7646,-2.8521,-2.9282,-2.8749,-2.9014,-2.945,-2.0592,-2.0555,-2.0283,-2.0283,-2.0421,-2.0359,-2.0425,-2.057,-2.0568,-2.0645,-2.0767,-2.0767,-2.0767,-2.0782,-2.0907,-2.0947,-2.0947,-2.1053,-2.1064,-2.1064,-2.1079,-2.0769,-2.0292,-2.0315,-2.0132,-1.9741,-1.9803,-2.0015,-2.0304,-2.0392,-2.0527,-2.0711,-2.081,-2.0909,-2.1039,-2.1071,-2.1102,-2.1101,-2.0632,-2.0373,-2.0373,-2.0373,-2.0668,-2.1275,-2.1365,-2.1411,-2.1411,-2.1437,-2.1495,-2.1524,-2.1611,-2.1685,-2.1777,-2.1961,-2.2068,-2.2169,-2.2241,-2.2307,-2.2317,-2.2407,-2.2556,-2.2712,-2.2865,-2.3067,-2.3336,-2.3424,-2.343,-2.343,-2.3494,-2.3517,-2.3494,-2.3494,-2.3494,-2.3494,-2.3494,-2.3499,-2.3517,-2.3517,-2.3517,-2.3539,-2.3522,-2.3539,-2.3539,-2.3539,-2.3539,-2.3539,-2.3562,-2.3544,-2.3634,-2.381,-2.3996,-2.4114,-2.421,-2.4321,-2.4408,-2.4545,-2.4676,-2.4806,-2.4821,-2.4846,-2.4903,-2.4917,-2.4988,-2.5148,-2.5712,-2.6167,-2.6399,-2.7077,-2.7456,-2.7361,-2.7725,-2.7877,-2.7702,-2.7816,-2.8085,-2.0884,-2.0957,-2.0923,-2.1089,-2.1342,-2.1452,-2.145,-2.1445,-2.1698,-2.1456,-2.1017,-2.0988,-2.0988,-2.0988,-2.1058,-2.1114,-2.1099,-2.114,-2.1126,-2.1126,-2.114,-2.0965,-2.0757,-2.0728,-2.0621,-2.0513,-2.0537,-2.0676,-2.0956,-2.109,-2.1054,-2.0828,-2.068,-2.0613,-2.0663,-2.0697,-2.0778,-2.0909,-2.0877,-2.087,-2.0931,-2.09,-2.1063,-2.145,-2.1495,-2.1526,-2.1556,-2.1587,-2.1617,-2.1694,-2.1617,-2.1622,-2.1722,-2.182,-2.1869,-2.194,-2.2061,-2.2147,-2.2175,-2.2298,-2.2436,-2.2569,-2.2642,-2.273,-2.2919,-2.3119,-2.3265,-2.3336,-2.3424,-2.3471,-2.3494,-2.3494,-2.3494,-2.3494,-2.3494,-2.3494,-2.3494,-2.3494,-2.3494,-2.3494,-2.3494,-2.3494,-2.3494,-2.3494,-2.3494,-2.3494,-2.3494,-2.3517,-2.3557,-2.3634,-2.3765,-2.3912,-2.4054,-2.4153,-2.4247,-2.4392,-2.4512,-2.4578,-2.466,-2.4723,-2.4783,-2.4813,-2.4889,-2.495,-2.5305,-2.5508,-2.5579,-2.6242,-2.6508,-2.628,-2.7001,-2.7266,-2.6982,-2.6811,-2.7081,-2.1272,-2.1317,-2.1475,-2.1759,-2.2187,-2.2468,-2.2564,-2.2524,-2.2748,-2.2441,-2.1744,-2.1685,-2.1728,-2.1873,-2.1873,-2.1873,-2.1859,-2.1859,-2.1816,-2.1816,-2.1816,-2.1685,-2.1368,-2.1339,-2.1307,-2.1172,-2.1184,-2.1292,-2.1465,-2.1625,-2.1458,-2.1084,-2.0839,-2.0709,-2.0539,-2.0574,-2.0596,-2.0592,-2.0761,-2.099,-2.1183,-2.1135,-2.1135,-2.1214,-2.1309,-2.1324,-2.1371,-2.1371,-2.1433,-2.1528,-2.1433,-2.1404,-2.1517,-2.1591,-2.1631,-2.1708,-2.1797,-2.1869,-2.1911,-2.2027,-2.2113,-2.2265,-2.231,-2.2377,-2.248,-2.2747,-2.3003,-2.3193,-2.333,-2.3407,-2.3471,-2.3494,-2.3494,-2.3494,-2.3494,-2.3494,-2.3494,-2.3494,-2.3494,-2.3494,-2.3494,-2.3494,-2.3494,-2.3494,-2.3494,-2.3494,-2.3494,-2.3494,-2.3494,-2.3494,-2.3585,-2.37,-2.3891,-2.4014,-2.4054,-2.4192,-2.4284,-2.4355,-2.4459,-2.4561,-2.466,-2.4738,-2.4798,-2.4875,-2.4936,-2.504,-2.504,-2.5451,-2.5641,-2.5356,-2.6034,-2.6603,-2.6091,-2.5939,-2.6337,-2.1709,-2.174,-2.1587,-2.1814,-2.232,-2.2751,-2.3053,-2.3283,-2.3566,-2.3691,-2.3611,-2.364,-2.392,-2.4471,-2.4365,-2.4293,-2.4307,-2.4409,-2.4303,-2.4177,-2.4278,-2.3579,-2.2441,-2.2474,-2.2018,-2.1207,-2.1274,-2.1486,-2.1662,-2.1503,-2.1465,-2.156,-2.1734,-2.1516,-2.0999,-2.0938,-2.0706,-2.0166,-2.0185,-2.041,-2.0827,-2.0827,-2.086,-2.0942,-2.1055,-2.1167,-2.1199,-2.1262,-2.1309,-2.1325,-2.1309,-2.1325,-2.1341,-2.1402,-2.1448,-2.1448,-2.1573,-2.1634,-2.1724,-2.1741,-2.1784,-2.1827,-2.1864,-2.1923,-2.2073,-2.2226,-2.2527,-2.2962,-2.321,-2.3366,-2.3401,-2.3506,-2.3547,-2.3494,-2.3494,-2.3494,-2.3494,-2.3494,-2.3494,-2.3494,-2.3494,-2.3494,-2.3494,-2.3494,-2.3494,-2.3494,-2.3494,-2.3494,-2.3494,-2.3494,-2.3494,-2.3544,-2.3674,-2.3786,-2.3834,-2.3937,-2.4077,-2.4173,-2.4266,-2.4393,-2.453,-2.461,-2.4673,-2.4772,-2.4846,-2.4889,-2.4917,-2.504,-2.511,-2.5059,-2.521,-2.5294,-2.5129,-2.5181,-2.5749,-2.2566,-2.2591,-2.2701,-2.269,-2.2756,-2.3201,-2.338,-2.3398,-2.3709,-2.3993,-2.4403,-2.4385,-2.4368,-2.4369,-2.4355,-2.4305,-2.4355,-2.4405,-2.4341,-2.4291,-2.4376,-2.4155,-2.3595,-2.3621,-2.3416,-2.3034,-2.3037,-2.3144,-2.3149,-2.292,-2.2644,-2.2422,-2.2292,-2.1909,-2.1335,-2.1222,-2.1111,-2.0978,-2.0542,-2.0494,-2.0722,-2.0593,-2.0543,-2.0628,-2.0794,-2.0958,-2.1023,-2.1199,-2.1294,-2.1294,-2.1294,-2.1294,-2.1294,-2.134,-2.1371,-2.1386,-2.1464,-2.1542,-2.1634,-2.1573,-2.1573,-2.1694,-2.168,-2.1727,-2.1844,-2.2341,-2.2798,-2.3112,-2.3554,-2.3854,-2.3929,-2.4027,-2.3898,-2.3508,-2.3383,-2.3383,-2.3448,-2.343,-2.3453,-2.3494,-2.3494,-2.3494,-2.3494,-2.3494,-2.3494,-2.3494,-2.3494,-2.3494,-2.3494,-2.3494,-2.3494,-2.3499,-2.3544,-2.3589,-2.3682,-2.3807,-2.3912,-2.3978,-2.4095,-2.4229,-2.4339,-2.4461,-2.4545,-2.4663,-2.4707,-2.4749,-2.4783,-2.4798,-2.4832,-2.4861,-2.4917,-2.4931,-2.4931,-2.4977,-2.5394,-2.3248,-2.3365,-2.3634,-2.3679,-2.3592,-2.3974,-2.408,-2.3998,-2.4245,-2.4545,-2.4983,-2.494,-2.4764,-2.4463,-2.4399,-2.4389,-2.4403,-2.4637,-2.4707,-2.4668,-2.5071,-2.5123,-2.4906,-2.5057,-2.5009,-2.4839,-2.4676,-2.4505,-2.4397,-2.4143,-2.3844,-2.3458,-2.3171,-2.276,-2.2268,-2.1993,-2.1828,-2.1658,-2.104,-2.0641,-2.0594,-2.0382,-2.0314,-2.0404,-2.0644,-2.0827,-2.0893,-2.1151,-2.1294,-2.1294,-2.1294,-2.1294,-2.1294,-2.1294,-2.1309,-2.1371,-2.1355,-2.1484,-2.1789,-2.1727,-2.1792,-2.2081,-2.2115,-2.2131,-2.2306,-2.2811,-2.335,-2.3754,-2.4218,-2.4542,-2.448,-2.4435,-2.4116,-2.3612,-2.34,-2.3265,-2.3336,-2.3319,-2.336,-2.3471,-2.3453,-2.3494,-2.3494,-2.3494,-2.3494,-2.3494,-2.3494,-2.3494,-2.3494,-2.3494,-2.3494,-2.3494,-2.3494,-2.3517,-2.3562,-2.3674,-2.3743,-2.381,-2.3917,-2.4018,-2.4135,-2.4266,-2.4373,-2.4479,-2.451,-2.4575,-2.4642,-2.466,-2.4676,-2.4723,-2.4783,-2.4856,-2.487,-2.4917,-2.4983,-2.3803,-2.3857,-2.4251,-2.4578,-2.4925,-2.5228,-2.5353,-2.5283,-2.5511,-2.5589,-2.5598,-2.5625,-2.5553,-2.5357,-2.5202,-2.5329,-2.5398,-2.5825,-2.6073,-2.6114,-2.6826,-2.7012,-2.6538,-2.6764,-2.6592,-2.6026,-2.5583,-2.5118,-2.4547,-2.4568,-2.463,-2.4684,-2.4679,-2.4531,-2.3996,-2.3377,-2.2834,-2.2148,-2.1505,-2.0834,-2.0387,-2.0255,-2.0273,-2.0384,-2.0574,-2.0791,-2.0957,-2.1167,-2.1326,-2.131,-2.1326,-2.1326,-2.131,-2.1357,-2.1422,-2.1406,-2.1374,-2.1665,-2.2281,-2.2394,-2.2622,-2.321,-2.3274,-2.3387,-2.3325,-2.3572,-2.4,-2.4878,-2.5079,-2.5212,-2.5005,-2.4649,-2.4296,-2.4138,-2.3533,-2.3225,-2.3228,-2.3252,-2.3265,-2.3378,-2.3407,-2.343,-2.3494,-2.3494,-2.3494,-2.3494,-2.3494,-2.3494,-2.3494,-2.3494,-2.3494,-2.3494,-2.3494,-2.3494,-2.3517,-2.3585,-2.3634,-2.3682,-2.3771,-2.3858,-2.3979,-2.4115,-2.4192,-2.4302,-2.4392,-2.4461,-2.4512,-2.4564,-2.458,-2.4629,-2.4676,-2.4738,-2.4764,-2.4875,-2.5036,-2.4333,-2.4468,-2.4737,-2.4884,-2.4897,-2.5243,-2.5421,-2.5484,-2.5647,-2.5597,-2.5421,-2.537,-2.5231,-2.5014,-2.497,-2.5084,-2.5306,-2.5733,-2.59,-2.5974,-2.6687,-2.6914,-2.6913,-2.7179,-2.734,-2.7159,-2.6976,-2.6538,-2.6028,-2.6079,-2.5773,-2.5155,-2.5207,-2.499,-2.4496,-2.4173,-2.3706,-2.3117,-2.2377,-2.1744,-2.1209,-2.0901,-2.0808,-2.0946,-2.0935,-2.1078,-2.1355,-2.2038,-2.2241,-2.1907,-2.1875,-2.1924,-2.2054,-2.2442,-2.2701,-2.2701,-2.2701,-2.2815,-2.3041,-2.3074,-2.319,-2.3439,-2.35,-2.356,-2.3624,-2.4005,-2.4503,-2.4868,-2.5471,-2.573,-2.5714,-2.5436,-2.5086,-2.4568,-2.3994,-2.3606,-2.358,-2.336,-2.3126,-2.3313,-2.3424,-2.3471,-2.3494,-2.3494,-2.3494,-2.3494,-2.3494,-2.3494,-2.3494,-2.3494,-2.3494,-2.3494,-2.3494,-2.3494,-2.3494,-2.3517,-2.3562,-2.3611,-2.37,-2.3771,-2.3858,-2.3958,-2.4019,-2.4153,-2.4247,-2.4284,-2.4321,-2.4375,-2.441,-2.4445,-2.4513,-2.4781,-2.4654,-2.5167,-2.551,-2.5214,-2.5569,-2.5734,-2.5635,-2.5436,-2.5652,-2.5684,-2.5663,-2.569,-2.565,-2.5441,-2.5388,-2.5256,-2.5083,-2.5165,-2.5306,-2.5548,-2.5857,-2.6013,-2.6168,-2.6913,-2.7449,-2.7659,-2.7831,-2.8052,-2.8264,-2.8141,-2.7748,-2.7186,-2.7244,-2.6735,-2.5856,-2.5905,-2.5645,-2.5177,-2.4855,-2.4512,-2.4089,-2.325,-2.2509,-2.1999,-2.1413,-2.1109,-2.1155,-2.1292,-2.1493,-2.1719,-2.2483,-2.2762,-2.2423,-2.2396,-2.2447,-2.2663,-2.3119,-2.3428,-2.3428,-2.3462,-2.361,-2.3805,-2.3837,-2.3937,-2.4153,-2.4181,-2.4172,-2.4229,-2.4677,-2.4912,-2.5131,-2.5501,-2.5954,-2.5999,-2.5967,-2.569,-2.5071,-2.444,-2.4127,-2.4188,-2.3873,-2.3624,-2.359,-2.3496,-2.3465,-2.3471,-2.3494,-2.3494,-2.3494,-2.3494,-2.3494,-2.3494,-2.3494,-2.3494,-2.3494,-2.3494,-2.3494,-2.3494,-2.3517,-2.3517,-2.3585,-2.3629,-2.3682,-2.375,-2.3813,-2.3896,-2.3996,-2.4074,-2.4094,-2.4133,-2.419,-2.4228,-2.4284,-2.469,-2.5057,-2.5312,-2.5768,-2.6134,-2.6529,-2.704,-2.7186,-2.692,-2.6599,-2.6633,-2.6353,-2.5955,-2.5918,-2.5963,-2.5869,-2.5861,-2.5779,-2.5786,-2.6115,-2.6251,-2.6177,-2.6552,-2.6764,-2.6956,-2.7952,-2.8597,-2.8839,-2.8746,-2.8856,-2.9157,-2.8895,-2.838,-2.7804,-2.782,-2.7526,-2.706,-2.6834,-2.659,-2.6272,-2.5645,-2.528,-2.4887,-2.3915,-2.3093,-2.2441,-2.186,-2.1396,-2.1154,-2.167,-2.202,-2.2039,-2.2492,-2.2764,-2.2744,-2.2771,-2.288,-2.3056,-2.3346,-2.3388,-2.3519,-2.3541,-2.3867,-2.4385,-2.4515,-2.4806,-2.5211,-2.5519,-2.5389,-2.5336,-2.5454,-2.5503,-2.5524,-2.5631,-2.5701,-2.5754,-2.5855,-2.5808,-2.5446,-2.4901,-2.4618,-2.4675,-2.4731,-2.4569,-2.4121,-2.3728,-2.3431,-2.3424,-2.3424,-2.3471,-2.3494,-2.3494,-2.3494,-2.3494,-2.3494,-2.3494,-2.3494,-2.3494,-2.3494,-2.3494,-2.3494,-2.3494,-2.3517,-2.3562,-2.3629,-2.3703,-2.375,-2.3834,-2.3896,-2.3955,-2.3976,-2.3996,-2.4054,-2.4258,-2.4409,-2.4892,-2.543,-2.5857,-2.6302,-2.684,-2.6767,-2.6986,-2.7124,-2.7126,-2.7041,-2.7189,-2.6967,-2.6488,-2.6463,-2.638,-2.6249,-2.6237,-2.6372,-2.6468,-2.6685,-2.6745,-2.6683,-2.7274,-2.7569,-2.7645,-2.8117,-2.8459,-2.8578,-2.8799,-2.898,-2.9204,-2.9171,-2.8937,-2.8507,-2.8408,-2.8144,-2.7581,-2.7088,-2.6793,-2.6595,-2.6045,-2.5551,-2.5071,-2.4653,-2.416,-2.359,-2.3003,-2.2658,-2.2534,-2.252,-2.2468,-2.2512,-2.3023,-2.3224,-2.3048,-2.3041,-2.3234,-2.367,-2.4276,-2.4681,-2.4756,-2.4846,-2.5001,-2.5211,-2.526,-2.5324,-2.5567,-2.5616,-2.5616,-2.5616,-2.5616,-2.5616,-2.5616,-2.5637,-2.5637,-2.5659,-2.5717,-2.5753,-2.5822,-2.5363,-2.5077,-2.5154,-2.4999,-2.4615,-2.4153,-2.3929,-2.3706,-2.3382,-2.3307,-2.3336,-2.3407,-2.3448,-2.3448,-2.3476,-2.3494,-2.3494,-2.3494,-2.3494,-2.3494,-2.3494,-2.3494,-2.3494,-2.3494,-2.3539,-2.3607,-2.3678,-2.3725,-2.3771,-2.3834,-2.3855,-2.3876,-2.3876,-2.406,-2.4304,-2.4691,-2.5214,-2.5755,-2.6277,-2.6894,-2.7529,-2.7344,-2.7512,-2.7654,-2.7533,-2.7451,-2.7515,-2.7297,-2.6846,-2.6798,-2.6724,-2.6565,-2.6553,-2.6673,-2.6923,-2.7128,-2.7224,-2.7272,-2.792,-2.82,-2.8161,-2.8313,-2.8388,-2.8368,-2.8543,-2.8783,-2.8977,-2.9226,-2.9296,-2.9055,-2.9012,-2.8717,-2.8113,-2.7706,-2.7242,-2.6849,-2.6427,-2.5936,-2.5388,-2.5145,-2.4783,-2.4413,-2.3886,-2.3483,-2.3229,-2.2989,-2.2769,-2.2661,-2.2979,-2.3156,-2.3197,-2.333,-2.3615,-2.4021,-2.4658,-2.5146,-2.5301,-2.5416,-2.5508,-2.5562,-2.5584,-2.5616,-2.5616,-2.5616,-2.5616,-2.5616,-2.5616,-2.5616,-2.5616,-2.5616,-2.5616,-2.5616,-2.5621,-2.5733,-2.5828,-2.5667,-2.556,-2.5631,-2.5402,-2.512,-2.4718,-2.4306,-2.3885,-2.3605,-2.3249,-2.3252,-2.3336,-2.3383,-2.3448,-2.3494,-2.3494,-2.3494,-2.3494,-2.3494,-2.3494,-2.3494,-2.3494,-2.3494,-2.3494,-2.3517,-2.3585,-2.3678,-2.37,-2.3747,-2.3792,-2.3834,-2.3855,-2.3873,-2.429,-2.4602,-2.5084,-2.5604,-2.6457,-2.7148,-2.78,-2.8365,-2.8053,-2.8486,-2.8498,-2.8174,-2.7789,-2.7765,-2.7464,-2.7019,-2.6971,-2.6971,-2.6983,-2.6971,-2.7031,-2.7164,-2.7596,-2.7765,-2.7849,-2.8198,-2.856,-2.8638,-2.8642,-2.8425,-2.8308,-2.8166,-2.8264,-2.8587,-2.9022,-2.9324,-2.9442,-2.9442,-2.9321,-2.8774,-2.8563,-2.8113,-2.7228,-2.6891,-2.6469,-2.595,-2.5374,-2.5117,-2.4994,-2.4432,-2.3935,-2.3385,-2.3174,-2.2898,-2.2597,-2.252,-2.2678,-2.3068,-2.3477,-2.3776,-2.409,-2.4533,-2.491,-2.5068,-2.5262,-2.5432,-2.5578,-2.5578,-2.5616,-2.5616,-2.5616,-2.5616,-2.5616,-2.5616,-2.5616,-2.5616,-2.5616,-2.5616,-2.5616,-2.5616,-2.5616,-2.5654,-2.5746,-2.5983,-2.6177,-2.5916,-2.5639,-2.5411,-2.467,-2.3915,-2.3892,-2.3414,-2.3207,-2.3265,-2.3354,-2.3424,-2.3494,-2.3494,-2.3494,-2.3494,-2.3494,-2.3494,-2.3494,-2.3494,-2.3494,-2.3494,-2.3517,-2.3544,-2.3656,-2.3678,-2.3743,-2.3771,-2.3813,-2.3813,-2.3958,-2.4378,-2.4886,-2.5383,-2.6176,-2.7246,-2.7972,-2.848,-2.8732,-2.8378,-2.851,-2.851,-2.8438,-2.8306,-2.8306,-2.7993,-2.7548,-2.7512,-2.7512,-2.7512,-2.7512,-2.7717,-2.8077,-2.8198,-2.8306,-2.833,-2.8438,-2.851,-2.8578,-2.8548,-2.8369,-2.8047,-2.7467,-2.751,-2.8105,-2.8495,-2.8894,-2.9415,-2.9477,-2.938,-2.9364,-2.8914,-2.8577,-2.8141,-2.7298,-2.6778,-2.6512,-2.5964,-2.5655,-2.557,-2.505,-2.4685,-2.446,-2.3617,-2.3083,-2.2865,-2.247,-2.2495,-2.2934,-2.3363,-2.364,-2.3885,-2.4333,-2.4645,-2.4871,-2.5146,-2.5371,-2.5432,-2.5524,-2.5578,-2.5616,-2.5616,-2.5616,-2.5616,-2.5616,-2.5616,-2.5616,-2.5616,-2.5616,-2.5616,-2.5616,-2.5616,-2.5616,-2.5787,-2.599,-2.6154,-2.6197,-2.6034,-2.5625,-2.4873,-2.4325,-2.3857,-2.3414,-2.3065,-2.3186,-2.3289,-2.336,-2.3471,-2.3494,-2.3494,-2.3494,-2.3494,-2.3494,-2.3494,-2.3494,-2.3494,-2.3494,-2.3517,-2.3539,-2.3629,-2.3696,-2.3765,-2.3813,-2.3792,-2.3792,-2.4046,-2.4393,-2.4994,-2.5679,-2.669,-2.7705,-2.8239,-2.8748,-2.8842,-2.851,-2.851,-2.851,-2.851,-2.851,-2.851,-2.833,-2.8089,-2.8053,-2.8065,-2.8053,-2.8065,-2.8222,-2.8486,-2.851,-2.851,-2.851,-2.851,-2.851,-2.8474,-2.8258,-2.8065,-2.7754,-2.7238,-2.7284,-2.7776,-2.817,-2.8688,-2.9226,-2.9352,-2.9477,-2.9546,-2.9251,-2.8956,-2.8605,-2.8043,-2.7439,-2.7158,-2.6624,-2.6273,-2.6245,-2.5683,-2.5219,-2.4966,-2.4193,-2.373,-2.3154,-2.2507,-2.237,-2.2752,-2.3023,-2.329,-2.3641,-2.3997,-2.4359,-2.463,-2.491,-2.5162,-2.5355,-2.5432,-2.554,-2.5578,-2.5616,-2.5616,-2.5616,-2.5616,-2.5616,-2.5616,-2.5616,-2.5616,-2.5616,-2.5616,-2.5616,-2.5616,-2.5712,-2.5824,-2.5954,-2.6118,-2.6129,-2.5799,-2.5326,-2.4726,-2.4213,-2.3633,-2.3267,-2.3182,-2.3241,-2.3378,-2.3471,-2.3494,-2.3494,-2.3494,-2.3494,-2.3494,-2.3494,-2.3494,-2.3494,-2.3494,-2.3517,-2.3517,-2.3585,-2.3674,-2.3721,-2.3768,-2.3768,-2.3858,-2.4111,-2.4581,-2.5393,-2.623,-2.72,-2.7937,-2.8476,-2.8785,-2.8881,-2.851,-2.851,-2.851,-2.851,-2.851,-2.851,-2.8486,-2.8498,-2.8462,-2.8462,-2.8462,-2.8498,-2.8462,-2.851,-2.851,-2.851,-2.851,-2.851,-2.851,-2.839,-2.8114,-2.7851,-2.7692,-2.7441,-2.7519,-2.7712,-2.8107,-2.8635,-2.9214,-2.9467,-2.9603,-2.9799,-2.9764,-2.9434,-2.9083,-2.8731,-2.8366,-2.7846,-2.7242,-2.6933,-2.6807,-2.6315,-2.5809,-2.5416,-2.4952,-2.4165,-2.3294,-2.262,-2.2405,-2.2577,-2.2675,-2.2963,-2.3408,-2.364,-2.3967,-2.4343,-2.463,-2.4855,-2.5201,-2.5317,-2.5432,-2.5524,-2.5578,-2.5616,-2.5616,-2.5616,-2.5616,-2.5616,-2.5616,-2.5616,-2.5616,-2.5616,-2.5616,-2.5616,-2.5616,-2.5621,-2.5717,-2.5954,-2.6187,-2.621,-2.5782,-2.5274,-2.4849,-2.4293,-2.3767,-2.392,-2.389,-2.3925,-2.3958,-2.388,-2.3743,-2.3494,-2.3494,-2.3494,-2.3494,-2.3494,-2.3494,-2.3494,-2.3494,-2.3517,-2.358,-2.3629,-2.3678,-2.3682,-2.3743,-2.3887,-2.4136,-2.4802,-2.5757,-2.6585,-2.7464,-2.8117,-2.8662,-2.8737,-2.881,-2.851,-2.851,-2.851,-2.851,-2.851,-2.851,-2.851,-2.851,-2.851,-2.851,-2.851,-2.851,-2.851,-2.851,-2.851,-2.851,-2.851,-2.851,-2.851,-2.8498,-2.8438,-2.8186,-2.7831,-2.7532,-2.7653,-2.8028,-2.8209,-2.8817,-2.955,-2.9808,-3.0213,-3.0623,-3.0243,-3.0071,-2.9933,-2.9195,-2.8661,-2.8394,-2.7888,-2.7579,-2.7453,-2.6961,-2.6526,-2.6245,-2.5458,-2.4376,-2.3364,-2.2971,-2.2752,-2.2583,-2.2552,-2.2723,-2.3053,-2.326,-2.3566,-2.3925,-2.4245,-2.4533,-2.4871,-2.5162,-2.5371,-2.5448,-2.5524,-2.5616,-2.5616,-2.5616,-2.5616,-2.5616,-2.5616,-2.5616,-2.5616,-2.5616,-2.5616,-2.5616,-2.5616,-2.5616,-2.5621,-2.5733,-2.5937,-2.6002,-2.566,-2.5247,-2.5355,-2.4832,-2.4591,-2.4701,-2.4681,-2.468,-2.4534,-2.4342,-2.4088,-2.3845,-2.3743,-2.3743,-2.3494,-2.3494,-2.3494,-2.3494,-2.3494,-2.3494,-2.3539,-2.358,-2.3611,-2.3656,-2.3718,-2.3929,-2.4302,-2.5218,-2.6206,-2.6968,-2.7659,-2.816,-2.8562,-2.8662,-2.8737,-2.8203,-2.8203,-2.8203,-2.8271,-2.8339,-2.8339,-2.8431,-2.851,-2.851,-2.851,-2.851,-2.851,-2.851,-2.851,-2.851,-2.851,-2.851,-2.851,-2.851,-2.851,-2.8498,-2.8421,-2.8307,-2.7985,-2.7998,-2.8222,-2.829,-2.8866,-2.9434,-2.988,-3.0132,-3.0787,-3.0577,-3.0429,-3.0415,-2.9778,-2.9448,-2.9055,-2.8521,-2.8197,-2.8113,-2.7593,-2.7045,-2.6652,-2.5669,-2.4601,-2.4067,-2.335,-2.3033,-2.2757,-2.2555,-2.2555,-2.2768,-2.2949,-2.3157,-2.3523,-2.3824,-2.4162,-2.4533,-2.4871,-2.5146,-2.5317,-2.5432,-2.5524,-2.5562,-2.5616,-2.5616,-2.5616,-2.5616,-2.5616,-2.5616,-2.5616,-2.5616,-2.5616,-2.5616,-2.5616,-2.56,-2.5642,-2.5791,-2.5941,-2.5749,-2.5545,-2.5363,-2.5171,-2.4999,-2.4913,-2.4923,-2.4933,-2.5103,-2.4908,-2.4619,-2.436,-2.4177,-2.3952,-2.3618,-2.3494,-2.3494,-2.3494,-2.3494,-2.3494,-2.3517,-2.3539,-2.3562,-2.3715,-2.388,-2.4234,-2.4712,-2.5703,-2.6516,-2.7054,-2.7618,-2.8136,-2.8458,-2.8562,-2.8637,-2.78,-2.7881,-2.7881,-2.795,-2.8179,-2.8179,-2.8339,-2.851,-2.851,-2.851,-2.851,-2.8498,-2.8431,-2.8431,-2.8351,-2.8431,-2.8431,-2.851,-2.851,-2.851,-2.851,-2.8474,-2.8414,-2.8373,-2.8317,-2.825,-2.8387,-2.8804,-2.9313,-2.9626,-3.0135,-3.0537,-3.0733,-3.0636,-3.0419,-3.0308,-3.0031,-2.9442,-2.9069,-2.883,-2.8731,-2.8212,-2.7593,-2.6722,-2.602,-2.5205,-2.4727,-2.4025,-2.3336,-2.3097,-2.2606,-2.2498,-2.2555,-2.2678,-2.2799,-2.3172,-2.3436,-2.3739,-2.4162,-2.4533,-2.4871,-2.5162,-2.5285,-2.5378,-2.5448,-2.548,-2.5464,-2.5486,-2.5524,-2.5578,-2.5578,-2.5578,-2.5578,-2.5616,-2.5616,-2.5616,-2.5616,-2.5659,-2.577,-2.5828,-2.5786,-2.5667,-2.561,-2.5514,-2.5323,-2.5186,-2.5197,-2.5265,-2.5418,-2.5462,-2.5218,-2.4807,-2.4555,-2.4041,-2.3654,-2.3547,-2.3529,-2.3708,-2.3672,-2.382,-2.3873,-2.4195,-2.4343,-2.4034,-2.42,-2.4647,-2.5254,-2.6172,-2.6841,-2.7199,-2.7637,-2.8157,-2.838,-2.8484,-2.8554,-2.7441,-2.7522,-2.7615,-2.7765,-2.8179,-2.8179,-2.8259,-2.851,-2.851,-2.851,-2.851,-2.8351,-2.8259,-2.8259,-2.8042,-2.8111,-2.8259,-2.8431,-2.851,-2.851,-2.851,-2.851,-2.8431,-2.8431,-2.85,-2.8687,-2.8684,-2.9009,-2.9581,-2.9972,-3.0303,-3.1017,-3.1043,-3.0742,-3.0446,-3.0325,-3.0021,-2.9498,-2.9372,-2.9364,-2.9223,-2.8731,-2.7945,-2.7017,-2.6483,-2.5907,-2.5177,-2.4769,-2.4193,-2.3238,-2.2999,-2.2738,-2.2508,-2.2473,-2.2629,-2.2799,-2.3083,-2.3348,-2.3724,-2.412,-2.4451,-2.4695,-2.4887,-2.5059,-2.5084,-2.5108,-2.5171,-2.524,-2.5339,-2.5432,-2.5416,-2.5524,-2.5578,-2.5616,-2.5616,-2.5616,-2.5616,-2.5637,-2.5675,-2.5733,-2.5775,-2.5779,-2.573,-2.5775,-2.5731,-2.5698,-2.5812,-2.5829,-2.5919,-2.5959,-2.5858,-2.5385,-2.4903,-2.4266,-2.3636,-2.3618,-2.3636,-2.4011,-2.4195,-2.4534,-2.4712,-2.5194,-2.5265,-2.5015,-2.498,-2.5319,-2.5997,-2.6728,-2.7228,-2.7701,-2.7987,-2.8219,-2.83,-2.8398,-2.8585,-2.6857,-2.6857,-2.7126,-2.7441,-2.7765,-2.7834,-2.8099,-2.8419,-2.8419,-2.8419,-2.8431,-2.8271,-2.8179,-2.8179,-2.795,-2.803,-2.8179,-2.8259,-2.8431,-2.851,-2.8431,-2.8339,-2.8351,-2.8283,-2.8351,-2.8395,-2.8554,-2.8882,-2.9496,-2.9626,-3.0114,-3.0581,-3.0782,-3.069,-3.0389,-3.035,-2.9862,-2.9398,-2.9352,-2.9477,-2.9498,-2.8951,-2.8183,-2.7523,-2.6933,-2.6329,-2.564,-2.5093,-2.4727,-2.4151,-2.3772,-2.3294,-2.2907,-2.2715,-2.271,-2.264,-2.2737,-2.3008,-2.329,-2.3681,-2.3937,-2.4328,-2.4527,-2.4664,-2.4751,-2.4838,-2.4838,-2.4989,-2.5224,-2.5355,-2.5378,-2.5524,-2.5578,-2.5616,-2.5616,-2.5616,-2.5616,-2.5616,-2.5637,-2.5659,-2.5659,-2.5717,-2.5795,-2.5875,-2.6049,-2.6225,-2.6365,-2.6387,-2.6343,-2.633,-2.626,-2.5806,-2.5253,-2.4676,-2.4147,-2.4082,-2.4106,-2.4432,-2.4795,-2.5134,-2.5408,-2.5818,-2.6068,-2.6086,-2.6139,-2.6193,-2.6586,-2.7246,-2.7727,-2.8075,-2.8156,-2.8209,-2.8264,-2.8354,-2.8523,-2.6385,-2.6268,-2.6644,-2.7126,-2.7441,-2.7522,-2.7846,-2.8271,-2.8191,-2.8191,-2.8363,-2.8191,-2.8018,-2.8018,-2.795,-2.7857,-2.8087,-2.8087,-2.8191,-2.8271,-2.8203,-2.8099,-2.8111,-2.8042,-2.8042,-2.8191,-2.8179,-2.8407,-2.904,-2.9184,-2.9496,-2.9947,-3.0469,-3.039,-2.9913,-3.0115,-2.9645,-2.9323,-2.9099,-2.9352,-2.9352,-2.9063,-2.8591,-2.7987,-2.7326,-2.6736,-2.6118,-2.5542,-2.5188,-2.4836,-2.4484,-2.3969,-2.3477,-2.3322,-2.3118,-2.2824,-2.2634,-2.2706,-2.2949,-2.3201,-2.3508,-2.3809,-2.4036,-2.4204,-2.4343,-2.4385,-2.4549,-2.4759,-2.5029,-2.524,-2.5301,-2.5432,-2.5562,-2.5616,-2.5616,-2.5616,-2.5616,-2.5616,-2.5616,-2.5616,-2.5616,-2.5637,-2.5733,-2.5717,-2.5881,-2.5921,-2.6066,-2.6295,-2.6286,-2.6471,-2.6362,-2.6014,-2.5534,-2.5103,-2.4759,-2.4746,-2.4842,-2.508,-2.5539,-2.5982,-2.615,-2.6328,-2.6639,-2.6996,-2.7121,-2.721,-2.7496,-2.762,-2.7932,-2.8146,-2.8182,-2.8209,-2.8237,-2.8282,-2.8407,-2.6052,-2.6185,-2.655,-2.6962,-2.7441,-2.7522,-2.7696,-2.7962,-2.7962,-2.7962,-2.7891,-2.7672,-2.7557,-2.7557,-2.7557,-2.7568,-2.7684,-2.7857,-2.7962,-2.8042,-2.7962,-2.7926,-2.7926,-2.7881,-2.7728,-2.7749,-2.7808,-2.8259,-2.8548,-2.8682,-2.9028,-2.9406,-2.9756,-2.9846,-2.9503,-2.9763,-2.9615,-2.9147,-2.9077,-2.9289,-2.9526,-2.9476,-2.9111,-2.8535,-2.7917,-2.7227,-2.6554,-2.6006,-2.5554,-2.5085,-2.4962,-2.4591,-2.4124,-2.3974,-2.3955,-2.3632,-2.3135,-2.2523,-2.2821,-2.2989,-2.3141,-2.3423,-2.3451,-2.3508,-2.3681,-2.3967,-2.4135,-2.4188,-2.4614,-2.495,-2.5146,-2.5301,-2.5432,-2.5524,-2.5562,-2.5578,-2.5616,-2.5616,-2.5616,-2.5616,-2.5616,-2.5616,-2.5637,-2.5654,-2.5637,-2.5733,-2.5811,-2.5994,-2.6208,-2.6383,-2.6387,-2.599,-2.5841,-2.5471,-2.5357,-2.5323,-2.5614,-2.58,-2.6278,-2.6766,-2.6908,-2.7068,-2.754,-2.787,-2.7942,-2.7888,-2.7897,-2.7986,-2.8146,-2.8182,-2.8182,-2.8182,-2.8182,-2.8263,-2.8478,-2.5633,-2.5695,-2.6302,-2.6798,-2.7126,-2.729,-2.7545,-2.78,-2.7708,-2.7613,-2.7378,-2.7195,-2.7024,-2.6955,-2.6944,-2.7174,-2.7452,-2.7615,-2.7788,-2.7788,-2.7684,-2.7556,-2.7242,-2.7172,-2.7023,-2.6925,-2.6831,-2.6905,-2.7418,-2.804,-2.8407,-2.8688,-2.9069,-2.9145,-2.9026,-2.9365,-2.9125,-2.8794,-2.8754,-2.9099,-2.9415,-2.9435,-2.9184,-2.8568,-2.7861,-2.7248,-2.6706,-2.612,-2.5741,-2.5497,-2.5486,-2.5224,-2.4797,-2.4609,-2.4512,-2.4047,-2.3703,-2.349,-2.3516,-2.3283,-2.3252,-2.3264,-2.3212,-2.3054,-2.3231,-2.3551,-2.3824,-2.3952,-2.4343,-2.467,-2.4895,-2.5107,-2.5317,-2.5432,-2.547,-2.5627,-2.5643,-2.5632,-2.5616,-2.5616,-2.5648,-2.5729,-2.5729,-2.5632,-2.5632,-2.5637,-2.5696,-2.5807,-2.601,-2.6208,-2.6118,-2.5868,-2.5836,-2.5833,-2.5854,-2.5882,-2.6381,-2.6676,-2.7073,-2.7465,-2.7619,-2.7877,-2.8101,-2.8182,-2.8093,-2.811,-2.8182,-2.8182,-2.8182,-2.8182,-2.8182,-2.8182,-2.8235,-2.8762,-2.9094,-2.506,-2.5187,-2.6163,-2.6727,-2.6891,-2.7138,-2.7302,-2.7521,-2.7325,-2.7034,-2.6753,-2.6593,-2.6493,-2.6541,-2.661,-2.6852,-2.7441,-2.7441,-2.7545,-2.7603,-2.7371,-2.7047,-2.6804,-2.6472,-2.6239,-2.59,-2.6074,-2.6128,-2.6403,-2.6921,-2.7422,-2.7885,-2.8288,-2.8463,-2.859,-2.8813,-2.8788,-2.833,-2.8451,-2.878,-2.9099,-2.9162,-2.8899,-2.8401,-2.7704,-2.7069,-2.6715,-2.605,-2.577,-2.5851,-2.5837,-2.5588,-2.527,-2.5196,-2.5064,-2.4807,-2.4582,-2.462,-2.4402,-2.407,-2.3672,-2.3355,-2.3094,-2.2754,-2.3008,-2.3304,-2.3551,-2.3696,-2.4051,-2.4385,-2.4655,-2.4871,-2.5029,-2.5185,-2.5301,-2.5529,-2.5766,-2.5895,-2.6176,-2.6458,-2.6393,-2.6037,-2.5972,-2.5729,-2.5648,-2.5632,-2.5616,-2.5654,-2.5844,-2.6082,-2.608,-2.5948,-2.6095,-2.6173,-2.6233,-2.6454,-2.697,-2.7273,-2.766,-2.7864,-2.7805,-2.789,-2.8035,-2.8099,-2.8154,-2.8182,-2.8182,-2.8182,-2.8182,-2.8182,-2.8182,-2.8182,-2.836,-2.8941,-2.9476,-2.4355,-2.4902,-2.608,-2.6693,-2.6869,-2.7138,-2.6944,-2.669,-2.6599,-2.6311,-2.5873,-2.575,-2.6023,-2.6278,-2.6324,-2.6588,-2.7162,-2.7219,-2.7174,-2.7025,-2.676,-2.653,-2.6276,-2.5922,-2.5693,-2.5589,-2.5551,-2.5585,-2.5724,-2.5754,-2.6384,-2.707,-2.7459,-2.7932,-2.8144,-2.8317,-2.8359,-2.8035,-2.8053,-2.8249,-2.8509,-2.8638,-2.8583,-2.8325,-2.7633,-2.7028,-2.7065,-2.6131,-2.5715,-2.5825,-2.5839,-2.5839,-2.5617,-2.5616,-2.5502,-2.55,-2.5458,-2.5444,-2.53,-2.4596,-2.3794,-2.3237,-2.2767,-2.2555,-2.2766,-2.2873,-2.3127,-2.3436,-2.3696,-2.4028,-2.4307,-2.4523,-2.4801,-2.5264,-2.5559,-2.5847,-2.6142,-2.639,-2.6687,-2.7211,-2.7154,-2.6694,-2.6393,-2.6199,-2.5729,-2.5681,-2.5616,-2.5654,-2.5824,-2.6026,-2.617,-2.6198,-2.6404,-2.6489,-2.6539,-2.6791,-2.6965,-2.7106,-2.7382,-2.7539,-2.7612,-2.7748,-2.7922,-2.8071,-2.8126,-2.8154,-2.8182,-2.8182,-2.8182,-2.8182,-2.8217,-2.8342,-2.861,-2.9137,-2.9547,-2.4403,-2.4547,-2.5509,-2.5994,-2.6276,-2.6588,-2.6473,-2.6048,-2.5991,-2.5704,-2.521,-2.4958,-2.505,-2.5417,-2.5543,-2.5807,-2.6244,-2.6301,-2.6335,-2.6267,-2.6083,-2.5819,-2.5566,-2.5337,-2.5084,-2.4889,-2.4809,-2.4774,-2.474,-2.4935,-2.5447,-2.6105,-2.6738,-2.7308,-2.7616,-2.771,-2.7557,-2.7498,-2.7566,-2.7643,-2.7829,-2.7894,-2.796,-2.8025,-2.6704,-2.6409,-2.6519,-2.566,-2.5521,-2.555,-2.566,-2.5633,-2.5647,-2.5647,-2.5688,-2.5784,-2.5784,-2.5839,-2.5795,-2.505,-2.4207,-2.3245,-2.2706,-2.2505,-2.2712,-2.2735,-2.2814,-2.3024,-2.3334,-2.3776,-2.4297,-2.4532,-2.4872,-2.545,-2.5862,-2.6167,-2.6509,-2.6777,-2.7166,-2.7634,-2.7541,-2.7227,-2.6985,-2.6717,-2.6183,-2.5713,-2.5664,-2.5691,-2.586,-2.597,-2.6099,-2.6241,-2.6399,-2.6468,-2.652,-2.6674,-2.6825,-2.694,-2.7103,-2.7261,-2.7417,-2.7642,-2.7789,-2.794,-2.8071,-2.8126,-2.8154,-2.8182,-2.8182,-2.8182,-2.8378,-2.8627,-2.8994,-2.9351,-2.9922,-2.4371,-2.4377,-2.4943,-2.5384,-2.5735,-2.6086,-2.5945,-2.5532,-2.5474,-2.5187,-2.4682,-2.4349,-2.4464,-2.4809,-2.4958,-2.5256,-2.5693,-2.5796,-2.5761,-2.5693,-2.5566,-2.5256,-2.4981,-2.474,-2.4568,-2.4235,-2.4189,-2.4246,-2.4303,-2.4361,-2.4992,-2.5735,-2.6228,-2.6711,-2.7088,-2.6919,-2.6675,-2.6779,-2.6741,-2.6824,-2.7002,-2.7015,-2.7082,-2.7061,-2.6065,-2.5712,-2.5792,-2.532,-2.4978,-2.5162,-2.5315,-2.5327,-2.5341,-2.5397,-2.5481,-2.5578,-2.5674,-2.5784,-2.5739,-2.53,-2.4624,-2.392,-2.3285,-2.3084,-2.2989,-2.3083,-2.3363,-2.3447,-2.3572,-2.3798,-2.4481,-2.4682,-2.4925,-2.5455,-2.5786,-2.6101,-2.6798,-2.7193,-2.766,-2.8072,-2.7886,-2.7805,-2.763,-2.734,-2.6555,-2.6005,-2.5648,-2.5691,-2.586,-2.597,-2.6043,-2.6151,-2.6293,-2.6329,-2.6399,-2.6553,-2.669,-2.664,-2.6808,-2.7006,-2.7181,-2.7413,-2.7654,-2.7818,-2.794,-2.8071,-2.8126,-2.8182,-2.8182,-2.8182,-2.8413,-2.8645,-2.9155,-2.9583,-3.0547,-2.4055,-2.4321,-2.457,-2.5017,-2.5349,-2.5638,-2.5429,-2.4969,-2.4923,-2.4694,-2.4315,-2.42,-2.4418,-2.4774,-2.4797,-2.505,-2.5371,-2.552,-2.5532,-2.5394,-2.5096,-2.4912,-2.474,-2.4499,-2.4315,-2.4223,-2.4189,-2.4189,-2.42,-2.4476,-2.5061,-2.5532,-2.5919,-2.6147,-2.6662,-2.617,-2.5934,-2.6009,-2.5812,-2.591,-2.5988,-2.6057,-2.6126,-2.6108,-2.5413,-2.5103,-2.5288,-2.4793,-2.4553,-2.4745,-2.4924,-2.4946,-2.4926,-2.5116,-2.5244,-2.5425,-2.5619,-2.5729,-2.5851,-2.5325,-2.4986,-2.4667,-2.4006,-2.3773,-2.4,-2.407,-2.3978,-2.396,-2.423,-2.4471,-2.4728,-2.4854,-2.5154,-2.5538,-2.5899,-2.6302,-2.701,-2.7565,-2.7981,-2.8392,-2.8411,-2.8394,-2.8255,-2.7962,-2.7033,-2.6361,-2.5826,-2.5756,-2.6122,-2.6307,-2.6492,-2.6619,-2.678,-2.678,-2.6849,-2.6609,-2.6547,-2.6465,-2.6588,-2.6911,-2.7026,-2.7117,-2.7369,-2.7642,-2.7836,-2.7986,-2.8099,-2.8182,-2.8182,-2.82,-2.836,-2.8627,-2.9173,-2.9922,-3.0975,-2.4146,-2.4221,-2.4306,-2.4471,-2.4665,-2.4986,-2.4889,-2.4487,-2.443,-2.4338,-2.4223,-2.4189,-2.4246,-2.4407,-2.4476,-2.459,-2.4705,-2.4705,-2.4705,-2.4705,-2.4545,-2.4464,-2.4372,-2.4326,-2.4189,-2.4189,-2.4189,-2.4189,-2.42,-2.4533,-2.5027,-2.5486,-2.5647,-2.5589,-2.5593,-2.5354,-2.5327,-2.5144,-2.5111,-2.5229,-2.53,-2.5288,-2.5417,-2.5673,-2.4725,-2.4524,-2.4989,-2.4262,-2.3989,-2.4292,-2.4412,-2.4429,-2.4464,-2.4603,-2.4892,-2.5131,-2.5411,-2.5688,-2.5839,-2.5652,-2.5399,-2.5005,-2.4605,-2.4261,-2.4168,-2.4154,-2.419,-2.4311,-2.4461,-2.4704,-2.4955,-2.504,-2.5401,-2.6068,-2.6505,-2.6887,-2.7429,-2.7834,-2.8247,-2.8669,-2.8849,-2.881,-2.871,-2.8688,-2.798,-2.7527,-2.7106,-2.6918,-2.7157,-2.7271,-2.7441,-2.7486,-2.7564,-2.7482,-2.7388,-2.7189,-2.6978,-2.6932,-2.6945,-2.7023,-2.708,-2.7181,-2.7287,-2.7701,-2.7794,-2.79,-2.8014,-2.8099,-2.8154,-2.8235,-2.8485,-2.893,-2.9601,-3.0493,-3.1564,-2.4189,-2.4189,-2.4189,-2.4189,-2.4246,-2.4533,-2.4476,-2.4223,-2.4189,-2.4189,-2.4189,-2.4189,-2.42,-2.42,-2.4189,-2.4189,-2.4189,-2.42,-2.4212,-2.4189,-2.42,-2.4235,-2.4223,-2.4189,-2.4189,-2.4189,-2.4189,-2.42,-2.4246,-2.4579,-2.5107,-2.5543,-2.552,-2.513,-2.4906,-2.4749,-2.4742,-2.4571,-2.4611,-2.4743,-2.4743,-2.4719,-2.4779,-2.4716,-2.4309,-2.3838,-2.4,-2.3815,-2.3327,-2.3631,-2.3787,-2.3844,-2.3955,-2.4164,-2.4478,-2.4778,-2.5188,-2.5522,-2.5729,-2.5825,-2.5558,-2.5374,-2.4882,-2.4727,-2.4751,-2.4878,-2.4864,-2.4836,-2.4695,-2.4958,-2.5321,-2.542,-2.5682,-2.6375,-2.6587,-2.6953,-2.7276,-2.7615,-2.8076,-2.8527,-2.895,-2.8997,-2.9157,-2.9167,-2.8935,-2.8692,-2.8466,-2.8306,-2.8054,-2.8054,-2.8111,-2.8127,-2.8052,-2.7928,-2.7869,-2.7827,-2.7597,-2.7416,-2.7437,-2.7491,-2.7657,-2.7838,-2.7809,-2.7757,-2.7966,-2.808,-2.797,-2.7996,-2.8099,-2.8403,-2.8823,-2.9358,-3.0047,-3.0796,-3.1617,-2.4189,-2.4189,-2.4189,-2.4189,-2.42,-2.4246,-2.4212,-2.4189,-2.4189,-2.4189,-2.4189,-2.4189,-2.4189,-2.4189,-2.4189,-2.4189,-2.4189,-2.4189,-2.4189,-2.4189,-2.4189,-2.4189,-2.4189,-2.4189,-2.4189,-2.4189,-2.4189,-2.4212,-2.4303,-2.4855,-2.5383,-2.5451,-2.5164,-2.4774,-2.4464,-2.4303,-2.4342,-2.4284,-2.4334,-2.4394,-2.4406,-2.423,-2.4295,-2.4083,-2.3708,-2.3382,-2.3347,-2.3121,-2.2946,-2.3027,-2.3233,-2.3308,-2.3513,-2.3844,-2.4099,-2.4421,-2.4878,-2.5286,-2.5564,-2.5619,-2.5784,-2.5685,-2.5739,-2.5823,-2.5725,-2.5542,-2.5486,-2.5514,-2.5486,-2.564,-2.5863,-2.5835,-2.5835,-2.615,-2.6244,-2.6525,-2.6855,-2.7218,-2.769,-2.8171,-2.8732,-2.9009,-2.9488,-2.9632,-2.9442,-2.948,-2.9189,-2.8962,-2.8728,-2.8509,-2.8509,-2.851,-2.8421,-2.8281,-2.8281,-2.851,-2.8241,-2.8061,-2.8139,-2.8196,-2.8372,-2.8297,-2.8048,-2.7945,-2.8228,-2.8262,-2.7959,-2.7922,-2.8053,-2.8429,-2.8742,-2.9162,-2.9654,-3.0279,-3.1028,-2.4189,-2.4189,-2.4189,-2.4189,-2.4189,-2.4189,-2.4189,-2.4189,-2.4189,-2.4189,-2.4189,-2.4189,-2.4177,-2.4189,-2.4189,-2.4189,-2.4177,-2.4189,-2.4189,-2.4189,-2.4189,-2.4189,-2.4189,-2.4189,-2.4189,-2.4189,-2.4189,-2.42,-2.4315,-2.4923,-2.4923,-2.4625,-2.482,-2.4556,-2.4349,-2.4189,-2.4189,-2.42,-2.42,-2.4299,-2.4184,-2.3927,-2.3945,-2.3812,-2.323,-2.2965,-2.3026,-2.2738,-2.2629,-2.2787,-2.2848,-2.2934,-2.31,-2.3424,-2.3734,-2.4305,-2.4708,-2.5005,-2.523,-2.5425,-2.5592,-2.5729,-2.5784,-2.5893,-2.5893,-2.5893,-2.5893,-2.5893,-2.5893,-2.5893,-2.5893,-2.5893,-2.5948,-2.6002,-2.6096,-2.6326,-2.6606,-2.6907,-2.7423,-2.8024,-2.8542,-2.9059,-2.9531,-2.9694,-2.9581,-2.9782,-2.9805,-2.9545,-2.9394,-2.9118,-2.8988,-2.9007,-2.9023,-2.8925,-2.916,-2.9404,-2.9046,-2.8753,-2.878,-2.8714,-2.8527,-2.8398,-2.8123,-2.7998,-2.7978,-2.7907,-2.7777,-2.7836,-2.7968,-2.8099,-2.8403,-2.8823,-2.9298,-2.9886,-3.0475,-2.4016,-2.4189,-2.4189,-2.4189,-2.4189,-2.4189,-2.4189,-2.4189,-2.4189,-2.4189,-2.4189,-2.4189,-2.4085,-2.3936,-2.4062,-2.4097,-2.389,-2.4108,-2.4189,-2.4189,-2.4189,-2.4189,-2.4189,-2.4189,-2.4189,-2.4189,-2.4189,-2.42,-2.4281,-2.4418,-2.4487,-2.4613,-2.4694,-2.4441,-2.4269,-2.4189,-2.4189,-2.42,-2.425,-2.429,-2.4118,-2.3839,-2.3849,-2.3479,-2.2793,-2.275,-2.273,-2.2406,-2.2469,-2.2494,-2.2567,-2.2616,-2.275,-2.2969,-2.3318,-2.3839,-2.4073,-2.4421,-2.4708,-2.5018,-2.5272,-2.5522,-2.5646,-2.5784,-2.5825,-2.5879,-2.5893,-2.5893,-2.5893,-2.5893,-2.5893,-2.5893,-2.5893,-2.5893,-2.6002,-2.6096,-2.6365,-2.6683,-2.724,-2.7894,-2.8431,-2.8904,-2.9289,-2.9486,-2.9637,-2.977,-2.9874,-2.9837,-2.9724,-2.9626,-2.9545,-2.9556,-2.967,-2.9675,-2.9918,-2.9918,-2.9578,-2.9329,-2.943,-2.9263,-2.8902,-2.8582,-2.8402,-2.7975,-2.7536,-2.7486,-2.7461,-2.7689,-2.7824,-2.7957,-2.8071,-2.8393,-2.8849,-2.9376,-2.9993,-2.3672,-2.4131,-2.4166,-2.4154,-2.4131,-2.4097,-2.4074,-2.4085,-2.3982,-2.4097,-2.4074,-2.4062,-2.3729,-2.3488,-2.3684,-2.3661,-2.3615,-2.3798,-2.4005,-2.4143,-2.4189,-2.4189,-2.4189,-2.4189,-2.4189,-2.4189,-2.4189,-2.4189,-2.4189,-2.4292,-2.4487,-2.4809,-2.4464,-2.4177,-2.4039,-2.4016,-2.3936,-2.3918,-2.4012,-2.4096,-2.3991,-2.3814,-2.3506,-2.2882,-2.255,-2.2436,-2.2279,-2.2185,-2.2197,-2.2247,-2.2247,-2.2333,-2.2395,-2.2506,-2.2909,-2.3138,-2.3378,-2.3708,-2.406,-2.4478,-2.4813,-2.5079,-2.5329,-2.5467,-2.5536,-2.577,-2.5839,-2.5893,-2.5893,-2.5893,-2.5893,-2.5893,-2.5893,-2.5893,-2.5948,-2.6056,-2.6218,-2.6578,-2.7034,-2.763,-2.8125,-2.8606,-2.9044,-2.9243,-2.9502,-2.9637,-2.9726,-2.9786,-2.9874,-2.9874,-2.9874,-2.9874,-2.9918,-2.9918,-2.9918,-2.9918,-2.9918,-2.9821,-2.9876,-2.9854,-2.955,-2.9132,-2.8731,-2.8025,-2.7267,-2.7162,-2.7135,-2.7369,-2.7612,-2.7766,-2.7882,-2.8042,-2.8418,-2.892,-2.9412,-2.3167,-2.3649,-2.4028,-2.3982,-2.3638,-2.3626,-2.3397,-2.3052,-2.3041,-2.327,-2.3511,-2.3247,-2.3018,-2.2937,-2.3064,-2.3029,-2.3029,-2.3454,-2.3592,-2.3821,-2.3994,-2.4189,-2.4189,-2.4189,-2.4189,-2.4189,-2.4189,-2.4189,-2.4189,-2.4212,-2.4223,-2.4338,-2.4143,-2.3994,-2.3638,-2.3626,-2.357,-2.341,-2.334,-2.3618,-2.3757,-2.2977,-2.2341,-2.2309,-2.2273,-2.1961,-2.1862,-2.1999,-2.1963,-2.2002,-2.1975,-2.1987,-2.2011,-2.2185,-2.2309,-2.2494,-2.2714,-2.2992,-2.3412,-2.3813,-2.4187,-2.4477,-2.4743,-2.4951,-2.5216,-2.5564,-2.5729,-2.5839,-2.5893,-2.5893,-2.5893,-2.5893,-2.5893,-2.5893,-2.5893,-2.6002,-2.6071,-2.6472,-2.6878,-2.7327,-2.7765,-2.8207,-2.8701,-2.9044,-2.9259,-2.9412,-2.9518,-2.9608,-2.9697,-2.9742,-2.9786,-2.983,-2.9874,-2.9918,-2.9918,-2.9918,-2.9918,-2.9918,-2.9897,-2.9957,-3.0027,-2.919,-2.8333,-2.7632,-2.7021,-2.6877,-2.6858,-2.7164,-2.7382,-2.7522,-2.7719,-2.7882,-2.8025,-2.8436,-2.8866,-2.2639,-2.3121,-2.3397,-2.3374,-2.3133,-2.3098,-2.2937,-2.2685,-2.2455,-2.2501,-2.2697,-2.2685,-2.2559,-2.2467,-2.2559,-2.2467,-2.2524,-2.3074,-2.3338,-2.3615,-2.3821,-2.4131,-2.4189,-2.4166,-2.4189,-2.4189,-2.4189,-2.4189,-2.412,-2.4166,-2.4154,-2.3925,-2.3833,-2.3626,-2.3178,-2.3075,-2.3029,-2.2855,-2.2669,-2.2805,-2.322,-2.2581,-2.2092,-2.2098,-2.1875,-2.1675,-2.1686,-2.1812,-2.1839,-2.1827,-2.18,-2.1824,-2.1824,-2.18,-2.1862,-2.1999,-2.2173,-2.2396,-2.2763,-2.316,-2.3513,-2.3839,-2.4071,-2.4279,-2.4647,-2.4989,-2.5384,-2.5495,-2.5715,-2.577,-2.5893,-2.5893,-2.5893,-2.5893,-2.5893,-2.5948,-2.6125,-2.6326,-2.6698,-2.7115,-2.756,-2.7944,-2.8383,-2.8858,-2.9059,-2.9259,-2.9366,-2.9473,-2.9563,-2.9592,-2.9637,-2.9742,-2.9786,-2.9874,-2.9918,-2.9918,-2.9918,-2.9918,-2.9946,-2.9686,-2.9469,-2.8682,-2.7869,-2.7245,-2.6766,-2.6532,-2.6607,-2.6856,-2.71,-2.7276,-2.7491,-2.7719,-2.7864,-2.8042,-2.8436,-2.2122,-2.2559,-2.2673,-2.265,-2.2581,-2.2581,-2.2524,-2.2386,-2.2019,-2.1835,-2.1904,-2.2271,-2.218,-2.2134,-2.2226,-2.2076,-2.218,-2.2594,-2.3041,-2.327,-2.3661,-2.3821,-2.3948,-2.4051,-2.4005,-2.4005,-2.4005,-2.3925,-2.381,-2.3787,-2.3615,-2.3397,-2.3247,-2.3098,-2.2742,-2.257,-2.2478,-2.2315,-2.2097,-2.2001,-2.212,-2.2238,-2.2022,-2.1776,-2.1635,-2.1635,-2.1635,-2.1686,-2.1651,-2.1663,-2.1612,-2.1572,-2.1572,-2.1549,-2.1549,-2.1612,-2.1737,-2.1975,-2.2285,-2.2592,-2.2919,-2.3148,-2.3339,-2.3662,-2.4021,-2.4358,-2.4765,-2.516,-2.5384,-2.566,-2.5784,-2.5893,-2.5893,-2.5893,-2.5893,-2.5948,-2.6071,-2.6233,-2.6553,-2.6884,-2.7284,-2.771,-2.8107,-2.859,-2.8873,-2.9075,-2.9213,-2.9366,-2.9473,-2.9457,-2.9502,-2.9608,-2.9697,-2.9742,-2.983,-2.9874,-2.983,-2.9918,-2.9853,-2.9432,-2.8945,-2.8331,-2.7671,-2.6994,-2.6557,-2.6231,-2.626,-2.6487,-2.6725,-2.6989,-2.7244,-2.7491,-2.7719,-2.79,-2.812,-2.1606,-2.2111,-2.2501,-2.2444,-2.2099,-2.2065,-2.1835,-2.1544,-2.1388,-2.1307,-2.1376,-2.1365,-2.1353,-2.1307,-2.1376,-2.1399,-2.1606,-2.2122,-2.2203,-2.2294,-2.2949,-2.3282,-2.3488,-2.3592,-2.3592,-2.3592,-2.3546,-2.3362,-2.3328,-2.3144,-2.296,-2.2834,-2.2823,-2.2581,-2.2168,-2.203,-2.1916,-2.1709,-2.156,-2.1475,-2.144,-2.1545,-2.1475,-2.1371,-2.1348,-2.14,-2.14,-2.1463,-2.1451,-2.1451,-2.1411,-2.136,-2.1308,-2.1296,-2.136,-2.1348,-2.1411,-2.1588,-2.1901,-2.2037,-2.2322,-2.2469,-2.2653,-2.2836,-2.3223,-2.3497,-2.3989,-2.4523,-2.4865,-2.5384,-2.555,-2.5688,-2.5743,-2.5839,-2.5893,-2.5893,-2.6002,-2.6125,-2.6286,-2.6712,-2.7078,-2.7473,-2.7875,-2.8365,-2.8795,-2.8936,-2.9045,-2.9183,-2.9291,-2.9321,-2.9366,-2.9412,-2.9518,-2.9653,-2.9697,-2.9742,-2.9742,-2.983,-2.9745,-2.9308,-2.8747,-2.8174,-2.7518,-2.686,-2.6281,-2.5893,-2.601,-2.6173,-2.6418,-2.6708,-2.6989,-2.7244,-2.7491,-2.7736,-2.7988]}]]